     2              OBSERVATION DATA    GPS                 RINEX VERSION / TYPE
teqc 2000Feb29 Duncan Agnew 20000428 20:59:00UTC            PGM / RUN BY / DATE
                                                            COMMENT
L2: 1 -> 1; 150 -> 5; 250 -> 9                              COMMENT
L2: 1 -> 1; 150 -> 5; 250 -> 9                              COMMENT
L2: 1 -> 1; 150 -> 5; 250 -> 9                              COMMENT
L2: 1 -> 1; 150 -> 5; 250 -> 9                              COMMENT
L2: 1 -> 1; 150 -> 5; 250 -> 9                              COMMENT
Original Marker Name: 7002                                  COMMENT
Campaign Name: Hector Postseismic                           COMMENT
4-Character Station Name: 7002                              COMMENT
6-Character Antenna Code: DMRCHT                            COMMENT
Vertical Measurement Point: BCR                             COMMENT
Vertical Offset to Rinex Ref. Point: 0.0348                 COMMENT
Radial Measurement Point: ECF                               COMMENT
Radial Offset to Rinex Ref. Point: 0.1897                   COMMENT
Antenna Height from Field Measurement: 0.8100 m             COMMENT
Additional Antenna Identification Info.:                    COMMENT
Turborogue and Ashtech Choke Ring                           COMMENT
Original XYZ: 0.0000 0.0000 0.0000                          COMMENT
New XYZ position is based on association with SCEC monument COMMENT
E1F2H3I0+0011. Position of that monument is believed to be  COMMENT
valid to within 1 m horizontally; vertical accuracy         COMMENT
should be no worse than 3-times this value.                 COMMENT
                                                            COMMENT
Revised Rinex header created by UCSD GPS archive for        COMMENT
GSAC on 17-Jun-2000 (2000:169) 00:26:51 GMT                 COMMENT
For assistance contact dagnew@ucsd.edu                      COMMENT
or anderson@python.ucsd.edu                                 COMMENT
                                                            COMMENT
T3N R3E R6E S1S6S12S7                                       MARKER NAME
PWS UNIV SOUTHERN CALIFORNIA                                OBSERVER / AGENCY
174 ASHTECH Z-XII3 CD00                                     REC # / TYPE / VERS
364 DORNE-MARGOL. TYPE T                                    ANT # / TYPE
 -2343985.0255 -4721112.0214  3580580.7911                  APPROX POSITION XYZ
        0.7527        0.0000        0.0000                  ANTENNA: DELTA H/E/N
     1     1     0                                          WAVELENGTH FACT L1/2
     7    C1    L1    L2    P1    P2    S1    S2            # / TYPES OF OBSERV
     0                                                      INTERVAL
  2000     3    11    21    17   30.000000                  TIME OF FIRST OBS
  2000     3    11    23    59   30.000000                  TIME OF LAST OBS
                                                            END OF HEADER
 00  3 11 21 17 30.0000000  0  3G 4G 7G 9
                     50659.78149     35549.09143
       243.000          74.000
  23884586.378       65996.80949     48566.40845  23884585.436    23884609.206
       214.000         154.000
  21970198.736       46584.73449     32589.11247  21970198.248    21970214.529
       235.000         195.000
 00  3 11 21 18  0.0000000  0  5G 4G 5G 7G 9G24
                     71331.88649      3422.54645                  21060426.030
       243.000         155.000
                   -291769.83049   -215828.05243
       239.000          74.000
  23889814.669       93462.84049     69968.28445  23889812.917    23889835.431
       213.000         157.000
  21973841.480       65724.47049     47503.06047  21973840.667    21973857.082
       236.000         195.000
  20406424.687     -186506.28249   -139058.01347  20406424.426    20406438.171
       243.000         212.000
 00  3 11 21 18 30.0000000  0  5G 4G 5G 7G 9G24
  20927611.053     -626540.57449   -540374.26447  20927610.976    20927624.695
       243.000         202.000
                  -1113688.15149   -607832.72846                  21230680.612
       239.000         184.000
  23758229.939     -598021.53649   -468850.92645  23758227.771    23758250.138
       212.000         157.000
  21840753.840     -633655.93749   -497468.82647  21840753.411    21840769.641
       235.000         195.000
  20257993.048     -966519.45249   -746860.43748  20257992.983    20258006.441
       244.000         213.000
 00  3 11 21 19  0.0000000  0  5G 4G 5G 7G 9G24
  20939074.483     -566299.48349   -493433.23847  20939074.560    20939088.380
       242.000         206.000
  21218501.594    -1177613.10249   -657644.25947  21218501.007    21218515.984
       239.000         198.000
  23770832.903     -531789.37449   -417241.66245  23770831.286    23770854.396
       212.000         156.000
  21851932.975     -574908.69249   -451691.89047  21851932.462    21851948.804
       235.000         195.000
  20253843.174     -988328.17949   -763854.20248  20253842.926    20253856.260
       245.000         213.000
 00  3 11 21 19 30.0000000  0  5G 4G 5G 7G 9G24
  20950615.796     -505649.38249   -446173.50047  20950616.150    20950629.674
       243.000         206.000
  21206393.714    -1241240.44449   -707223.88747  21206393.140    21206408.029
       239.000         201.000
  23783439.437     -465540.52349   -365619.40845  23783438.608    23783461.482
       214.000         156.000
  21863187.974     -515763.15649   -405604.59647  21863187.600    21863203.785
       236.000         195.000
  20249794.496    -1009604.37249   -780433.00048  20249794.199    20249807.582
       245.000         213.000
 00  3 11 21 20  0.0000000  0  5G 4G 5G 7G 9G24
  20962233.417     -444598.65349   -398601.59247  20962233.708    20962247.586
       242.000         207.000
  21194341.409    -1304575.83149   -756576.02447  21194340.823    21194355.588
       240.000         202.000
  23796050.080     -399271.90749   -313981.75445  23796050.577    23796072.396
       214.000         156.000
  21874519.042     -456217.81249   -359205.77147  21874518.946    21874535.233
       236.000         195.000
  20245850.230    -1030331.58549   -796584.02848  20245850.070    20245863.580
       245.000         213.000
 00  3 11 21 20 30.0000000  0  5G 4G 5G 7G 9G24
  20973932.453     -383120.31049   -350696.47247  20973932.719    20973946.402
       243.000         207.000
  21182349.671    -1367592.55849   -805679.85847  21182348.765    21182363.982
       239.000         202.000
  23808669.313     -332958.11149   -262308.91145  23808669.531    23808691.857
       214.000         156.000
  21885929.477     -396256.14649   -312482.53847  21885929.556    21885946.106
       236.000         195.000
  20242017.446    -1050473.11049   -812278.67348  20242016.923    20242030.695
       245.000         213.000
 00  3 11 21 21  0.0000000  0  5G 4G 5G 7G 9G24
  20985718.313     -321185.74549   -302435.85147  20985718.699    20985732.409
       243.000         207.000
  21170417.813    -1430294.58049   -854538.46747  21170416.965    21170431.714
       240.000         202.000
  23821303.465     -266567.05349   -210575.84445  23821304.284    23821325.476
       217.000         156.000
  21897422.252     -335862.11249   -265422.40147  21897422.490    21897438.647
       236.000         195.000
  20238299.807    -1070009.18349   -827501.53848  20238299.587    20238313.157
       246.000         213.000
 00  3 11 21 21 30.0000000  0  5G 4G 5G 7G 9G24
  20997592.800     -258785.46649   -253812.33647  20997592.969    20997606.515
       243.000         206.000
  21158545.320    -1492684.68849   -903154.02947  21158544.584    21158559.115
       240.000         202.000
  23833953.462     -200092.92549   -158778.03845  23833953.427    23833974.610
       217.000         155.000
  21909001.097     -275015.28949   -218009.43147  21909001.254    21909017.676
       235.000         195.000
  20234697.147    -1088941.38049   -842253.84648  20234696.621    20234710.193
       245.000         213.000
 00  3 11 21 22  0.0000000  0  5G 4G 5G 7G 9G24
  21009550.344     -195948.47249   -204848.52447  21009550.611    21009564.326
       243.000         206.000
  21146726.785    -1554791.41649   -951548.77947  21146726.106    21146740.758
       240.000         202.000
  23846617.417     -133545.05749   -106922.79545  23846616.991    23846638.312
       216.000         155.000
  21920667.204     -213710.10649   -170239.31247  21920667.258    21920683.716
       235.000         195.000
  20231200.257    -1107317.44849   -856572.81248  20231199.932    20231213.557
       245.000         213.000
 00  3 11 21 22 30.0000000  0  5G 4G 5G 7G 9G24
  21021582.548     -132719.17649   -155579.01847  21021582.661    21021596.670
       243.000         206.000
  21134957.723    -1616637.87149   -999740.71547  21134956.944    21134971.631
       241.000         202.000
  23859287.901      -66962.71249    -55040.68245  23859287.269    23859309.016
       213.000         153.000
  21932415.066     -151975.26749   -122134.38947  21932415.075    21932431.802
       236.000         195.000
  20227801.811    -1125176.44649   -870488.86348  20227801.604    20227815.081
       246.000         213.000
 00  3 11 21 23  0.0000000  0  5G 4G 5G 7G 9G24
  21033688.066      -69104.38549   -106009.12647  21033688.101    21033702.111
       242.000         205.000
  21123237.971    -1678225.50949  -1047730.97847  21123237.127    21123251.694
       240.000         202.000
  23871962.055        -360.39549     -3143.00745  23871960.905    23871982.640
       214.000         152.000
  21944242.783      -89820.72549    -73702.43447  21944242.637    21944259.456
       236.000         195.000
  20224499.977    -1142527.69149   -884009.26148  20224499.720    20224513.216
       245.000         213.000
 00  3 11 21 23 30.0000000  0  5G 4G 5G 7G 9G24
  21045860.657       -5137.12149    -56164.58347  21045860.754    21045875.201
       242.000         205.000
  21111567.675    -1739553.09749  -1095518.61447  21111566.926    21111581.571
       241.000         203.000
  23884634.036       66230.26249     48745.57445  23884634.182    23884655.502
       212.000         149.000
  21956145.147      -27274.23949    -24965.06347  21956145.537    21956161.656
       236.000         195.000
  20221288.096    -1159406.23749   -897161.32348  20221287.954    20221301.302
       246.000         213.000
 00  3 11 21 24  0.0000000  0  5G 4G 5G 7G 9G24
  21058099.233       59176.78549     -6049.90747  21058099.181    21058113.569
       243.000         205.000
  21099946.359    -1800623.29549  -1143105.66647  21099945.232    21099959.982
       242.000         201.000
  23897299.461      132786.67449    100607.48045  23897299.993    23897320.941
       214.000         148.000
  21968117.109       35638.23449     24057.50547  21968116.729    21968134.002
       236.000         194.000
  20218163.819    -1175824.41649   -909954.64448  20218163.127    20218176.901
       246.000         213.000
 00  3 11 21 24 30.0000000  0  5G 4G 5G 7G 9G24
  21070412.379      123882.75749     44370.23847  21070412.827    21070426.767
       242.000         204.000
  21088382.105    -1861393.65449  -1190459.11347  21088381.397    21088395.863
       241.000         202.000
  23909960.470      199319.69849    152451.15045  23909960.049    23909983.153
       209.000         145.000
  21980159.405       98920.26949     73368.00347  21980159.422    21980175.995
       235.000         193.000
  20215133.756    -1191747.28349   -922362.04248  20215133.544    20215146.875
       246.000         213.000
 00  3 11 21 25  0.0000000  0  5G 4G 5G 7G 9G24
  21082807.880      189020.89449     95127.15147  21082808.585    21082822.464
       242.000         204.000
  21076878.846    -1921843.34149  -1237562.66447  21076878.031    21076892.678
       240.000         203.000
  23922623.665      265864.98349    204304.37145  23922624.482    23922645.160
       210.000         144.000
  21992273.195      162578.02249    122971.29047  21992273.196    21992290.455
       234.000         193.000
  20212202.119    -1207153.16549   -934366.58348  20212201.904    20212215.135
       245.000         213.000
 00  3 11 21 25 30.0000000  0  5G 4G 5G 7G 9G24
  21095284.453      254584.79449    146215.82447  21095285.138    21095299.067
       242.000         205.000
  21065434.920    -1981981.28449  -1284423.29947  21065434.083    21065448.585
       241.000         203.000
  23935293.927      332447.26549    256186.43345  23935292.452    23935316.276
       209.000         145.000
  22004460.105      226620.12549    172874.06047  22004460.419    22004476.800
       234.000         192.000
  20209370.056    -1222035.74549   -945963.36148  20209369.645    20209382.915
       246.000         213.000
 00  3 11 21 26  0.0000000  0  5G 4G 5G 7G 9G24
  21107842.768      320578.33349    197639.27247  21107843.144    21107857.417
       242.000         205.000
  21054047.200    -2041823.98149  -1331053.87747  21054046.527    21054061.083
       241.000         203.000
  23947971.670      399068.86449    308099.11945  23947972.354    23947994.129
       211.000         145.000
  22016718.792      291039.26249    223070.62047  22016718.903    22016735.869
       233.000         192.000
  20206639.917    -1236382.65249   -957142.73348  20206639.644    20206653.004
       245.000         213.000
 00  3 11 21 26 30.0000000  0  5G 4G 5G 7G 9G24
  21120481.535      386994.86949    249392.32847  21120481.675    21120496.005
       241.000         204.000
  21042717.692    -2101360.41549  -1377445.58047  21042717.100    21042731.285
       241.000         204.000
  23960662.294      465757.92149    360064.61245  23960661.519    23960685.292
       211.000         146.000
  22029051.105      355845.36249    273568.93647  22029051.015    22029068.282
       233.000         192.000
  20204015.938    -1250171.41249   -967886.96648  20204015.711    20204029.074
       244.000         213.000
 00  3 11 21 27  0.0000000  0  5G 4G 5G 7G 9G24
  21133196.927      453814.45449    301459.45047  21133197.282    21133211.412
       241.000         204.000
  21031445.272    -2160596.93449  -1423603.80647  21031444.304    21031458.834
       241.000         204.000
  23973365.515      532512.59549    412081.00445  23973365.884    23973387.613
       213.000         148.000
  22041458.907      421048.31949    324376.27147  22041459.155    22041476.284
       234.000         191.000
  20201497.858    -1263403.86949   -978197.93248  20201497.484    20201510.922
       245.000         213.000
 00  3 11 21 27 30.0000000  0  6G 4G 5G 7G 9G24G10
  21145984.726      521014.38749    353822.94347  21145984.989    21145999.067
       240.000         203.000
  21020231.599    -2219524.70449  -1469521.44747  21020230.807    21020245.489
       241.000         204.000
  23986078.518      599317.92549    464136.88445  23986079.123    23986100.951
       213.000         149.000
  22053942.814      486651.16549    375495.20647  22053942.573    22053960.024
       233.000         191.000
  20199084.905    -1276083.73349   -988078.31248  20199084.335    20199097.880
       245.000         213.000
                   -582608.51449   -116342.43643
       205.000          74.000
 00  3 11 21 28  0.0000000  0  6G 4G 5G 7G 9G24G10
  21158847.078      588606.36449    406491.92747  21158847.405    21158861.514
       240.000         203.000
  21009084.225    -2278104.13649  -1515167.66347  21009083.414    21009097.711
       241.000         204.000
  23998800.085      666168.85749    516228.29045  23998800.036    23998822.915
       214.000         150.000
  22066502.680      552653.26549    426925.24447  22066503.098    22066519.740
       233.000         191.000
  20196778.523    -1288203.42549   -997522.18848  20196777.942    20196791.859
       245.000         213.000
                   -682355.62249   -194066.55543
       205.000          74.000
 00  3 11 21 28 30.0000000  0  6G 4G 5G 7G 9G24G10
  21171784.584      656593.29649    459468.67147  21171784.678    21171798.876
       240.000         202.000
  20998007.686    -2336311.30849  -1560523.80247  20998006.832    20998021.013
       241.000         204.000
  24011532.654      733077.78449    568364.88645  24011532.762    24011554.497
       215.000         151.000
  22079140.082      619062.49349    478672.52447  22079140.549    22079156.863
       233.000         191.000
  20194578.689    -1299763.45849  -1006529.96948  20194578.364    20194591.653
       245.000         213.000
                   -782097.06649   -271786.68044                  24138925.872
       208.000         120.000
 00  3 11 21 29  0.0000000  0  6G 4G 5G 7G 9G24G10
  21184795.941      724968.38449    512747.87147  21184796.091    21184810.684
       240.000         202.000
  20987000.573    -2394153.64749  -1605595.66147  20986999.802    20987014.110
       241.000         204.000
  24024272.539      800025.13949    620531.45945  24024272.562    24024295.450
       215.000         152.000
  22091852.040      685863.14449    530724.81047  22091852.379    22091869.436
       233.000         191.000
  20192479.694    -1310793.70549  -1015124.93648  20192479.487    20192492.894
       245.000         213.000
  24119915.885     -881847.67649   -349513.81745  24119913.581    24119941.404
       209.000         142.000
 00  3 11 21 29 30.0000000  0  6G 4G 5G 7G 9G24G10
  21197875.617      793702.14749    566306.55647  21197876.156    21197890.108
       240.000         202.000
  20976057.416    -2451659.87649  -1650405.61247  20976056.568    20976070.884
       240.000         204.000
  23737223.820      866993.21649    672714.13545  23737223.142    23737246.563
       215.000         153.000
  22104630.315      753012.98249    583049.19847  22104630.463    22104647.323
       233.000         190.000
  19890684.602    -1321317.46449  -1023325.22748  19890684.206    19890697.697
       245.000         213.000
  23801133.717     -981638.09349   -427271.95445  23801131.999    23801161.230
       211.000         148.000
 00  3 11 21 30  0.0000000  0  6G 4G 5G 7G 9G24G10
  21211025.371      862803.91649    620151.98447  21211025.922    21211039.968
       241.000         202.000
  20965175.792    -2508842.66449  -1694963.53747  20965175.031    20965188.928
       242.000         204.000
  23749971.033      933979.58649    724911.06545  23749970.528    23749994.365
       214.000         153.000
  22117473.498      820504.10749    635639.52147  22117473.602    22117490.779
       234.000         190.000
  19888778.009    -1331336.51849  -1031132.24548  19888777.676    19888791.127
       246.000         213.000
  23782137.022    -1081464.94649   -505058.57545  23782135.500    23782163.635
       211.000         150.000
 00  3 11 21 30 30.0000000  0  7G30G 4G 5G 7G 9G24G10
  23738654.495    -1823291.98049  -1399563.16945  23738654.651    23738676.771
       218.000         156.000
  21224247.295      932284.94649    674292.94147  21224247.759    21224262.093
       240.000         202.000
  20954354.405    -2565709.05849  -1739274.92747  20954353.483    20954367.895
       241.000         205.000
  23762722.399     1000987.98949    777125.16145  23762722.290    23762745.735
       214.000         153.000
  22130384.155      888349.54949    688505.92347  22130384.344    22130401.610
       233.000         190.000
  19886969.296    -1340841.20149  -1038538.45648  19886968.848    19886982.205
       245.000         213.000
  23763136.040    -1181314.08849   -582862.56045  23763134.444    23763162.597
       212.000         152.000
 00  3 11 21 31  0.0000000  0  7G30G 4G 5G 7G 9G24G10
  23719824.621    -1922239.18949  -1476664.58845  23719825.886    23719847.348
       218.000         160.000
  21237540.807     1002142.04349    728726.94047  21237541.486    21237555.510
       240.000         202.000
  20943593.324    -2622258.49649  -1783339.33647  20943592.643    20943606.677
       241.000         205.000
  23775476.691     1068011.12949    829350.75445  23775476.420    23775499.167
       214.000         154.000
  22143362.874      956552.43649    741650.86447  22143363.019    22143380.425
       233.000         189.000
  19885259.202    -1349827.58449  -1045540.79948  19885258.952    19885272.287
       244.000         213.000
  23744135.316    -1281162.22149   -660665.77345  23744133.778    23744161.854
       213.000         152.000
 00  3 11 21 31 30.0000000  0  7G30G 4G 5G 7G 9G24G10
  23701007.362    -2021126.94249  -1553719.69845  23701007.824    23701029.106
       221.000         160.000
  21250904.496     1072367.90049    783448.27047  21250904.705    21250918.684
       241.000         202.000
  20932892.025    -2678493.79749  -1827158.97147  20932891.491    20932905.733
       242.000         205.000
  23788232.836     1135044.16849    881584.05345  23788232.379    23788256.154
       214.000         154.000
  22156408.846     1025108.91149    795071.31647  22156409.117    22156426.889
       232.000         189.000
  19883647.396    -1358297.73149  -1052140.88948  19883647.237    19883660.665
       245.000         213.000
  23725137.396    -1380995.17949   -738457.19045  23725135.540    23725163.166
       212.000         152.000
 00  3 11 21 32  0.0000000  0  7G30G 4G 5G 7G 9G24G10
  23682205.073    -2119934.72349  -1630712.48545  23682205.470    23682226.504
       221.000         161.000
  21264339.187     1142967.20049    838460.60047  21264339.484    21264353.736
       240.000         201.000
  20922253.220    -2734401.24149  -1870723.12847  20922252.576    20922266.713
       242.000         205.000
  23800990.331     1202084.62449    933823.12345  23800990.557    23801013.729
       214.000         153.000
  22169522.838     1094022.54549    848770.08747  22169523.268    22169540.339
       233.000         189.000
  19882132.727    -1366257.31249  -1058343.12848  19882132.536    19882145.830
       245.000         213.000
  23706143.130    -1480809.22049   -816233.86745  23706141.560    23706169.594
       212.000         152.000
 00  3 11 21 32 30.0000000  0  7G30G 4G 5G 7G 9G24G10
  23663417.202    -2218665.14249  -1707644.98145  23663417.027    23663438.719
       221.000         161.000
  21277842.452     1213927.13349    893753.93847  21277842.526    21277857.283
       239.000         201.000
  20911680.578    -2789960.51949  -1914015.98847  20911679.765    20911694.018
       242.000         206.000
  23813752.277     1269148.24949    986080.25645  23813751.193    23813775.541
       213.000         153.000
  22182706.096     1163299.96649    902752.31947  22182706.012    22182723.730
       232.000         189.000
  19880715.118    -1373706.76549  -1064147.86548  19880714.997    19880728.147
       245.000         213.000
  23687151.868    -1580607.22549   -893998.07345  23687149.977    23687177.979
       212.000         151.000
 00  3 11 21 33  0.0000000  0  7G30G 4G 5G 7G 9G24G10
  23644644.595    -2317315.44049  -1784515.05045  23644644.713    23644665.620
       218.000         160.000
  21291412.777     1285239.27049    949321.71547  21291413.051    21291427.878
       239.000         200.000
  20901177.389    -2845154.95649  -1957024.56547  20901176.746    20901191.019
       242.000         206.000
  23826521.499     1336250.12849   1038367.19645  23826521.153    23826544.818
       211.000         151.000
  22195957.938     1232938.29449    957015.77147  22195958.218    22195975.844
       231.000         188.000
  19879395.182    -1380643.13249  -1069552.80548  19879394.981    19879408.148
       245.000         213.000
  23668163.267    -1680391.40449   -971751.51045  23668161.243    23668188.839
       211.000         150.000
 00  3 11 21 33 30.0000000  0  7G30G 4G 5G 7G 9G24G10
  23625888.375    -2415879.53249  -1861317.92745  23625887.838    23625909.171
       220.000         160.000
  21305049.416     1356899.96949   1005161.09947  21305049.771    21305064.531
       239.000         200.000
  20890743.344    -2899986.07949  -1999750.03747  20890742.440    20890756.736
       243.000         206.000
  23839298.246     1403392.02149   1090685.32745  23839297.288    23839322.866
       209.000         149.000
  22209277.755     1302933.57049   1011557.36547  22209277.817    22209295.326
       231.000         188.000
  19878173.337    -1387063.96249  -1074556.02548  19878173.177    19878186.541
       246.000         213.000
  23649174.413    -1780176.83549  -1049505.93245  23649172.359    23649199.337
       211.000         149.000
 00  3 11 21 34  0.0000000  0  7G30G 4G 5G 7G 9G24G10
  23607148.351    -2514358.17549  -1938054.22545  23607148.621    23607168.902
       220.000         159.000
  21318752.120     1428907.65349   1061270.86347  21318752.685    21318767.165
       240.000         200.000
  20880378.298    -2954454.55349  -2042192.92647  20880377.535    20880391.421
       242.000         206.000
  23852081.237     1470567.74148   1143029.76845  23852079.959    23852102.291
       171.000         146.000
  22222663.816     1373276.98749   1066370.23446  22222664.060    22222681.118
       231.000         187.000
  19877050.472    -1392964.82949  -1079154.07648  19877050.184    19877063.487
       245.000         213.000
  23630184.752    -1879966.54049  -1127263.68245  23630182.815    23630210.268
       214.000         149.000
 00  3 11 21 34 30.0000000  0  7G30G 4G 5G 7G 9G24G10
  23588427.631    -2612734.99849  -2014711.17845  23588428.021    23588449.578
       218.000         158.000
  21332519.566     1501255.26149   1117645.50647  21332520.084    21332534.620
       239.000         200.000
  20870079.546    -3008574.59949  -2084364.31347  20870078.945    20870093.023
       242.000         206.000
  23864869.377     1537769.97649   1195394.92245  23864869.285    23864893.874
       202.000         142.000
  22236114.948     1443962.08049   1121449.34546  22236114.998    22236132.937
       231.000         187.000
  19876027.664    -1398339.59349  -1083342.18048  19876027.353    19876040.746
       245.000         213.000
  23611197.879    -1979741.54349  -1205009.97345  23611195.220    23611223.020
       211.000         150.000
 00  3 11 21 35  0.0000000  0  7G30G 4G 5G 7G 9G24G10
  23569727.659    -2711002.56549  -2091282.99745  23569727.147    23569747.033
       218.000         157.000
  21346353.943     1573954.83949   1174294.41047  21346354.486    21346368.787
       239.000         199.000
  20859844.570    -3062359.48949  -2126274.54047  20859843.881    20859858.021
       242.000         206.000
  23877661.477     1604992.55449   1247775.91945  23877662.268    23877685.842
       206.000         141.000
  22249628.430     1514975.18949   1176784.05846  22249629.282    22249646.354
       232.000         187.000
  19875105.764    -1403184.15549  -1087117.13748  19875105.461    19875118.910
       245.000         213.000
  23592215.405    -2079492.90349  -1282737.84545  23592213.141    23592240.410
       212.000         152.000
 00  3 11 21 35 30.0000000  0  7G30G 4G 5G 7G 9G24G10
  23551048.617    -2809160.22149  -2167769.16845  23551047.709    23551069.269
       220.000         157.000
  21360257.107     1647015.82249   1231224.93247  21360257.392    21360272.204
       239.000         199.000
  20849670.114    -3115826.43549  -2167937.01647  20849669.254    20849683.634
       242.000         207.000
  23890458.349     1672239.76249   1300176.10945  23890458.610    23890483.461
       201.000         143.000
  22263204.216     1586315.27749   1232373.55746  22263204.844    22263222.217
       232.000         187.000
  19874284.930    -1407497.62149  -1090478.24748  19874284.719    19874298.145
       244.000         213.000
  23573238.402    -2179215.94449  -1360443.62645  23573236.638    23573263.209
       212.000         151.000
 00  3 11 21 36  0.0000000  0  7G30G 4G 5G 7G 9G24G10
  23532388.875    -2907216.97149  -2244176.70645  23532388.267    23532409.014
       219.000         157.000
  21374229.520     1720440.78549   1288439.06947  21374229.669    21374244.698
       239.000         199.000
  20839557.827    -3168966.69849  -2209344.93447  20839556.985    20839571.173
       242.000         207.000
  23903260.990     1739517.53349   1352600.11945  23903260.167    23903285.919
       204.000         141.000
  22276840.838     1657975.10349   1288212.19746  22276841.114    22276858.385
       232.000         187.000
  19873565.098    -1411280.51649  -1093425.93148  19873564.977    19873578.063
       244.000         213.000
  23554267.683    -2278905.76649  -1438123.51345  23554265.891    23554291.845
       213.000         153.000
 00  3 11 21 36 30.0000000  0  7G30G 4G 5G 7G 9G24G10
  23513745.682    -3005186.44349  -2320516.25145  23513745.493    23513765.463
       221.000         157.000
  21388270.323     1794225.54549   1345933.56947  21388270.568    21388285.294
       238.000         198.000
  20829507.464    -3221781.39049  -2250499.15747  20829506.683    20829520.867
       242.000         207.000
  23916071.785     1806837.21349   1405056.80345  23916071.708    23916097.052
       201.000         142.000
  22290538.306     1729954.74149   1344300.04046  22290538.541    22290555.876
       232.000         187.000
  19872946.582    -1414530.99149  -1095958.74048  19872946.296    19872959.637
       244.000         213.000
  23535301.946    -2378569.72449  -1515783.24245  23535300.061    23535326.888
       212.000         154.000
 00  3 11 21 37  0.0000000  0  7G30G 4G 5G 7G 9G24G10
  23495117.078    -3103079.29649  -2396796.08445  23495116.210    23495137.137
       220.000         157.000
  21402379.681     1868370.34349   1403708.62447  21402380.181    21402394.396
       238.000         198.000
  20819521.746    -3274256.51249  -2291388.77247  20819521.225    20819535.203
       242.000         207.000
  23928891.995     1874205.91849   1457551.67045  23928892.572    23928916.359
       203.000         141.000
  22304297.892     1802260.92549   1400642.33746  22304297.936    22304316.236
       231.000         187.000
  19872427.140    -1417260.71249  -1098085.76748  19872426.875    19872440.163
       244.000         213.000
  23516340.499    -2478211.20549  -1593425.45645  23516337.918    23516364.973
       214.000         154.000
 00  3 11 21 37 30.0000000  0  7G30G 4G 5G 7G 9G24G10
  23476504.899    -3200885.81349  -2473008.65745  23476504.494    23476523.758
       220.000         158.000
  21416553.029     1942851.03849   1461745.40747  21416553.499    21416568.103
       238.000         197.000
  20809603.515    -3326376.80849  -2332001.90047  20809602.742    20809616.740
       242.000         207.000
  23941720.121     1941616.21049   1510078.93945  23941720.482    23941743.925
       204.000         141.000
  22318121.521     1874903.91349   1457247.07746  22318121.576    22318140.161
       231.000         186.000
  19872005.924    -1419474.19249  -1099810.52948  19872005.727    19872018.861
       244.000         213.000
  23497385.073    -2577820.97449  -1671042.95845  23497383.300    23497409.275
       213.000         154.000
 00  3 11 21 38  0.0000000  0  7G30G 4G 5G 7G 9G24G10
  23457910.917    -3298596.99549  -2549146.92845  23457910.736    23457931.736
       221.000         158.000
  21430786.806     2017649.46349   1520029.77847  21430787.225    21430801.911
       238.000         197.000
  20799757.370    -3378118.28449  -2372319.84547  20799756.628    20799770.803
       242.000         207.000
  23954553.142     2009053.11149   1562626.99145  23954553.608    23954577.553
       208.000         145.000
  22332008.577     1947880.20049   1514111.53246  22332008.742    22332026.747
       232.000         186.000
  19871681.201    -1421180.78849  -1101140.31448  19871680.812    19871694.080
       244.000         213.000
  23478436.946    -2677392.35749  -1748630.53145  23478434.678    23478461.170
       212.000         154.000
 00  3 11 21 38 30.0000000  0  7G30G 4G 5G 7G 9G24G10
  23439335.741    -3396208.89949  -2625207.85145  23439335.296    23439356.161
       220.000         159.000
  21445080.253     2092761.40549   1578558.44247  21445080.849    21445095.290
       238.000         197.000
  20789982.627    -3429484.93549  -2412345.71547  20789981.925    20789995.867
       243.000         208.000
  23967391.588     2076517.61449   1615196.49645  23967390.871    23967415.652
       206.000         145.000
  22345961.168     2021200.63849   1571244.15046  22345961.892    22345979.263
       232.000         187.000
  19871452.966    -1422380.11049  -1102074.82848  19871452.550    19871465.702
       244.000         214.000
  23459495.504    -2776928.46649  -1826190.61045  23459493.670    23459519.125
       213.000         153.000
 00  3 11 21 39  0.0000000  0  7G30G 4G 5G 7G 9G24G10
  23420781.394    -3493711.56849  -2701183.66345  23420781.350    23420801.054
       222.000         159.000
  21459432.662     2168183.18549   1637328.53947  21459432.964    21459447.285
       239.000         197.000
  20780280.191    -3480471.28249  -2452075.24647  20780279.382    20780293.331
       243.000         208.000
  23980234.809     2144009.08449   1667787.03445  23980232.361    23980259.425
       198.000         143.000
  22359978.441     2094861.03149   1628641.64546  22359978.389    22359996.381
       233.000         187.000
  19871319.633    -1423080.69049  -1102620.70248  19871319.412    19871332.616
       243.000         214.000
  23440562.774    -2876419.10349  -1903715.25345  23440560.308    23440586.798
       197.000         153.000
 00  3 11 21 39 30.0000000  0  7G30G 4G 5G 7G 9G24G10
  23402245.444    -3591117.16749  -2777083.81445  23402244.913    23402265.247
       220.000         159.000
  21473843.484     2243911.84449   1696337.76547  21473844.077    21473858.809
       238.000         197.000
  20770649.545    -3531080.34049  -2491510.77647  20770648.639    20770662.650
       243.000         208.000
  23993081.765     2211521.22749   1720393.66045  23993081.795    23993106.751
       202.000         142.000
  22374058.520     2168851.39349   1686296.31046  22374058.652    22374076.164
       231.000         186.000
  19871283.939    -1423268.04949  -1102766.66548  19871283.617    19871296.798
       244.000         214.000
  23421636.931    -2975872.85749  -1981211.13345  23421635.639    23421660.449
       211.000         154.000
 00  3 11 21 40  0.0000000  0  7G30G 4G 5G 7G 9G24G10
  23383725.760    -3688437.04449  -2852917.18245  23383724.904    23383745.873
       221.000         159.000
  21488316.076     2319965.04449   1755599.88047  21488316.288    21488331.170
       238.000         197.000
  20761089.015    -3581321.05049  -2530659.28847  20761088.348    20761102.101
       243.000         208.000
  24005935.826     2279069.24749   1773028.27645  24005934.377    24005960.662
       202.000         142.000
  22388198.814     2243158.33849   1744197.63846  22388199.022    22388216.803
       231.000         186.000
  19871346.872    -1422937.42249  -1102509.00448  19871346.633    19871359.881
       244.000         214.000
  23402716.966    -3075296.36349  -2058683.44045  23402714.778    23402740.376
       210.000         151.000
 00  3 11 21 40 30.0000000  0  7G30G 4G 5G 7G 9G24G10
  23365221.787    -3785674.23149  -2928686.12445  23365221.384    23365241.846
       221.000         160.000
  21502850.835     2396345.33949   1815116.87147  21502851.246    21502866.285
       237.000         197.000
  20751596.075    -3631206.41149  -2569530.90547  20751595.240    20751609.057
       243.000         209.000
  24018799.303     2346667.60749   1825702.10745  24018798.712    24018824.667
       203.000         140.000
  22402398.439     2317777.16549   1802341.99246  22402398.722    22402417.208
       231.000         186.000
  19871509.661    -1422081.97149  -1101842.38848  19871509.360    19871522.471
       244.000         214.000
  23383804.062    -3174682.10349  -2136126.30945  23383801.441    23383827.865
       214.000         155.000
 00  3 11 21 41  0.0000000  0  7G30G 4G 5G 7G 9G24G10
  23346737.109    -3882810.55849  -3004376.45945  23346736.151    23346756.890
       221.000         161.000
  21517446.233     2473044.14249   1874882.05647  21517446.612    21517461.218
       238.000         196.000
  20742171.474    -3680732.91449  -2608122.89347  20742170.604    20742184.505
       243.000         209.000
  24031671.524     2414311.18249   1878411.17145  24031670.631    24031696.426
       206.000         139.000
  22416655.143     2392695.56249   1860719.77246  22416655.472    22416673.728
       231.000         185.000
  19871771.402    -1420706.44849  -1100770.52648  19871771.079    19871784.245
       244.000         214.000
  23364904.641    -3273997.28549  -2213514.22645  23364903.124    23364928.520
       215.000         157.000
 00  3 11 21 41 30.0000000  0  7G30G 4G 5G 7G 9G24G10
  23328273.463    -3979836.61049  -3079980.89045  23328272.713    23328292.531
       223.000         162.000
  21532100.308     2550051.37749   1934887.56947  21532100.317    21532115.322
       237.000         196.000
  20732814.633    -3729903.09149  -2646437.22647  20732813.662    20732827.582
       243.000         209.000
  24044552.634     2482000.76849   1931156.10645  24044552.083    24044579.254
       205.000         140.000
  22430969.958     2467919.71749   1919335.80246  22430970.412    22430988.278
       231.000         185.000
  19872131.929    -1418811.87449  -1099294.20748  19872131.580    19872144.640
       244.000         214.000
  23346020.091    -3373234.41749  -2290841.32945  23346018.088    23346043.438
       217.000         159.000
 00  3 11 21 42  0.0000000  0  7G30G 4G 5G 7G 9G24G10
  23309836.504    -4076722.25649  -3155475.92645  23309835.477    23309856.521
       222.000         162.000
  21546813.253     2627368.22549   1995134.34247  21546813.322    21546828.388
       237.000         195.000
  20723527.797    -3778705.21849  -2684464.77347  20723527.141    20723540.999
       243.000         209.000
  24057443.911     2549743.85949   1983942.74845  24057444.268    24057469.964
       206.000         141.000
  22445342.049     2543444.79149   1978186.31546  22445341.893    22445360.118
       230.000         185.000
  19872587.749    -1416416.63249  -1097427.76248  19872587.204    19872600.444
       244.000         214.000
  23327152.427    -3472383.03449  -2368099.45745  23327150.140    23327175.347
       217.000         161.000
 00  3 11 21 42 30.0000000  0  7G30G 4G 5G 7G 9G24G10
  23591223.213    -2598024.47049  -2003243.61146  23591222.926    23591242.054
       224.000         163.000
  21861376.255     4280407.53149   3283216.79447  21861376.704    21861391.716
       237.000         195.000
  21014104.574    -2251713.86749  -1494601.29947  21014103.679    21014117.514
       244.000         210.000
  24370133.995     4192940.53149   3264355.53545  24370134.577    24370160.466
       207.000         141.000
  22759563.933     4194691.30649   3264871.71946  22759563.842    22759582.662
       230.000         184.000
  20172930.630      161895.90749    132426.18848  20172930.291    20172943.502
       244.000         214.000
  23608096.117    -1996012.44349  -1217680.29745  23608094.346    23608119.129
       216.000         161.000
 00  3 11 21 43  0.0000000  0  7G30G 4G 5G 7G 9G24G10
  23572846.926    -2694592.12749  -2078490.84946  23572846.578    23572866.957
       224.000         164.000
  21876206.022     4358337.83449   3343941.58347  21876206.178    21876221.486
       238.000         195.000
  21004960.456    -2299766.23549  -1532044.61447  21004959.589    21004973.618
       243.000         210.000
  24383036.022     4260739.78149   3317185.94545  24383035.036    24383061.918
       208.000         142.000
  22774051.808     4270824.76449   3324196.29546  22774052.032    22774070.584
       229.000         184.000
  20173574.121      165277.71849    135061.39148  20173573.855    20173587.090
       243.000         214.000
  23589260.650    -2094991.36449  -1294806.20945  23589258.356    23589284.395
       216.000         160.000
 00  3 11 21 43 30.0000000  0  7G30G 4G 5G 7G 9G24G10
  23554495.807    -2791026.99249  -2153634.61946  23554494.663    23554515.165
       222.000         164.000
  21891096.779     4436588.50849   3404916.01647  21891097.109    21891112.085
       238.000         194.000
  20995891.522    -2347423.57649  -1569180.11447  20995890.687    20995904.523
       244.000         210.000
  24395942.834     4328564.49149   3370036.18445  24395942.960    24395966.941
       205.000         140.000
  22788596.010     4347254.11149   3383751.46246  22788596.073    22788614.831
       227.000         183.000
  20174311.102      169150.70449    138079.33748  20174310.745    20174323.958
       244.000         214.000
  23570433.280    -2193927.48749  -1371898.68545  23570430.760    23570455.299
       207.000         154.000
 00  3 11 21 44  0.0000000  0  7G30G 4G 5G 7G 9G24G10
  23536167.410    -2887342.04449  -2228685.03446  23536166.251    23536185.626
       221.000         163.000
  21906050.176     4515168.86149   3466147.33147  21906050.697    21906065.539
       237.000         194.000
  20986897.390    -2394687.88749  -1606009.35447  20986896.584    20986910.153
       244.000         210.000
  24408853.717     4396410.79349   3422903.27445  24408853.822    24408879.572
       208.000         138.000
  22803194.034     4423966.16049   3443526.83946  22803194.197    22803212.615
       230.000         184.000
  20175143.223      173523.51749    141486.74248  20175142.789    20175156.057
       243.000         213.000
  23551612.243    -2292830.39149  -1448965.46145  23551609.430    23551633.183
       213.000         147.000
 00  3 11 21 44 30.0000000  0  7G30G 4G 5G 7G 9G24G10
  23517858.075    -2983557.19049  -2303657.58546  23517857.626    23517877.555
       222.000         164.000
  21921065.737     4594075.24749   3527632.70847  21921066.012    21921081.107
       237.000         194.000
  20977976.830    -2441565.40149  -1642537.19747  20977976.319    20977990.054
       244.000         211.000
  24421769.860     4464283.94649   3475791.30345  24421769.990    24421796.340
       208.000         140.000
  22817847.048     4500967.20149   3503527.44746  22817847.093    22817865.319
       229.000         183.000
  20176071.369      178400.95949    145287.37648  20176070.977    20176084.185
       244.000         213.000
  23532798.488    -2391695.05249  -1526002.36245  23532796.284    23532821.844
       217.000         152.000
 00  3 11 21 45  0.0000000  0  7G30G 4G 5G 7G 9G24G10
  23499564.280    -3079690.84249  -2378566.62046  23499564.290    23499583.590
       222.000         164.000
  21936141.472     4673297.98649   3589364.58747  21936141.795    21936156.990
       236.000         194.000
  20969132.415    -2488043.33049  -1678753.67747  20969131.542    20969145.365
       244.000         211.000
  24434695.542     4532207.49049   3528718.55345  24434696.562    24434721.317
       211.000         141.000
  22832555.725     4578260.92049   3563756.12646  22832555.811    22832574.211
       228.000         182.000
  20177094.917      183779.70449    149478.62748  20177094.648    20177107.749
       244.000         214.000
  23513991.943    -2490522.31349  -1603010.12845  23513989.314    23514014.459
       216.000         156.000
 00  3 11 21 45 30.0000000  0  7G30G 4G 5G 7G 9G24G10
  23481287.248    -3175736.52849  -2453407.13046  23481286.394    23481305.365
       221.000         164.000
  21951275.429     4752827.04749   3651335.15447  21951275.828    21951290.837
       237.000         194.000
  20960363.514    -2534123.78649  -1714660.43747  20960362.643    20960376.294
       244.000         211.000
  24447632.101     4600187.89549   3581690.14245  24447631.617    24447657.518
       211.000         141.000
  22847318.870     4655841.28549   3624208.14846  22847319.120    22847337.878
       228.000         181.000
  20178213.629      189658.67749    154059.66048  20178213.204    20178226.571
       244.000         214.000
  23495197.898    -2589284.02549  -1679966.84245  23495195.115    23495220.028
       217.000         157.000
 00  3 11 21 46  0.0000000  0  7G30G 4G 5G 7G 9G24G10
  23463033.437    -3271659.91449  -2528152.32946  23463033.290    23463051.908
       222.000         164.000
  21966465.588     4832650.99449   3713535.51147  21966466.162    21966480.923
       237.000         194.000
  20951668.272    -2579817.23649  -1750265.63847  20951667.372    20951681.113
       244.000         211.000
  24460578.884     4668222.25349   3634703.76345  24460578.814    24460605.398
       212.000         140.000
  22862138.498     4733718.15249   3684891.22046  22862138.701    22862157.164
       228.000         181.000
  20179426.803      196033.99649    159027.45748  20179426.614    20179439.748
       244.000         214.000
  23476420.162    -2687959.74349  -1756856.55545  23476418.334    23476442.747
       217.000         158.000
 00  3 11 21 46 30.0000000  0  8G30G 4G 5G 7G 6G 9G24G10
  23444804.589    -3367451.64949  -2602794.93246  23444803.300    23444823.376
       221.000         164.000
  21981709.762     4912759.10349   3775957.29847  21981709.799    21981725.037
       237.000         193.000
  20943049.727    -2625107.47049  -1785556.64247  20943048.819    20943062.513
       245.000         211.000
  24473534.039     4736301.29049   3687752.20745  24473534.854    24473559.611
       214.000         140.000
                   1097924.59749    887765.37143
       204.000          74.000
  22877014.964     4811893.97649   3745807.24446  22877014.942    22877033.839
       228.000         181.000
  20180732.165      202893.65649    164372.66448  20180731.880    20180744.679
       244.000         214.000
  23457659.543    -2786545.55649  -1833676.22545  23457656.872    23457681.205
       216.000         157.000
 00  3 11 21 47  0.0000000  0  8G30G 4G 5G 7G 6G 9G24G10
  23426602.590    -3463102.53049  -2677327.78046  23426601.701    23426621.727
       221.000         164.000
  21997007.396     4993148.25449   3838598.06447  21997007.758    21997022.900
       236.000         193.000
  20934507.759    -2669995.40149  -1820534.16847  20934506.832    20934520.544
       245.000         212.000
  24486494.932     4804409.69149   3740823.54045  24486495.422    24486520.055
       210.000         140.000
                   1026980.45349    832489.75243
       206.000          74.000
  22891946.645     4890359.65349   3806949.11246  22891946.765    22891965.891
       227.000         181.000
  20182130.477      210241.93149    170098.60748  20182130.112    20182143.504
       244.000         214.000
  23438916.896    -2885037.23249  -1910422.55445  23438915.107    23438938.926
       216.000         158.000
 00  3 11 21 47 30.0000000  0  8G30G 4G 5G 7G 6G 9G24G10
  23408431.015    -3558593.33349  -2751735.88546  23408430.741    23408449.295
       220.000         163.000
  22012358.534     5073818.78549   3901458.10447  22012359.021    22012374.001
       237.000         192.000
  20926042.025    -2714482.85149  -1855199.63347  20926041.353    20926054.766
       247.000         212.000
  24499458.303     4872531.69049   3793905.44745  24499457.968    24499483.341
       210.000         139.000
                    956050.71049    777226.35043
       207.000          74.000
  22906929.115     4969092.26349   3868298.98646  22906929.073    22906948.744
       228.000         181.000
  20183622.753      218083.88549    176209.23648  20183622.449    20183635.575
       245.000         214.000
  23420194.673    -2983421.40249  -1987085.12445  23420192.678    23420216.768
       217.000         159.000
 00  3 11 21 48  0.0000000  0  8G30G 4G 5G 7G 6G 9G24G10
  23390289.844    -3653924.11349  -2826019.30146  23390288.950    23390308.208
       221.000         163.000
  22027761.225     5154759.76049   3964528.87247  22027761.578    22027776.578
       236.000         192.000
  20917651.836    -2758573.48649  -1889555.89647  20917651.151    20917664.616
       246.000         212.000
  24512425.955     4940676.43749   3847005.10845  24512425.551    24512451.117
       207.000         138.000
                    885138.75449    970899.97443
       211.000          74.000
  22921961.299     5048085.93449   3929852.27846  22921961.536    22921980.659
       228.000         181.000
  20185209.326      226421.42249    182706.02548  20185209.041    20185222.248
       244.000         214.000
  23401491.899    -3081703.15749  -2063667.88445  23401489.436    23401513.411
       218.000         159.000
 00  3 11 21 48 30.0000000  0  8G30G 4G 5G 7G 6G 9G24G10
  23372175.715    -3749113.12249  -2900192.23646  23372174.141    23372194.320
       222.000         164.000
  22043214.048     5235964.37249   4027805.08047  22043214.230    22043229.807
       236.000         192.000
  20909337.517    -2802265.27849  -1923601.36947  20909336.857    20909350.219
       246.000         212.000
  24525397.953     5008843.83049   3900122.40545  24525397.301    24525423.490
       209.000         138.000
                    814241.98749    915657.42543
       212.000          74.000
  22937041.336     5127331.12249   3991601.56146  22937041.127    22937060.910
       229.000         181.000
  20186891.804      235262.93449    189595.53048  20186891.596    20186904.773
       244.000         214.000
  23382809.832    -3179876.34549  -2140166.05545  23382808.768    23382832.167
       217.000         159.000
 00  3 11 21 49  0.0000000  0  8G30G 4G 5G 7G 6G 9G24G10
  23354091.376    -3844145.65949  -2974243.24546  23354090.659    23354110.681
       222.000         164.000
  22058715.229     5317423.15549   4091279.34247  22058715.839    22058730.952
       235.000         192.000
  20901098.289    -2845562.60749  -1957339.47547  20901097.391    20901111.083
       247.000         212.000
  24538375.873     5077042.66249   3953264.21845  24538375.076    24538400.822
       205.000         137.000
                    743374.42649    860438.17943
       213.000          74.000
  22952166.726     5206814.47749   4053536.42646  22952166.796    22952185.954
       229.000         181.000
  20188671.107      244613.15249    196881.41948  20188670.954    20188683.922
       244.000         214.000
  23364153.166    -3277915.95949  -2216560.14845  23364150.915    23364174.318
       217.000         160.000
 00  3 11 21 49 30.0000000  0  8G30G 4G 5G 7G 6G 9G24G10
  23336038.693    -3939011.91549  -3048164.68846  23336037.667    23336056.676
       221.000         165.000
  22074262.951     5399126.46149   4154944.15347  22074263.555    22074278.373
       235.000         191.000
  20892935.230    -2888459.40849  -1990765.48047  20892934.253    20892947.911
       246.000         212.000
  24551360.233     5145275.66549   4006432.64345  24551360.617    24551384.809
       205.000         137.000
                    672538.43349   1053601.45143
       213.000          74.000
  22967336.533     5286531.24649   4115653.16846  22967337.103    22967356.029
       229.000         180.000
  20190547.082      254471.33549    204563.13448  20190546.605    20190559.909
       244.000         214.000
  23345522.702    -3375817.80849  -2292846.90045  23345521.062    23345544.129
       216.000         160.000
 00  3 11 21 50  0.0000000  0  8G30G 4G 5G 7G 6G 9G24G10
  23318016.584    -4033717.33149  -3121960.81346  23318016.243    23318034.392
       222.000         165.000
  22089856.608     5481071.10849   4218797.01847  22089856.960    22089872.120
       235.000         191.000
  20884849.198    -2930951.43149  -2023876.08347  20884848.340    20884861.854
       246.000         212.000
  24564350.461     5213539.38549   4059625.01245  24564349.695    24564374.673
       204.000         137.000
                    601745.65449    998438.85543
       211.000          74.000
  22982553.296     5366494.68449   4177962.12046  22982553.549    22982572.029
       228.000         180.000
  20192519.167      264834.88149    212638.62848  20192518.700    20192531.940
       244.000         214.000
  23326918.900    -3473580.03849  -2369024.87245  23326916.991    23326941.136
       217.000         161.000
 00  3 11 21 50 30.0000000  0  8G30G 4G 5G 7G 6G 9G24G10
  23300024.360    -4128265.66349  -3195634.54246  23300022.790    23300042.511
       222.000         165.000
  22105497.887     5563265.90749   4282844.80347  22105498.242    22105513.849
       235.000         191.000
  20876843.613    -2973020.84849  -2056657.38247  20876842.952    20876856.370
       246.000         212.000
  24577340.227     5281800.40149   4112815.26045  24577339.192    24577364.789
       202.000         136.000
                    530993.83349    943307.74344                  24929145.236
       213.000         131.000
  22997816.163     5446700.46349   4240459.91246  22997815.893    22997835.667
       228.000         180.000
  20194585.164      275691.75549    221098.53648  20194584.810    20194597.914
       244.000         214.000
  23308340.751    -3571207.35849  -2445097.74045  23308338.913    23308362.875
       218.000         161.000
 00  3 11 21 51  0.0000000  0  8G30G 4G 5G 7G 6G 9G24G10
  23282063.074    -4222651.71849  -3269181.82146  23282062.254    23282080.653
       222.000         166.000
  22121188.138     5645718.49349   4347093.46347  22121188.240    22121203.947
       235.000         191.000
  20868917.732    -3014671.36649  -2089112.26748  20868916.949    20868930.459
       246.000         213.000
  24590330.487     5350064.73249   4166008.10745  24590330.968    24590356.181
       199.000         135.000
  24915665.683      460287.93949    888212.56545  24915665.234    24915689.915
       210.000         139.000
  23013126.165     5527154.22349   4303150.92546  23013126.144    23013145.670
       227.000         179.000
  20196743.542      287034.13449    229936.76148  20196743.226    20196756.329
       244.000         214.000
  23289786.263    -3668710.39649  -2521073.75645  23289783.918    23289807.082
       219.000         162.000
 00  3 11 21 51 30.0000000  0  8G30G 4G 5G 7G 6G 9G24G10
  23264129.125    -4316894.10749  -3342617.16246  23264128.759    23264147.386
       223.000         166.000
  22136928.802     5728435.85949   4411548.44147  22136929.143    22136944.834
       234.000         190.000
  20861071.675    -3055902.27349  -2121240.18547  20861070.961    20861084.440
       246.000         212.000
  24603324.708     5418349.71649   4219217.06745  24603322.984    24603348.803
       196.000         134.000
  24902218.490      389623.81749    833149.94445  24902217.174    24902244.292
       209.000         139.000
  23028486.665     5607873.90349   4366049.15646  23028486.790    23028505.812
       228.000         179.000
  20198993.403      298857.33249    239149.64948  20198993.108    20199006.189
       244.000         214.000
  23271251.936    -3766107.28249  -2596967.07045  23271249.399    23271273.390
       216.000         162.000
 00  3 11 21 52  0.0000000  0  8G30G 4G 5G 7G 6G 9G24G10
  23246221.830    -4410996.32049  -3415943.28346  23246221.316    23246240.367
       221.000         167.000
  22152721.568     5811426.99049   4476216.74347  22152721.730    22152737.262
       234.000         190.000
  20853305.808    -3096712.09349  -2153039.98348  20853305.107    20853318.610
       247.000         213.000
  24616325.067     5486666.88449   4272451.11045  24616323.814    24616349.940
       197.000         133.000
  24888779.637      319003.15549    778121.13845  24888778.437    24888804.347
       210.000         139.000
  23043900.052     5688870.90949   4429163.47746  23043900.110    23043919.314
       228.000         179.000
  20201332.817      311150.82649    248729.00248  20201332.598    20201345.750
       244.000         214.000
  23252737.696    -3863398.30549  -2672777.90246  23252735.416    23252758.750
       217.000         163.000
 00  3 11 21 52 30.0000000  0  8G30G 4G 5G 7G 6G 9G24G10
  22928548.874    -6080377.42649  -4716759.46146  22928548.666    22928567.597
       222.000         167.000
  21868776.025     4319282.37949   3313506.53847  21868776.541    21868791.874
       234.000         189.000
  20545825.502    -4712532.01449  -3412120.38348  20545824.742    20545838.173
       246.000         213.000
  24329543.455     3979618.81149   3098127.80545  24329541.509    24329568.267
       196.000         132.000
  24575554.364    -1327006.03349   -504483.14145  24575554.138    24575580.419
       211.000         140.000
  22759574.782     4194730.79949   3264898.22846  22759574.724    22759594.233
       228.000         179.000
  19903969.497    -1251503.90749   -968924.02948  19903969.089    19903982.463
       244.000         214.000
  22934449.998    -5536010.07349  -3976111.39846  22934447.802    22934471.639
       218.000         164.000
 00  3 11 21 53  0.0000000  0  8G30G 4G 5G 7G 6G 9G24G10
  22910696.199    -6174192.86549  -4789862.14346  22910695.905    22910714.516
       223.000         168.000
  21884674.493     4402828.66649   3378607.42047  21884674.805    21884690.064
       235.000         189.000
  20538213.413    -4752533.64649  -3443290.42648  20538212.651    20538225.992
       247.000         213.000
  24342571.121     4048079.51849   3151473.69645  24342570.609    24342596.939
       195.000         132.000
  24562128.024    -1397560.30549   -559460.22345  24562127.183    24562152.808
       210.000         139.000
  22775094.006     4276283.85549   3328445.84046  22775094.470    22775113.230
       230.000         178.000
  19906489.134    -1238263.13049   -958606.53048  19906488.755    19906502.006
       244.000         214.000
  22915977.289    -5633083.31149  -4051752.54046  22915975.190    22915999.084
       218.000         163.000
 00  3 11 21 53 30.0000000  0  8G30G 4G 5G 7G 6G 9G24G10
  22892871.091    -6267863.40849  -4862851.91646  22892870.905    22892888.541
       223.000         168.000
  21900624.668     4486646.91449   3443920.21947  21900625.053    21900640.417
       234.000         189.000
  20530680.033    -4792121.63349  -3474138.15248  20530679.346    20530692.641
       246.000         213.000
  24355614.303     4116622.07148   3204883.34544  24355614.489    24355639.243
       193.000         131.000
  24548707.168    -1468086.02549   -614415.05145  24548705.745    24548733.717
       210.000         139.000
  22790661.876     4358092.59349   3392192.68146  22790661.973    22790680.098
       228.000         178.000
  19909098.905    -1224548.58949   -947919.86248  19909098.478    19909111.629
       244.000         214.000
  22897528.438    -5730031.31649  -4127296.10746  22897526.652    22897549.897
       218.000         163.000
 00  3 11 21 54  0.0000000  0  7G30G 4G 5G 6G 9G24G10
  22875077.399    -6361368.99949  -4935713.15546  22875077.383    22875095.237
       225.000         169.000
  21916628.180     4570745.53149   3509451.49247  21916628.394    21916644.089
       235.000         189.000
  20523225.687    -4831294.24349  -3504662.20648  20523224.887    20523238.257
       247.000         213.000
  24535289.467    -1538595.58449   -669357.30345  24535288.473    24535314.599
       209.000         140.000
  22806273.027     4440128.75749   3456116.73346  22806273.605    22806292.802
       228.000         177.000
  19911799.100    -1210359.06049   -936863.06848  19911798.709    19911812.006
       244.000         214.000
  22879103.926    -5826851.14649  -4202739.78746  22879101.947    22879124.495
       218.000         163.000
 00  3 11 21 54 30.0000000  0  7G30G 4G 5G 6G 9G24G10
  22857314.262    -6454714.46849  -5008449.65146  22857313.541    22857332.086
       225.000         170.000
  21932683.762     4655117.68049   3575195.90547  21932683.929    21932699.487
       234.000         188.000
  20515850.989    -4870048.30449  -3534860.11748  20515850.202    20515863.506
       246.000         213.000
  24521875.424    -1609085.77949   -724284.47845  24521873.660    24521900.850
       209.000         142.000
  22821923.200     4522370.27849   3520200.80246  22821922.832    22821942.351
       227.000         177.000
  19914591.518    -1195684.81549   -925428.57448  19914591.125    19914604.330
       244.000         214.000
  22860704.253    -5923540.31349  -4278081.65845  22860702.365    22860725.149
       217.000         162.000
 00  3 11 21 55  0.0000000  0  7G30G 4G 5G 6G 9G24G10
  22839584.473    -6547883.82249  -5081048.90446  22839583.695    22839602.545
       224.000         170.000
  21948789.345     4739752.55649   3641145.02847  21948789.469    21948805.249
       234.000         188.000
  20508559.084    -4908367.36849  -3564719.06748  20508558.350    20508571.703
       246.000         213.000
  24508467.147    -1679545.66649   -779188.02945  24508464.633    24508492.698
       209.000         143.000
  22837610.981     4604809.02949   3584438.55646  22837611.690    22837630.761
       227.000         177.000
  19917474.918    -1180532.56549   -913621.61048  19917474.469    19917487.767
       244.000         214.000
  22842332.246    -6020084.68549  -4353310.70445  22842330.154    22842353.266
       218.000         162.000
 00  3 11 21 55 30.0000000  0  7G30G 4G 5G 6G 9G24G10
  22821890.447    -6640865.67949  -5153502.07046  22821889.764    22821908.072
       225.000         170.000
  21964944.033     4824645.99049   3707295.63246  21964944.355    21964960.116
       234.000         187.000
  20501351.043    -4946245.67149  -3594234.56648  20501350.410    20501363.768
       246.000         213.000
  24495063.346    -1749981.74649   -834073.03445  24495062.591    24495089.613
       211.000         146.000
  22853336.109     4687443.67349   3648828.95546  22853336.584    22853355.916
       227.000         177.000
  19920448.137    -1164908.17149   -901446.73548  19920447.781    19920460.813
       244.000         214.000
  22823987.376    -6116486.74749  -4428428.83745  22823986.003    22824007.947
       218.000         162.000
 00  3 11 21 56  0.0000000  0  7G30G 4G 5G 6G 9G24G10
  22804233.215    -6733654.13149  -5225804.52446  22804232.438    22804251.294
       225.000         171.000
  21981144.724     4909780.78149   3773634.30346  21981145.170    21981161.288
       234.000         187.000
  20494223.877    -4983699.01449  -3623418.92248  20494223.055    20494236.360
       246.000         213.000
  24481664.451    -1820392.21149   -888938.09745  24481664.207    24481689.974
       208.000         146.000
  22869100.772     4770286.28049   3713381.40346  22869100.481    22869120.619
       226.000         177.000
  19923512.048    -1148807.02949   -888900.37548  19923511.780    19923524.908
       244.000         214.000
  22805672.409    -6212730.97049  -4503423.97445  22805670.033    22805693.219
       218.000         162.000
 00  3 11 21 56 30.0000000  0  7G30G 4G 5G 6G 9G24G10
  22786611.829    -6826254.52949  -5297960.44246  22786611.417    22786630.415
       225.000         171.000
  21997387.992     4995139.13049   3840147.17046  21997388.285    21997404.066
       234.000         187.000
  20487178.349    -5020723.29349  -3652268.94348  20487177.422    20487191.027
       247.000         213.000
  24468272.583    -1890766.08349   -943774.64245  24468271.308    24468297.190
       209.000         145.000
  22884908.131     4853353.97949   3778109.23246  22884908.478    22884927.290
       227.000         177.000
  19926665.836    -1132233.85549   -875986.19848  19926665.626    19926678.538
       244.000         214.000
  22787389.392    -6308807.40949  -4578288.37345  22787387.670    22787409.996
       217.000         162.000
 00  3 11 21 57  0.0000000  0  7G30G 4G 5G 6G 9G24G10
  22769030.025    -6918646.90949  -5369954.26446  22769029.729    22769047.564
       225.000         171.000
  22013673.010     5080716.85549   3906830.98646  22013673.431    22013688.935
       234.000         187.000
  20480215.282    -5057313.96249  -3680781.08048  20480214.383    20480227.674
       247.000         213.000
  24454885.441    -1961115.64249   -998592.26245  24454885.155    24454910.749
       207.000         145.000
  22900757.017     4936639.63049   3843006.90546  22900757.485    22900776.737
       225.000         177.000
  19929908.381    -1115194.33849   -862708.63348  19929907.912    19929920.873
       244.000         215.000
  22769138.448    -6404715.71549  -4653021.75445  22769136.425    22769158.758
       218.000         162.000
 00  3 11 21 57 30.0000000  0  7G30G 4G 5G 6G 9G24G10
  22751487.260    -7010834.00849  -5441788.13546  22751486.504    22751506.009
       225.000         171.000
  22029998.301     5166506.18149   3973679.68346  22029999.049    22030014.250
       234.000         186.000
  20473333.786    -5093476.24949  -3708959.42048  20473332.917    20473346.211
       246.000         213.000
  24441502.571    -2031441.51849  -1053391.41145  24441501.491    24441527.929
       208.000         145.000
  22916647.231     5020142.44049   3908073.77646  22916648.015    22916667.746
       226.000         177.000
  19933241.477    -1097678.53049   -849059.94348  19933241.004    19933254.200
       244.000         215.000
  22750918.168    -6500462.43749  -4727629.21845  22750915.729    22750938.274
       218.000         162.000
 00  3 11 21 58  0.0000000  0  7G30G 4G 5G 6G 9G24G10
  22733984.298    -7102811.60949  -5513458.76046  22733983.601    22734002.312
       226.000         172.000
  22046363.633     5252505.90849   4040692.32046  22046364.060    22046379.519
       234.000         186.000
  20466534.755    -5129205.03749  -3736799.96348  20466534.043    20466547.190
       247.000         213.000
  24428127.185    -2101728.41149  -1108160.17945  24428126.280    24428152.384
       205.000         145.000
  22932576.518     5103850.45649   3973300.55446  22932576.827    22932596.842
       226.000         177.000
  19936664.695    -1079689.46549   -835042.48548  19936664.364    19936677.533
       244.000         215.000
  22732728.171    -6596049.83949  -4802112.53645  22732726.031    22732748.600
       220.000         162.000
 00  3 11 21 58 30.0000000  0  7G30G 4G 5G 6G 9G24G10
  22716521.380    -7194578.76549  -5584965.39346  22716520.870    22716538.373
       225.000         172.000
  22062770.228     5338722.46649   4107873.91146  22062771.011    22062786.303
       234.000         185.000
  20459821.566    -5164482.90949  -3764289.14948  20459820.821    20459834.059
       245.000         213.000
  24414758.527    -2171979.94849  -1162901.37145  24414757.335    24414784.061
       203.000         145.000
  22948542.762     5187752.47949   4038678.50646  22948542.934    22948563.236
       227.000         176.000
  19940176.153    -1061236.37749   -820663.45548  19940175.594    19940188.756
       244.000         215.000
  22714565.776    -6691492.41549  -4876483.00746  22714563.975    22714586.337
       219.000         163.000
 00  3 11 21 59  0.0000000  0  7G30G 4G 5G 6G 9G24G10
  22699099.198    -7286132.16849  -5656305.44946  22699098.881    22699117.312
       226.000         173.000
  22079217.576     5425153.34549   4175222.51046  22079217.866    22079233.282
       233.000         185.000
  20453193.149    -5199315.15549  -3791431.09348  20453192.350    20453205.580
       245.000         213.000
  24401396.501    -2242196.32749  -1217615.16645  24401395.495    24401421.918
       207.000         144.000
  22964545.301     5271845.69349   4104205.42146  22964546.066    22964565.584
       225.000         175.000
  19943776.393    -1042316.73349   -805920.87948  19943776.101    19943789.175
       244.000         215.000
  22696431.786    -6786785.70249  -4950737.12846  22696429.919    22696451.922
       221.000         163.000
 00  3 11 21 59 30.0000000  0  7G30G 4G 5G 6G 9G24G10
  22681714.918    -7377486.31949  -5727490.24246  22681714.366    22681733.040
       226.000         173.000
  22095705.187     5511795.59949   4242735.80946  22095705.461    22095721.564
       233.000         185.000
  20446649.717    -5233700.85549  -3818225.08448  20446648.989    20446662.094
       245.000         213.000
  24388043.208    -2312367.32849  -1272293.60445  24388042.949    24388068.453
       206.000         144.000
  22980587.379     5356146.20549   4169893.87546  22980587.660    22980608.049
       225.000         175.000
  19947464.472    -1022935.67949   -790818.76748  19947464.238    19947477.195
       245.000         215.000
  22678327.637    -6881922.37049  -5024869.23346  22678325.542    22678347.645
       221.000         164.000
 00  3 11 22  0  0.0000000  0  7G30G 4G 5G 6G 9G24G10
  22664367.049    -7468649.02449  -5798525.85546  22664367.295    22664384.467
       226.000         173.000
  22112235.798     5598664.01149   4310425.33246  22112235.718    22112251.624
       233.000         185.000
  20440192.500    -5267633.51549  -3844666.06448  20440191.610    20440204.882
       245.000         214.000
  24374696.400    -2382504.80149  -1326945.91445  24374695.020    24374720.481
       203.000         144.000
  22996668.544     5440652.40249   4235742.60546  22996669.157    22996688.867
       225.000         176.000
  19951238.454    -1003103.30149   -775364.97748  19951238.325    19951251.422
       244.000         215.000
  22660255.083    -6976892.43449  -5098871.51146  22660253.783    22660274.801
       221.000         164.000
 00  3 11 22  0 30.0000000  0  7G30G 4G 5G 6G 9G24G10
  22647053.808    -7559629.47649  -5869419.43946  22647053.531    22647071.233
       226.000         174.000
  22128810.148     5685762.45749   4378294.10946  22128810.673    22128826.302
       232.000         184.000
  20433820.537    -5301117.83349  -3870757.68648  20433819.731    20433832.908
       245.000         214.000
  24361351.622    -2452630.87149  -1381589.32045  24361350.748    24361375.759
       205.000         144.000
  23012791.131     5525376.11249   4301760.83246  23012791.336    23012811.392
       226.000         176.000
  19955098.172     -982820.40549   -759560.13448  19955097.913    19955111.005
       245.000         215.000
  22642217.603    -7071678.55849  -5172730.45946  22642215.480    22642237.762
       222.000         165.000
 00  3 11 22  1  0.0000000  0  7G30G 4G 5G 6G 9G24G10
  22629774.482    -7650432.15949  -5940174.50246  22629774.393    22629791.954
       226.000         174.000
  22145428.482     5773091.86449   4446342.85946  22145429.158    22145444.695
       233.000         184.000
  20427532.860    -5334159.80249  -3896504.61848  20427532.154    20427545.396
       245.000         214.000
  24348009.649    -2522742.20049  -1436221.22745  24348008.934    24348034.335
       206.000         146.000
  23028954.278     5610313.17749   4367945.30146  23028953.567    23028974.547
       225.000         176.000
  19959044.125     -962084.29149   -743402.13348  19959043.961    19959056.907
       244.000         214.000
  22624217.897    -7166266.50349  -5246434.98746  22624215.701    22624237.649
       224.000         166.000
 00  3 11 22  1 30.0000000  0  7G30G 4G 5G 6G 9G24G10
  22612528.588    -7741058.69249  -6010792.30146  22612527.723    22612545.982
       226.000         174.000
  22162091.225     5860654.31949   4514573.19246  22162091.563    22162107.379
       233.000         184.000
  20421330.952    -5366750.82249  -3921900.16548  20421330.227    20421343.269
       245.000         214.000
  24334668.110    -2592851.75749  -1490851.73145  24334667.750    24334693.196
       210.000         148.000
  23045154.552     5695445.50449   4434281.91746  23045155.191    23045174.862
       225.000         176.000
  19963076.293     -940895.22849   -726891.18948  19963076.080    19963089.231
       244.000         214.000
  22606256.337    -7260653.89649  -5319983.24246  22606254.086    22606275.325
       223.000         168.000
 00  3 11 22  2  0.0000000  0  7G30G 4G 5G 6G 9G24G10
  22595318.771    -7831496.11549  -6081262.75346  22595318.467    22595335.835
       227.000         175.000
  22178798.017     5948448.28349   4582983.92446  22178798.247    22178814.304
       232.000         183.000
  20415213.823    -5398896.29149  -3946948.52448  20415213.112    20415226.077
       245.000         214.000
  24321324.251    -2662973.83349  -1545491.99145  24321323.088    24321349.112
       207.000         149.000
  23061389.846     5780761.49149   4500761.65846  23061390.392    23061410.829
       224.000         176.000
  19967195.274     -919249.92749   -710024.72748  19967194.929    19967208.099
       244.000         214.000
  22588335.761    -7354825.52849  -5393363.36246  22588333.872    22588355.129
       222.000         168.000
 00  3 11 22  2 30.0000000  0  7G30G 4G 5G 6G 9G24G10
  22578148.465    -7921725.54749  -6151571.13646  22578147.764    22578165.806
       227.000         175.000
  22195543.799     6036447.60549   4651554.66446  22195544.594    22195560.058
       232.000         183.000
  20409181.561    -5430596.01149  -3971649.55448  20409180.898    20409193.957
       245.000         214.000
  24307978.682    -2733104.07249  -1600138.60045  24307976.868    24308003.039
       208.000         150.000
  23077658.519     5866252.71849   4567377.92546  23077659.319    23077679.169
       225.000         176.000
  19971402.333     -897141.64949   -692797.50848  19971401.916    19971415.145
       244.000         214.000
  22570455.857    -7448783.42349  -5466576.95246  22570452.871    22570474.916
       223.000         169.000
 00  3 11 22  3  0.0000000  0  7G30G 4G 5G 6G 9G24G10
  22561020.751    -8011731.02049  -6221705.01346  22561020.620    22561038.267
       228.000         175.000
  22212324.347     6124629.43449   4720267.62246  22212325.087    22212340.501
       232.000         182.000
  20403235.418    -5461842.99049  -3995997.79548  20403234.605    20403247.627
       245.000         214.000
  24294634.094    -2803228.90949  -1654780.98645  24294633.495    24294658.629
       209.000         151.000
  23093957.396     5951902.67849   4634117.88246  23093957.476    23093978.270
       225.000         175.000
  19975698.839     -874563.42149   -675204.09348  19975698.482    19975711.763
       244.000         214.000
  22552614.002    -7542541.25749  -5539634.64546  22552611.982    22552634.101
       222.000         169.000
 00  3 11 22  3 30.0000000  0  7G30G 4G 5G 6G 9G24G10
  22543937.495    -8101503.39549  -6291657.26246  22543937.127    22543954.779
       227.000         176.000
  22229137.457     6212982.07949   4789113.68646  22229138.318    22229153.767
       232.000         182.000
  20397377.008    -5492628.94949  -4019986.79648  20397376.210    20397389.212
       246.000         214.000
  24281291.761    -2873341.80149  -1709414.08945  24281290.782    24281316.316
       209.000         151.000
  23110286.792     6037712.79249   4700982.64646  23110286.781    23110307.630
       224.000         175.000
  19980082.803     -851525.71549   -657252.64048  19980082.227    19980095.384
       244.000         214.000
  22534811.169    -7636094.51649  -5612532.92046  22534808.926    22534830.799
       223.000         170.000
 00  3 11 22  4  0.0000000  0  7G30G 4G 5G 6G 9G24G10
  22526898.205    -8191044.30349  -6361429.14146  22526897.583    22526915.575
       227.000         176.000
  22245983.825     6301509.34649   4858095.82146  22245984.106    22246000.506
       232.000         182.000
  20391606.917    -5522950.95849  -4043614.28248  20391606.225    20391619.234
       246.000         215.000
  24267955.480    -2943423.28549  -1764022.70045  24267954.695    24267979.724
       207.000         151.000
  23126649.013     6123695.87449   4767982.17946  23126649.604    23126669.916
       225.000         174.000
  19984551.910     -828040.46749   -638952.45648  19984551.713    19984564.657
       244.000         214.000
  22517046.372    -7729448.05649  -5685275.57246  22517044.604    22517065.368
       223.000         170.000
 00  3 11 22  4 30.0000000  0  7G30G 4G 5G 6G 9G24G10
  22509901.422    -8280361.76549  -6431026.92346  22509900.430    22509918.334
       226.000         176.000
  22262863.439     6390211.63349   4927214.32646  22262863.770    22262880.003
       232.000         182.000
  20385926.461    -5552801.90049  -4066874.69848  20385925.697    20385938.713
       246.000         215.000
  24254629.966    -3013448.15349  -1818587.20445  24254629.639    24254653.704
       210.000         151.000
  23143044.022     6209851.29449   4835116.00346  23143044.354    23143065.253
       224.000         174.000
  19989106.223     -804107.39049   -620303.31248  19989105.950    19989118.951
       244.000         214.000
  22499315.653    -7822622.42249  -5757878.61446  22499314.339    22499334.067
       222.000         170.000
 00  3 11 22  5  0.0000000  0  7G30G 4G 5G 6G 9G24G10
  22492944.550    -8369469.39349  -6500461.20846  22492944.049    22492961.754
       228.000         177.000
  22279780.299     6479109.80549   4996485.47846  22279780.339    22279797.264
       231.000         182.000
  20380336.293    -5582178.22649  -4089765.28848  20380335.587    20380348.515
       246.000         215.000
  24241315.993    -3083412.91249  -1873104.87445  24241314.717    24241340.421
       208.000         151.000
  23159474.257     6296191.68949   4902393.96646  23159474.449    23159495.230
       224.000         173.000
  19993742.888     -779741.61849   -601317.00148  19993742.570    19993755.752
       244.000         214.000
  22481619.637    -7915614.19049  -5830339.37546  22481617.230    22481638.299
       222.000         170.000
 00  3 11 22  5 30.0000000  0  7G30G 4G 5G 6G 9G24G10
  22476026.514    -8458373.25949  -6569736.72646  22476025.891    22476043.649
       228.000         177.000
  22296738.103     6568223.24649   5065924.36646  22296738.279    22296755.042
       231.000         181.000
  20374835.475    -5611084.96849  -4112289.96748  20374834.665    20374847.652
       246.000         215.000
  24228012.536    -3153321.93749  -1927579.12645  24228011.786    24228036.483
       212.000         152.000
  23175942.905     6382733.93949   4969829.21546  23175942.589    23175964.322
       222.000         172.000
  19998459.931     -754953.46849   -582001.56348  19998459.624    19998472.906
       244.000         214.000
  22463959.874    -8008415.34549  -5902651.60746  22463957.656    22463978.653
       223.000         170.000
 00  3 11 22  6  0.0000000  0  7G30G 4G 5G 6G 9G24G10
  22459149.177    -8547063.36949  -6638845.68546  22459148.775    22459165.947
       228.000         178.000
  22313737.872     6657557.02649   5135534.94946  22313738.131    22313755.322
       231.000         181.000
  20369421.933    -5639533.10049  -4134457.29648  20369421.253    20369434.058
       246.000         215.000
  24214716.942    -3223189.60449  -1982021.15345  24214715.271    24214740.309
       210.000         151.000
  23192449.100     6469473.83849   5037418.48246  23192449.671    23192469.913
       223.000         172.000
  20003259.526     -729731.42649   -562348.03148  20003259.152    20003272.351
       244.000         214.000
  22446335.448    -8101030.96349  -5974819.28146  22446333.067    22446354.965
       223.000         171.000
 00  3 11 22  6 30.0000000  0  7G30G 4G 5G 6G 9G24G10
  22442314.793    -8635527.46149  -6707778.53646  22442313.749    22442331.612
       229.000         178.000
  22330776.451     6747095.03349   5205304.66746  22330776.625    22330793.555
       230.000         180.000
  20364095.289    -5667524.69449  -4156268.88448  20364094.601    20364107.446
       246.000         215.000
  24201425.923    -3293032.65449  -2036443.98645  24201425.232    24201449.476
       212.000         152.000
  23208989.777     6556394.48949   5105148.59046  23208989.581    23209010.744
       224.000         172.000
  20008142.896     -704068.92849   -542351.28548  20008142.381    20008155.684
       244.000         214.000
  22428749.918    -8193441.94249  -6046827.49446  22428747.871    22428769.045
       223.000         171.000
 00  3 11 22  7  0.0000000  0  7G30G 4G 5G 6G 9G24G10
  22425525.934    -8723752.90949  -6776525.43146  22425525.492    22425542.286
       230.000         179.000
  22347852.144     6836828.17349   5275226.44746  22347852.684    22347869.022
       231.000         180.000
  20358856.195    -5695056.11649  -4177721.89948  20358855.668    20358868.299
       247.000         215.000
  24188136.317    -3362869.18249  -2090861.75745  24188135.432    24188159.833
       214.000         153.000
  23225561.816     6643480.24349   5173007.34846  23225561.478    23225583.252
       223.000         171.000
  20013108.777     -677972.95449   -522016.76448  20013108.593    20013121.659
       244.000         214.000
  22411209.190    -8285617.77049  -6118652.48946  22411206.804    22411227.691
       223.000         171.000
 00  3 11 22  7 30.0000000  0  7G30G 4G 5G 6G 9G24G10
  22408784.195    -8811730.61549  -6845079.27246  22408783.552    22408800.953
       229.000         179.000
  22364962.059     6926740.98449   5345288.22446  22364962.559    22364978.966
       230.000         179.000
  20353703.237    -5722135.02649  -4198822.30648  20353702.535    20353715.276
       247.000         216.000
  24174847.693    -3432700.04649  -2145275.10945  24174846.142    24174871.794
       212.000         152.000
  23242159.415     6730700.30949   5240970.75946  23242160.027    23242180.491
       224.000         171.000
  20018160.388     -651426.68449   -501331.36148  20018159.946    20018173.049
       244.000         214.000
  22393715.512    -8377546.10349  -6190284.62046  22393713.854    22393734.338
       223.000         171.000
 00  3 11 22  8  0.0000000  0  7G30G 4G 5G 6G 9G24G10
  22392090.014    -8899458.29549  -6913438.29146  22392089.759    22392106.404
       229.000         180.000
  22382102.851     7016815.88149   5415476.29446  22382103.252    22382119.426
       228.000         179.000
  20348637.951    -5748753.04549  -4219563.58048  20348637.152    20348650.118
       246.000         216.000
  24161561.127    -3502520.22349  -2199680.12045  24161560.150    24161584.624
       211.000         152.000
  23258778.350     6818032.04449   5309021.18446  23258778.483    23258800.119
       222.000         171.000
  20023297.843     -624429.23649   -480294.39048  20023297.550    20023310.856
       244.000         214.000
  22376271.268    -8469214.78949  -6261714.44446  22376270.011    22376289.352
       224.000         171.000
 00  3 11 22  8 30.0000000  0  7G30G 4G 5G 6G 9G24G10
  22675235.722    -7411516.77649  -5754003.12846  22675235.041    22675251.755
       230.000         180.000
  22699064.844     8682461.94849   6713382.16646  22699065.604    22699082.116
       228.000         179.000
  20643455.693    -4199475.19649  -3012334.05048  20643454.974    20643467.768
       246.000         216.000
  24448071.402    -1996896.88749  -1026466.80845  24448070.363    24448094.856
       212.000         151.000
  23575210.940     8480895.34349   6604758.54046  23575211.761    23575232.549
       224.000         171.000
  20328311.249      978426.90749    768684.42348  20328310.893    20328324.050
       245.000         214.000
  22658671.313    -6985191.04849  -5105331.98446  22658669.679    22658690.261
       223.000         171.000
 00  3 11 22  9  0.0000000  0  7G30G 4G 5G 6G 9G24G10
  22658634.027    -7498758.10249  -5821983.16546  22658634.124    22658650.559
       230.000         180.000
  22716264.193     8772844.43349   6783809.91946  22716264.218    22716280.959
       229.000         178.000
  20638570.940    -4225144.69449  -3032336.21648  20638570.125    20638583.137
       246.000         216.000
  24434793.922    -2066668.94849  -1080834.34245  24434792.465    24434816.732
       212.000         151.000
  23591873.929     8568458.86949   6672989.58046  23591874.135    23591895.178
       222.000         169.000
  20333614.973     1006298.16949    790402.28748  20333614.612    20333627.858
       244.000         214.000
  22641328.717    -7076325.70449  -5176345.68946  22641326.506    22641346.644
       224.000         171.000
 00  3 11 22  9 30.0000000  0  7G30G 4G 5G 6G 9G24G10
  22642078.467    -7585757.75749  -5889774.88346  22642077.606    22642095.227
       231.000         181.000
  22733493.442     8863383.96649   6854360.04446  22733493.680    22733510.127
       228.000         178.000
  20633776.750    -4250338.05449  -3051967.36548  20633775.844    20633788.656
       246.000         216.000
  24421523.404    -2136404.61249  -1135173.50245  24421522.182    24421546.686
       213.000         151.000
  23608563.118     8656160.24249   6741328.04046  23608563.222    23608584.714
       223.000         169.000
  20339000.620     1034600.11149    812455.74348  20339000.233    20339013.346
       244.000         214.000
  22624033.282    -7167212.69349  -5247166.40446  22624031.359    22624051.956
       224.000         172.000
 00  3 11 22 10  0.0000000  0  7G30G 4G 5G 6G 9G24G10
  22625568.701    -7672516.33249  -5957378.74746  22625567.945    22625584.907
       231.000         181.000
  22750753.171     8954083.50949   6925034.83746  22750754.111    22750770.135
       230.000         178.000
  20629076.004    -4275040.49049  -3071215.98348  20629075.188    20629088.167
       247.000         216.000
  24408260.591    -2206099.93049  -1189481.21245  24408259.424    24408283.330
       215.000         152.000
  23625282.689     8744020.60049   6809790.36846  23625284.386    23625304.775
       221.000         168.000
  20344464.195     1063311.42849    834828.18448  20344463.921    20344477.003
       245.000         214.000
  22606782.948    -7257862.55349  -5317802.35146  22606781.631    22606801.828
       225.000         173.000
 00  3 11 22 10 30.0000000  0  7G30G 4G 5G 6G 9G24G10
  22609104.579    -7759034.80649  -6024795.50146  22609104.453    22609121.420
       232.000         182.000
  22768044.386     9044948.35849   6995838.46346  22768044.461    22768062.190
       229.000         178.000
  20624468.757    -4299251.59649  -3090081.73948  20624468.068    20624480.804
       246.000         216.000
  24395004.989    -2275757.68749  -1243759.66745  24395003.800    24395028.316
       215.000         152.000
  23642034.696     8832051.62449   6878385.67946  23642035.409    23642057.297
       222.000         168.000
  20350005.212     1092429.39749    857517.49748  20350004.985    20350018.140
       245.000         214.000
  22589577.478    -7348276.69949  -5388254.61846  22589575.672    22589595.537
       225.000         173.000
 00  3 11 22 11  0.0000000  0  7G30G 4G 5G 6G 9G24G10
  22592687.058    -7845308.78349  -6092021.75046  22592686.439    22592703.122
       232.000         182.000
  22785367.929     9135983.53349   7066774.79846  22785368.178    22785385.001
       228.000         177.000
  20619954.104    -4322976.18849  -3108568.39148  20619953.373    20619966.219
       246.000         216.000
  24381755.650    -2345382.66249  -1298012.57645  24381754.742    24381778.353
       216.000         153.000
  23658816.435     8920239.01949   6947102.83946  23658815.963    23658838.029
       222.000         167.000
  20355624.935     1121961.09949    880529.19648  20355624.564    20355637.881
       244.000         214.000
  22572415.666    -7438461.36949  -5458528.08346  22572413.453    22572433.568
       226.000         174.000
 00  3 11 22 11 30.0000000  0  7G30G 4G 5G 6G 9G24G10
  22576317.574    -7931330.41549  -6159051.37146  22576317.261    22576334.136
       232.000         183.000
  22802725.279     9227196.52049   7137849.69446  22802724.992    22802742.276
       228.000         177.000
  20615532.764    -4346210.21249  -3126672.78448  20615532.124    20615544.717
       247.000         216.000
  24368512.504    -2414975.20449  -1352240.21345  24368511.920    24368534.732
       217.000         154.000
  23675626.868     9008577.24849   7015937.53646  23675626.915    23675648.267
       221.000         167.000
  20361322.852     1151903.94449    903861.26648  20361322.510    20361335.544
       245.000         214.000
  22555294.814    -7528430.95949  -5528633.94346  22555293.565    22555312.167
       227.000         175.000
 00  3 11 22 12  0.0000000  0  7G30G 4G 5G 6G 9G24G10
  22559997.085    -8017094.39049  -6225880.22346  22559996.859    22560013.485
       232.000         183.000
  22820116.683     9318588.52049   7209064.07246  22820116.912    22820133.420
       227.000         177.000
  20611204.166    -4368957.05749  -3144397.56148  20611203.301    20611216.013
       247.000         216.000
  24355273.717    -2484543.85949  -1406449.23945  24355272.636    24355296.157
       215.000         153.000
  23692462.446     9097047.85149   7084875.38046  23692463.049    23692484.568
       221.000         166.000
  20367099.675     1182261.16949    927516.22548  20367099.420    20367112.508
       245.000         214.000
  22538218.490    -7618166.49649  -5598557.43046  22538216.427    22538236.704
       228.000         176.000
 00  3 11 22 12 30.0000000  0  7G30G 4G 5G 6G 9G24G10
  22543728.165    -8102587.34249  -6292497.89346  22543727.392    22543744.084
       232.000         183.000
  22837541.005     9410153.56249   7280413.29546  22837540.819    22837558.061
       227.000         176.000
  20606966.193    -4391227.40849  -3161751.04148  20606965.435    20606978.172
       246.000         216.000
  24342037.170    -2554100.49849  -1460648.88845  24342036.289    24342060.396
       214.000         152.000
  23709318.654     9185626.17749   7153897.16246  23709319.120    23709340.688
       221.000         166.000
  20372957.703     1213045.29849    951503.84348  20372957.515    20372970.500
       244.000         214.000
  22521188.884    -7707656.58549  -5668289.66346  22521186.927    22521206.793
       227.000         176.000
 00  3 11 22 13  0.0000000  0  7G30G 4G 5G 6G 9G24G10
  22527512.235    -8187801.90249  -6358898.63046  22527511.978    22527527.812
       233.000         183.000
  22854999.596     9501898.48849   7351902.69746  22854999.923    22855016.994
       227.000         176.000
  20602818.201    -4413024.91649  -3178736.07348  20602817.476    20602830.209
       246.000         216.000
  24328803.745    -2623641.74649  -1514836.54545  24328802.461    24328826.702
       214.000         152.000
  23726192.570     9274298.10249   7222991.87446  23726192.848    23726214.817
       221.000         166.000
  20378896.908     1244255.81249    975823.71048  20378896.673    20378909.658
       245.000         214.000
  22504207.310    -7796894.51049  -5737825.39246  22504205.333    22504225.233
       227.000         177.000
 00  3 11 22 13 30.0000000  0  7G30G 4G 5G 6G 9G24G10
  22511347.206    -8272748.92349  -6425090.90246  22511346.899    22511363.215
       232.000         184.000
  22872491.839     9593820.40549   7423530.00846  22872492.333    22872509.276
       227.000         175.000
  20598760.694    -4434347.25849  -3195350.85048  20598759.965    20598772.782
       246.000         216.000
  24315572.335    -2693172.00549  -1569015.62445  24315571.120    24315595.300
       214.000         151.000
  23743086.376     9363074.12549   7292167.68746  23743086.663    23743108.541
       220.000         166.000
  20384916.057     1275886.65849   1000471.10748  20384915.607    20384928.782
       245.000         214.000
  22487277.321    -7885860.96649  -5807149.60346  22487275.213    22487294.699
       228.000         177.000
 00  3 11 22 14  0.0000000  0  7G30G 4G 5G 6G 9G24G10
  22495231.871    -8357434.85749  -6491079.73946  22495231.435    22495247.957
       233.000         184.000
  22890014.964     9685904.32149   7495283.55146  22890015.022    22890032.018
       228.000         174.000
  20594793.644    -4455194.32049  -3211595.27748  20594793.021    20594805.704
       246.000         216.000
  24302342.290    -2762694.69549  -1623188.82245  24302340.800    24302364.501
       213.000         152.000
  23760000.289     9451956.20249   7361426.14246  23760000.654    23760023.092
       220.000         165.000
  20391014.825     1307935.87949   1025444.51448  20391014.674    20391027.864
       245.000         214.000
  22470403.251    -7974533.49549  -5876244.77446  22470401.365    22470421.151
       226.000         178.000
 00  3 11 22 14 30.0000000  0  7G30G 4G 5G 6G 9G24G10
  22479164.585    -8441867.96149  -6556871.56846  22479163.849    22479180.232
       233.000         184.000
  22907567.517     9778142.99449   7567157.67546  22907567.361    22907584.589
       226.000         174.000
  20590918.921    -4475556.07449  -3227461.54248  20590918.264    20590930.969
       246.000         216.000
  24289114.911    -2832203.89549  -1677351.52345  24289113.836    24289137.106
       214.000         152.000
  23776935.489     9540950.33249   7430771.92246  23776935.480    23776958.255
       219.000         165.000
  20397193.450     1340404.49949   1050744.72448  20397193.337    20397206.514
       245.000         214.000
  22453582.294    -8062927.11249  -5945122.61246  22453580.789    22453599.818
       227.000         178.000
 00  3 11 22 15  0.0000000  0  7G30G 4G 5G 6G 9G24G10
  22463143.751    -8526057.00549  -6622473.21646  22463143.479    22463159.573
       233.000         184.000
  22925149.103     9870534.40249   7639150.83146  22925149.499    22925166.377
       227.000         173.000
  20587138.119    -4495424.21249  -3242943.16748  20587137.371    20587149.998
       246.000         216.000
  24275890.949    -2901695.59149  -1731500.57545  24275889.961    24275912.640
       215.000         153.000
  23793894.392     9630069.25649   7500214.92046  23793895.159    23793916.575
       219.000         165.000
  20403450.100     1373283.14349   1076364.44348  20403449.706    20403462.957
       245.000         214.000
  22436815.088    -8151037.67349  -6013779.89946  22436813.517    22436832.581
       228.000         178.000
 00  3 11 22 15 30.0000000  0  7G30G 4G 5G 6G 9G24G10
  22447171.125    -8609993.07449  -6687877.74946  22447171.197    22447186.804
       232.000         184.000
  22942755.987     9963058.33349   7711247.24646  22942756.640    22942773.736
       226.000         173.000
  20583452.362    -4514792.98449  -3258035.67948  20583451.663    20583464.555
       246.000         216.000
  24262668.674    -2971177.43949  -1785641.95845  24262667.045    24262691.118
       213.000         152.000
  23810876.650     9719310.91849   7569753.57246  23810875.734    23810898.853
       219.000         164.000
  20409785.247     1406574.83249   1102306.00948  20409785.130    20409798.113
       245.000         214.000
  22420101.034    -8238869.34749  -6082219.87346  22420098.739    22420118.678
       227.000         178.000
 00  3 11 22 16  0.0000000  0  7G30G 4G 5G 6G 9G24G10
  22431250.621    -8693655.14249  -6753068.76346  22431250.239    22431266.218
       232.000         185.000
  22960385.903    10055703.50149   7783438.13146  22960386.505    22960403.508
       226.000         173.000
  20579861.837    -4533661.17849  -3272738.13148  20579860.959    20579873.703
       246.000         216.000
  24249451.073    -3040634.78949  -1839764.27245  24249450.215    24249472.794
       214.000         151.000
  23827879.612     9808661.14949   7639376.82146  23827879.782    23827901.385
       219.000         164.000
  20416199.397     1440281.36249   1128570.83448  20416199.129    20416212.214
       245.000         214.000
  22403436.405    -8326441.41649  -6150457.55946  22403434.805    22403453.618
       228.000         179.000
 00  3 11 22 16 30.0000000  0  7G30G 4G 5G 6G 9G24G10
  22415383.178    -8777038.20549  -6818042.37346  22415382.853    22415398.917
       233.000         185.000
  22978039.892    10148475.35749   7855727.73946  22978039.784    22978057.564
       226.000         172.000
  20576366.887    -4552027.12849  -3287049.22348  20576366.218    20576378.940
       247.000         216.000
  24236238.998    -3110063.35549  -1893864.13945  24236238.032    24236261.283
       211.000         151.000
  23844900.884     9898107.22749   7709074.75246  23844900.979    23844923.353
       219.000         165.000
  20422691.862     1474399.35449   1155156.27848  20422691.495    20422704.616
       245.000         214.000
  22386821.791    -8413750.73849  -6218490.52246  22386819.647    22386838.862
       229.000         179.000
 00  3 11 22 17  0.0000000  0  7G30G 4G 5G 6G 9G24G10
  22399570.324    -8860134.42749  -6882792.46746  22399569.850    22399585.720
       232.000         185.000
  22995718.275    10241375.18749   7928117.05246  22995718.575    22995736.621
       225.000         172.000
  20572966.534    -4569896.01749  -3300972.99748  20572965.822    20572978.515
       246.000         216.000
  24223031.625    -3179467.13049  -1947944.71245  24223030.315    24223053.269
       212.000         151.000
  23861939.004     9987642.02649   7778841.81546  23861939.323    23861961.569
       220.000         165.000
  20429262.310     1508927.18749   1182061.07948  20429262.076    20429275.008
       245.000         214.000
  22370259.536    -8500785.14849  -6286309.26346  22370257.823    22370277.024
       228.000         180.000
 00  3 11 22 17 30.0000000  0  7G30G 4G 5G 6G 9G24G10
  22084019.197   -10518366.11249  -8174920.85246  22084018.622    22084034.725
       233.000         185.000
  22713628.531     8758982.63649   6773005.80746  22713629.072    22713646.997
       225.000         172.000
  20269868.755    -6162685.40049  -4542107.54748  20269868.062    20269880.615
       247.000         216.000
  23910036.558    -4824265.77749  -3229605.69845  23910035.147    23910058.656
       211.000         151.000
  23579201.738     8501846.54749   6621078.79546  23579201.998    23579224.287
       219.000         166.000
  20136118.015      -31556.55049    -18315.86448  20136117.786    20136130.922
       245.000         214.000
  22053954.469   -10162978.28349  -7581524.41846  22053952.796    22053972.085
       228.000         180.000
 00  3 11 22 18  0.0000000  0  7G30G 4G 5G 6G 9G24G10
  22068313.438   -10600899.79049  -8239232.61346  22068313.005    22068329.040
       233.000         186.000
  22731356.252     8852141.67949   6845597.11746  22731356.699    22731373.288
       224.000         171.000
  20266660.970    -6179542.36449  -4555242.80848  20266660.103    20266672.888
       247.000         217.000
  23896842.661    -4893599.36449  -3283631.56445  23896841.581    23896864.385
       212.000         150.000
  23596273.425     8591557.43149   6690983.06146  23596273.470    23596296.575
       220.000         166.000
  20142841.149        3773.62449      9214.13948  20142840.692    20142853.964
       245.000         214.000
  22037496.425   -10249464.69949  -7648916.16746  22037494.760    22037513.515
       229.000         180.000
 00  3 11 22 18 30.0000000  0  7G30G 4G 5G 6G 9G24G10
  22052658.296   -10683167.35049  -8303337.00446  22052657.663    22052673.842
       233.000         186.000
  22749110.590     8945440.47149   6918297.32846  22749110.499    22749127.903
       225.000         170.000
  20263549.704    -6195891.97549  -4567982.73248  20263548.917    20263561.604
       247.000         216.000
  23883653.050    -4962909.69649  -3337639.32745  23883651.432    23883675.308
       212.000         150.000
  23613362.377     8681359.31249   6760958.24946  23613362.539    23613385.243
       219.000         166.000
  20149638.135       39492.02549     37046.65548  20149637.766    20149650.895
       245.000         214.000
  22021098.229   -10335636.93049  -7716063.09846  22021096.772    22021115.370
       229.000         181.000
 00  3 11 22 19  0.0000000  0  7G30G 4G 5G 6G 9G24G10
  22037057.661   -10765148.33749  -8367218.10046  22037056.883    22037073.708
       233.000         186.000
  22766890.012     9038871.31449   6991100.42246  22766890.410    22766907.842
       223.000         170.000
  20260534.117    -6211738.74649  -4580330.83548  20260533.365    20260546.044
       247.000         217.000
  23870467.438    -5032199.33449  -3391630.97145  23870466.440    23870489.410
       212.000         151.000
  23630469.012     8771254.04449   6831005.78046  23630469.716    23630492.417
       218.000         166.000
  20156508.718       75597.32449     65180.64848  20156508.320    20156521.485
       245.000         214.000
  22004759.221   -10421498.07949  -7782967.63746  22004757.573    22004776.700
       229.000         181.000
 00  3 11 22 19 30.0000000  0  7G30G 4G 5G 6G 9G24G10
  22021514.067   -10846829.63349  -8430865.68346  22021513.603    22021529.470
       232.000         186.000
  22784693.558     9132429.13949   7064002.47146  22784693.195    22784709.807
       223.000         169.000
  20257614.544    -6227081.11149  -4592285.89548  20257613.806    20257626.378
       247.000         217.000
  23857287.883    -5101457.21749  -3445597.88045  23857286.424    23857309.995
       213.000         151.000
  23647592.676     8861238.30249   6901123.06846  23647592.662    23647615.047
       218.000         166.000
  20163451.228      112080.40549     93609.00948  20163450.793    20163464.147
       245.000         214.000
  21988479.525   -10507047.36949  -7849629.16246  21988477.884    21988496.617
       229.000         181.000
 00  3 11 22 20  0.0000000  0  7G30G 4G 5G 6G 9G24G10
  22006029.127   -10928202.57349  -8494272.98246  22006028.633    22006044.373
       233.000         186.000
  22802520.325     9226109.11049   7136999.69246  22802519.784    22802538.058
       223.000         169.000
  20254789.058    -6241929.01949  -4603855.66248  20254788.322    20254800.859
       247.000         217.000
  23844113.054    -5170690.38849  -3499545.52245  23844111.805    23844134.454
       213.000         152.000
  23664731.947     8951305.12149   6971304.68646  23664732.906    23664755.762
       218.000         165.000
  20170466.674      148946.71749    122335.99148  20170466.417    20170479.527
       245.000         214.000
  21972261.912   -10592270.28249  -7916036.37546  21972260.521    21972279.027
       229.000         181.000
 00  3 11 22 20 30.0000000  0  7G30G 4G 5G 6G 9G24G10
  21990608.491   -11009237.86949  -8557417.18946  21990608.119    21990623.943
       232.000         186.000
  22820368.059     9319898.92649   7210082.50646  22820368.588    22820386.334
       223.000         168.000
  20252056.239    -6256290.02949  -4615046.03148  20252055.504    20252068.111
       247.000         217.000
  23830938.996    -5239919.35249  -3553489.89045  23830937.965    23830961.224
       213.000         153.000
  23681888.395     9041461.59749   7041556.17646  23681889.219    23681911.985
       218.000         164.000
  20177556.513      186203.92349    151367.55948  20177556.238    20177569.574
       245.000         214.000
  21956103.728   -10677180.80849  -7982200.17346  21956102.097    21956120.983
       229.000         181.000
 00  3 11 22 21  0.0000000  0  7G30G 4G 5G 6G 9G24G10
  21975254.706   -11089921.73649  -8620287.55346  21975254.068    21975269.921
       233.000         186.000
  22838235.615     9413792.78749   7283246.39646  22838235.289    22838253.935
       223.000         168.000
  20249418.113    -6270153.41549  -4625848.63648  20249417.300    20249429.937
       247.000         217.000
  23817767.528    -5309134.67349  -3607423.62445  23817766.224    23817789.620
       212.000         154.000
  23699062.158     9131708.69849   7111878.27646  23699062.440    23699085.615
       219.000         165.000
  20184718.807      223842.11749    180696.00448  20184718.430    20184731.904
       245.000         214.000
  21940001.181   -10761799.23949  -8048136.36546  21939999.674    21940018.350
       230.000         181.000
 00  3 11 22 21 30.0000000  0  7G30G 4G 5G 6G 9G24G10
  21959963.786   -11170275.26249  -8682900.52246  21959963.124    21959979.148
       233.000         187.000
  22856122.171     9507786.45949   7356488.06246  22856122.825    22856140.352
       223.000         168.000
  20246877.063    -6283506.57549  -4636253.67048  20246876.229    20246888.960
       247.000         217.000
  23804597.909    -5378340.13249  -3661349.68245  23804597.180    23804619.508
       214.000         155.000
  23716253.554     9222048.46449   7182272.57146  23716253.979    23716276.105
       218.000         164.000
  20191953.108      261858.61449    210319.22148  20191952.722    20191966.183
       245.000         214.000
  21923956.165   -10846115.57049  -8113837.15646  21923954.392    21923972.795
       229.000         182.000
 00  3 11 22 22  0.0000000  0  7G30G 4G 5G 6G 9G24G10
  21944734.405   -11250305.51049  -8745261.58446  21944733.847    21944750.192
       234.000         187.000
  22874028.272     9601883.23249   7429810.05446  22874028.649    22874046.808
       223.000         169.000
  20244433.293    -6296348.54849  -4646260.37048  20244432.531    20244445.156
       247.000         217.000
  23791429.039    -5447541.99949  -3715272.94845  23791428.137    23791451.298
       215.000         156.000
  23733461.968     9312478.13449   7252736.94146  23733462.096    23733485.481
       218.000         164.000
  20199258.703      300249.52349    240234.19048  20199258.304    20199271.577
       244.000         213.000
  21907970.735   -10930118.58149  -8179293.80846  21907969.099    21907987.250
       229.000         182.000
 00  3 11 22 22 30.0000000  0  7G30G 4G 5G 6G 9G24G10
  21929565.858   -11330016.20549  -8807373.65046  21929565.668    21929580.978
       234.000         187.000
  22891956.249     9696094.81649   7503221.52046  22891956.388    22891973.344
       223.000         169.000
  20242088.500    -6308670.42249  -4655861.79848  20242087.524    20242100.247
       247.000         217.000
  23778264.834    -5516719.64649  -3769177.32945  23778263.771    23778286.479
       217.000         157.000
  23750685.309     9402986.08449   7323262.29146  23750686.132    23750708.722
       220.000         164.000
  20206633.372      339003.68349    270432.20948  20206633.109    20206646.122
       245.000         213.000
  21892044.740   -11013809.45149  -8244507.22546  21892043.494    21892061.546
       230.000         183.000
 00  3 11 22 23  0.0000000  0  7G30G 4G 5G 6G 9G24G10
  21914453.514   -11409431.42349  -8869255.47547  21914453.280    21914468.409
       234.000         188.000
  22909908.212     9790432.24549   7576731.03846  22909908.350    22909925.321
       223.000         169.000
  20239842.770    -6320471.48349  -4665057.39848  20239841.929    20239854.471
       246.000         217.000
  23765111.235    -5585841.50249  -3823038.24445  23765109.957    23765132.544
       216.000         158.000
  23767919.047     9493548.69349   7393830.23545  23767919.612    23767943.560
       218.000         162.000
  20214076.564      378117.80849    300910.72248  20214076.266    20214089.552
       245.000         213.000
  21876181.082   -11097172.67549  -8309465.35146  21876179.406    21876197.959
       230.000         183.000
 00  3 11 22 23 30.0000000  0  7G30G 4G 5G 6G 9G24G10
  21899395.467   -11488561.19949  -8930914.87447  21899395.454    21899410.367
       234.000         188.000
  22927885.570     9884903.28049   7650344.67346  22927886.125    22927903.868
       224.000         169.000
  20237694.219    -6331762.00149  -4673855.17248  20237693.376    20237706.032
       247.000         217.000
  23751969.093    -5654903.19649  -3876852.27445  23751968.854    23751990.433
       215.000         158.000
  23785160.670     9584152.94649   7464430.62545  23785161.725    23785184.294
       218.000         162.000
  20221590.131      417601.76649    331677.41248  20221589.965    20221602.962
       245.000         213.000
  21860382.549   -11180193.50249  -8374156.67246  21860381.033    21860399.087
       230.000         184.000
 00  3 11 22 24  0.0000000  0  7G30G 4G 5G 6G 9G24G10
  21884395.037   -11567388.40949  -8992338.51847  21884394.619    21884410.166
       234.000         188.000
  22945888.884     9979510.71349   7724064.58646  22945889.022    22945906.775
       224.000         169.000
  20235641.518    -6342548.92449  -4682260.53648  20235640.727    20235653.440
       246.000         217.000
  23738840.179    -5723894.69249  -3930611.59945  23738838.814    23738861.216
       215.000         158.000
  23802406.515     9674778.92049   7535047.93045  23802406.957    23802430.791
       218.000         162.000
  20229174.374      457457.20149    362733.56748  20229173.994    20229187.382
       244.000         213.000
  21844648.835   -11262873.84449  -8438582.67146  21844647.295    21844665.247
       230.000         184.000
 00  3 11 22 24 30.0000000  0  7G30G 4G 5G 6G 9G24G10
  21869453.451   -11645906.48649  -9053521.27547  21869452.933    21869468.695
       235.000         189.000
  22963915.322    10074239.62049   7797879.14546  22963915.572    22963933.287
       223.000         169.000
  20233684.613    -6352832.44249  -4690273.63848  20233683.892    20233696.666
       247.000         217.000
  23725723.536    -5792821.75049  -3984320.70545  23725722.294    23725744.774
       216.000         160.000
  23819655.881     9765422.83949   7605679.21645  23819655.666    23819680.871
       216.000         161.000
  20236830.265      497689.10649    394083.07248  20236830.154    20236843.319
       245.000         213.000
  21828980.414   -11345210.94749  -8502741.20946  21828979.032    21828996.980
       230.000         184.000
 00  3 11 22 25  0.0000000  0  7G30G 4G 5G 6G 9G24G10
  21854572.696   -11724104.61649  -9114454.73647  21854572.194    21854587.362
       235.000         189.000
  22981962.817    10169078.92449   7871779.73446  22981963.228    22981980.797
       223.000         168.000
  20231823.529    -6362612.46249  -4697894.40748  20231822.990    20231835.434
       247.000         217.000
  23712614.458    -5861709.88749  -4037999.50145  23712613.929    23712635.965
       217.000         161.000
  23836910.589     9856095.70449   7676333.05145  23836910.730    23836934.642
       217.000         160.000
  20244557.480      538295.68949    425724.52648  20244557.215    20244570.546
       245.000         213.000
  21813378.797   -11427197.08749  -8566626.27946  21813377.203    21813395.309
       230.000         184.000
 00  3 11 22 25 30.0000000  0  7G30G 4G 5G 6G 9G24G10
  21839754.904   -11801971.98749  -9175130.44847  21839754.593    21839769.859
       234.000         190.000
  23000029.747    10264020.15449   7945759.74546  23000029.561    23000048.424
       223.000         168.000
  20230059.835    -6371880.86449  -4705116.51248  20230059.102    20230071.678
       247.000         217.000
  23699506.968    -5930589.60649  -4091671.71745  23699505.744    23699527.992
       219.000         161.000
  23854171.933     9946803.07549   7747013.78545  23854172.210    23854196.790
       215.000         159.000
  20252355.606      579274.81749    457656.27748  20252355.176    20252368.468
       244.000         213.000
  21797843.038   -11508837.05149  -8630241.58246  21797841.538    21797859.359
       230.000         184.000
 00  3 11 22 26  0.0000000  0  7G30G 4G 5G 6G 9G24G10
  21824999.468   -11879511.56649  -9235550.73947  21824998.688    21825014.268
       235.000         190.000
  23018113.165    10359048.63949   8019807.74446  23018113.432    23018132.072
       222.000         168.000
  20228395.969    -6380624.40549  -4711929.63848  20228395.133    20228407.766
       247.000         217.000
  23686399.870    -5999466.43149  -4145341.70045  23686398.458    23686421.187
       217.000         162.000
  23871441.936    10037557.28249   7817731.00645  23871442.234    23871466.717
       215.000         157.000
  20260223.389      620620.40949    489873.59048  20260222.989    20260236.456
       244.000         213.000
  21782372.602   -11590133.79949  -8693589.45146  21782370.778    21782388.768
       231.000         185.000
 00  3 11 22 26 30.0000000  0  7G30G 4G 5G 6G 9G24G10
  21810303.790   -11956737.05849  -9295726.28447  21810303.461    21810318.808
       235.000         190.000
  23036212.599    10454161.00349   8093921.09746  23036212.472    23036231.886
       224.000         168.000
  20226833.615    -6388834.48349  -4718327.08948  20226832.795    20226845.522
       247.000         217.000
  23673290.975    -6068352.29049  -4199018.70945  23673290.452    23673312.715
       218.000         162.000
  23888725.438    10128381.61449   7888502.88045  23888725.539    23888749.802
       217.000         156.000
  20268160.072      662327.61949    522372.68048  20268159.575    20268173.035
       245.000         213.000
  21766967.911   -11671085.16549  -8756668.18646  21766966.393    21766984.134
       231.000         185.000
 00  3 11 22 27  0.0000000  0  7G30G 4G 5G 6G 9G24G10
  21795667.694   -12033649.29249  -9355657.72647  21795667.234    21795682.745
       235.000         190.000
  23054328.607    10549360.86249   8168102.63446  23054329.050    23054346.586
       223.000         168.000
  20225373.819    -6396505.70849  -4724304.65648  20225373.046    20225385.565
       247.000         217.000
  23660180.050    -6137249.76949  -4252704.78546  23660179.179    23660200.367
       218.000         163.000
  23906023.066    10219279.97649   7959332.42745  23906023.564    23906048.508
       215.000         155.000
  20276164.883      704393.21749    555151.03848  20276164.513    20276177.983
       244.000         213.000
  21751627.109   -11751700.51449  -8819485.07646  21751625.323    21751643.424
       231.000         186.000
 00  3 11 22 27 30.0000000  0  7G30G 4G 5G 6G 9G24G10
  21781091.163   -12110248.76449  -9415345.44847  21781090.695    21781106.158
       235.000         191.000
  23072460.744    10644645.40649   8242350.15946  23072460.948    23072478.455
       223.000         168.000
  20224015.952    -6403641.24249  -4729864.80048  20224015.196    20224027.826
       247.000         217.000
  23647067.717    -6206155.19749  -4306397.04246  23647067.576    23647088.295
       220.000         164.000
  23923335.175    10310254.38349   8030221.22945  23923335.829    23923360.001
       215.000         155.000
  20284238.841      746821.93649    588212.35348  20284238.764    20284251.915
       245.000         213.000
  21736350.704   -11831977.54349  -8882038.35646  21736348.889    21736366.852
       231.000         186.000
 00  3 11 22 28  0.0000000  0  7G30G 4G 5G 6G 9G24G10
  21766576.835   -12186521.49549  -9474778.57547  21766576.423    21766591.832
       235.000         191.000
  23090606.888    10740003.28049   8316654.81546  23090607.025    23090625.346
       223.000         168.000
  20222757.747    -6410253.09749  -4735016.88748  20222756.937    20222769.453
       247.000         217.000
  23633955.236    -6275061.07849  -4360089.65846  23633954.084    23633975.901
       219.000         165.000
  23940661.944    10401305.63449   8101169.90845  23940662.244    23940686.792
       215.000         155.000
  20292382.342      789616.25249    621558.54948  20292381.816    20292395.118
       245.000         213.000
  21721140.179   -11911908.24249  -8944321.76646  21721138.439    21721156.637
       231.000         186.000
 00  3 11 22 28 30.0000000  0  7G30G 4G 5G 6G 9G24G10
  21752128.639   -12262446.65449  -9533940.86347  21752128.045    21752143.369
       235.000         191.000
  23108768.435    10835442.19749   8391022.63246  23108769.052    23108787.290
       223.000         168.000
  20221597.389    -6416350.88249  -4739768.39748  20221596.680    20221609.308
       247.000         217.000
  23620840.801    -6343976.93249  -4413790.02746  23620839.573    23620861.565
       220.000         165.000
  23957998.869    10492410.21949   8172160.15745  23957999.752    23958024.084
       214.000         154.000
  20300596.625      832782.66249    655194.69147  20300596.340    20300609.557
       245.000         212.000
  21705996.468   -11991487.90449  -9006331.65446  21705994.872    21706012.378
       231.000         186.000
 00  3 11 22 29  0.0000000  0  7G30G 4G 5G 6G 9G24G10
  21737749.425   -12338009.18449  -9592820.57847  21737749.069    21737763.858
       236.000         192.000
  23126944.980    10930959.69649   8465451.67346  23126944.989    23126962.918
       222.000         167.000
  20220533.539    -6421941.28549  -4744124.54448  20220532.597    20220545.153
       247.000         217.000
  23607726.026    -6412894.19849  -4467491.50046  23607724.432    23607746.052
       220.000         165.000
  23975342.047    10583548.26449   8243176.47145  23975342.176    23975366.314
       214.000         153.000
  20308882.295      876323.95549    689122.94947  20308881.974    20308895.302
       245.000         212.000
  21690919.668   -12070716.41049  -9068067.90846  21690917.740    21690936.003
       231.000         187.000
 00  3 11 22 29 30.0000000  0  7G30G 4G 5G 6G 9G24G10
  21723437.908   -12413216.07449  -9651423.18047  21723437.337    21723452.504
       236.000         192.000
  23145135.431    11026550.31449   8539937.69046  23145135.736    23145155.103
       222.000         167.000
  20219566.565    -6427022.47349  -4748083.89748  20219565.946    20219578.439
       247.000         217.000
  23594615.630    -6481788.76549  -4521175.29946  23594614.808    23594635.838
       219.000         165.000
  23992686.325    10674691.84449   8314197.10945  23992686.639    23992710.924
       214.000         152.000
  20317239.195      920239.58549    723342.89947  20317238.868    20317252.070
       245.000         212.000
  21675911.190   -12149585.40849  -9129524.03246  21675909.320    21675927.071
       231.000         187.000
 00  3 11 22 30  0.0000000  0  7G30G 4G 5G 6G 9G24G10
  21709193.941   -12488067.77949  -9709749.01547  21709193.868    21709208.789
       235.000         192.000
  23163340.036    11122215.46949   8614481.78846  23163340.153    23163358.677
       222.000         167.000
  20218697.341    -6431590.43149  -4751643.32848  20218696.698    20218709.202
       247.000         217.000
  23581513.239    -6550640.72749  -4574825.88046  23581512.109    23581533.176
       219.000         164.000
  24010028.141    10765822.85149   8385207.94045  24010028.973    24010053.760
       215.000         151.000
  20325666.246      964524.02749    757850.22947  20325666.064    20325679.265
       244.000         212.000
  21660971.422   -12228093.28449  -9190698.77246  21660969.403    21660987.231
       230.000         187.000
 00  3 11 22 30 30.0000000  0  7G30G 4G 5G 6G 9G24G10
  21695014.577   -12562580.19249  -9767810.46247  21695014.284    21695029.441
       237.000         193.000
  23181562.821    11217976.00749   8689100.20446  23181563.128    23181581.421
       222.000         166.000
  20217927.079    -6435638.29049  -4754797.48448  20217926.291    20217938.763
       247.000         217.000
  23568420.552    -6619441.88749  -4628436.89246  23568419.663    23568441.113
       218.000         164.000
  24027368.390    10856944.32949   8456211.36045  24027369.508    24027393.705
       214.000         151.000
  20334161.127     1009164.77149    792635.20347  20334160.803    20334174.128
       245.000         212.000
  21646102.228   -12306230.36449  -9251584.58246  21646100.626    21646118.891
       231.000         187.000
 00  3 11 22 31  0.0000000  0  7G30G 4G 5G 6G 9G24G10
  21680898.646   -12636759.27249  -9825612.18247  21680898.256    21680913.498
       237.000         193.000
  23199800.766    11313816.17049   8763780.67046  23199800.732    23199819.507
       221.000         166.000
  20217255.126    -6439169.31049  -4757548.90948  20217254.366    20217266.876
       247.000         217.000
  23555342.924    -6688164.00949  -4681986.30746  23555341.546    23555362.930
       219.000         164.000
  24044708.370    10948065.80349   8527214.77645  24044708.904    24044733.284
       214.000         151.000
  20342721.974     1054152.19049    827690.30147  20342721.677    20342734.962
       245.000         212.000
  21631305.708   -12383985.81349  -9312173.02047  21631304.250    21631321.654
       232.000         188.000
 00  3 11 22 31 30.0000000  0  7G30G 4G 5G 6G 9G24G10
  21666846.149   -12710604.90349  -9883154.07347  21666845.845    21666861.116
       236.000         193.000
  23218053.566    11409734.88449   8838522.34146  23218054.046    23218071.525
       220.000         165.000
  20216681.752    -6442182.13549  -4759896.54048  20216680.923    20216693.496
       247.000         217.000
  23542279.514    -6756811.57749  -4735477.62646  23542278.660    23542298.444
       219.000         164.000
  24062048.987    11039190.03249   8598220.32545  24062049.560    24062074.877
       216.000         153.000
  20351347.899     1099481.57049    863011.86747  20351347.635    20351360.850
       245.000         212.000
  21616584.199   -12461347.03549  -9372454.26847  21616582.521    21616600.306
       232.000         188.000
 00  3 11 22 32  0.0000000  0  7G30G 4G 5G 6G 9G24G10
  21652860.566   -12784099.04249  -9940422.07547  21652859.987    21652875.255
       237.000         194.000
  23236321.828    11505735.31549   8913327.68946  23236322.109    23236340.984
       219.000         164.000
  20216205.867    -6444682.81549  -4761845.10448  20216205.182    20216217.570
       247.000         217.000
  23529225.731    -6825408.78249  -4788929.69846  23529224.737    23529245.334
       219.000         164.000
  24079393.646    11130335.64149   8669242.54345  24079395.102    24079420.123
       216.000         153.000
  20360038.081     1145148.58249    898596.51847  20360037.779    20360051.207
       245.000         212.000
  21601938.521   -12538309.50749  -9432424.81147  21601936.970    21601954.411
       232.000         188.000
 00  3 11 22 32 30.0000000  0  7G30G 4G 5G 6G 9G24G10
  21638944.055   -12857230.14449  -9997407.19047  21638943.831    21638958.754
       237.000         194.000
  23254602.917    11601802.73249   8988185.23946  23254603.213    23254622.252
       218.000         163.000
  20215829.471    -6446660.74849  -4763386.33148  20215828.733    20215841.213
       247.000         217.000
  23516179.030    -6893968.27249  -4842352.39046  23516178.159    23516199.361
       218.000         163.000
  24096741.567    11221498.03449   8740277.82645  24096741.813    24096767.938
       215.000         154.000
  20368791.200     1191146.49849    934439.01547  20368790.939    20368804.456
       245.000         212.000
  21587367.854   -12614877.93249  -9492088.30547  21587366.487    21587383.220
       232.000         188.000
 00  3 11 22 33  0.0000000  0  7G30G 4G 5G 6G 9G24G10
  21625100.513   -12929977.89749 -10054093.58547  21625100.225    21625114.754
       237.000         194.000
  23272892.083    11697912.34349   9063075.64345  23272892.442    23272910.637
       217.000         162.000
  20215554.633    -6448104.84049  -4764511.57948  20215553.853    20215566.292
       247.000         217.000
  23503138.006    -6962497.91949  -4895751.80646  23503136.797    23503157.715
       219.000         163.000
  24114091.280    11312670.04349   8811320.60945  24114091.192    24114117.099
       215.000         155.000
  20377606.517     1237471.26749    970536.20247  20377606.097    20377619.802
       244.000         212.000
  21572869.314   -12691067.43649  -9551456.54047  21572867.804    21572884.707
       233.000         189.000
 00  3 11 22 33 30.0000000  0  7G30G 4G 5G 6G 9G24G10
  21611331.904   -13002331.98149 -10110473.23247  21611331.716    21611346.380
       237.000         195.000
  23291191.393    11794075.35049   9138007.67145  23291191.983    23291211.224
       218.000         161.000
  20215383.832    -6449002.36849  -4765210.94548  20215383.121    20215395.452
       248.000         217.000
  23490096.977    -7031027.73649  -4949151.37846  23490096.215    23490117.405
       219.000         163.000
  24131443.338    11403854.64549   8882373.19245  24131443.899    24131469.837
       217.000         157.000
  20386482.304     1284113.78049   1006880.97847  20386482.112    20386495.420
       245.000         212.000
  21558441.349   -12766886.19249  -9610535.88447  21558439.573    21558457.003
       233.000         189.000
 00  3 11 22 34  0.0000000  0  7G30G 4G 5G 6G 9G24G10
  21597639.811   -13074283.98949 -10166539.57547  21597639.535    21597654.058
       238.000         195.000
  23309499.952    11890286.60049   9212977.29345  23309500.579    23309518.500
       218.000         160.000
  20215317.314    -6449351.82149  -4765483.23548  20215316.478    20215329.067
       247.000         217.000
  23477056.303    -7099555.81049  -5002549.59146  23477055.663    23477075.186
       218.000         163.000
  24148797.012    11495047.73949   8953432.39345  24148798.075    24148823.109
       219.000         158.000
  20395417.210     1331067.02249   1043467.88547  20395416.917    20395430.292
       244.000         212.000
  21544084.239   -12842332.40549  -9669324.93347  21544082.902    21544100.119
       233.000         190.000
 00  3 11 22 34 30.0000000  0  7G30G 4G 5G 6G 9G24G10
  21584022.234   -13145844.16249 -10222300.59247  21584022.062    21584036.797
       238.000         195.000
  23327817.123    11986543.39749   9287982.40745  23327817.508    23327836.709
       216.000         159.000
  20215356.426    -6449146.13949  -4765322.95348  20215355.720    20215368.280
       247.000         217.000
  23464018.221    -7168070.13949  -5055937.07846  23464017.449    23464038.279
       219.000         163.000
  24166151.667    11586244.97249   9024494.83345  24166152.191    24166177.149
       219.000         159.000
  20404409.881     1378323.50449   1080291.08247  20404409.671    20404423.028
       245.000         212.000
  21529799.182   -12917399.99949  -9727818.95047  21529797.791    21529814.631
       234.000         191.000
 00  3 11 22 35  0.0000000  0  7G30G 4G 5G 6G 9G24G10
  21870270.209   -11641600.15749  -9050162.25647  21870269.717    21870284.639
       238.000         195.000
  23645937.063    13658274.52649  10590629.85245  23645937.268    23645956.666
       217.000         158.000
  20515291.306    -4872977.54049  -3537139.62448  20515290.670    20515303.111
       247.000         217.000
  23750776.447    -5661144.10349  -3881708.71146  23750775.320    23750796.267
       220.000         163.000
  24483301.326    13252875.76449  10323167.83945  24483302.123    24483326.896
       218.000         159.000
  20713253.680     3001308.52049   2344954.69147  20713253.403    20713266.874
       245.000         212.000
  21815382.497   -11416648.87549  -8558402.28047  21815381.076    21815398.052
       234.000         191.000
 00  3 11 22 35 30.0000000  0  7G30G 4G 5G 6G 9G24G10
  21856793.833   -11712418.36749  -9105345.13947  21856793.717    21856808.279
       238.000         195.000
  23664277.010    13754650.41649  10665727.77245  23664276.832    23664296.283
       218.000         158.000
  20515534.796    -4871698.06549  -3536142.63048  20515534.071    20515546.431
       247.000         217.000
  23737745.419    -5729621.32349  -3935067.30146  23737744.212    23737765.262
       219.000         163.000
  24500658.580    13344086.73949  10394240.98945  24500659.416    24500684.194
       217.000         158.000
  20722366.097     3049194.44749   2382268.36547  20722365.835    20722379.336
       245.000         211.000
  21801252.783   -11490900.30149  -8616260.31847  21801251.468    21801268.378
       234.000         191.000
 00  3 11 22 36  0.0000000  0  7G30G 4G 5G 6G 9G24G10
  21843384.566   -11782884.07649  -9160253.34947  21843383.970    21843398.749
       238.000         195.000
  23682627.391    13851081.29049  10740868.52845  23682627.908    23682646.270
       217.000         158.000
  20515880.072    -4869883.62449  -3534728.78148  20515879.342    20515891.878
       247.000         217.000
  23724720.682    -5798065.83049  -3988400.38746  23724720.178    23724740.120
       218.000         163.000
  24518012.871    13435282.94949  10465302.61745  24518013.173    24518038.808
       214.000         157.000
  20731539.445     3097400.41549   2419831.42047  20731539.214    20731552.545
       244.000         211.000
  21787204.963   -11564721.07749  -8673782.78947  21787203.493    21787220.196
       234.000         191.000
 00  3 11 22 36 30.0000000  0  7G30G 4G 5G 6G 9G24G10
  21830042.271   -11852997.89549  -9214887.36147  21830042.066    21830056.213
       239.000         196.000
  23700988.363    13947567.88449  10816052.69345  23700988.637    23701007.924
       217.000         157.000
  20516327.745    -4867530.93149  -3532895.51548  20516326.932    20516339.635
       247.000         217.000
  23711700.089    -5866488.45949  -4041716.43046  23711699.232    23711719.218
       218.000         163.000
  24535366.316    13526474.69449  10536360.76545  24535367.049    24535392.492
       215.000         156.000
  20740773.135     3145923.70549   2457641.74647  20740772.972    20740786.254
       245.000         211.000
  21773238.989   -11638111.83749  -8730970.17647  21773237.391    21773254.283
       235.000         191.000
 00  3 11 22 37  0.0000000  0  7G30G 4G 5G 6G 9G24G10
  21816768.744   -11922750.22249  -9269239.69447  21816768.426    21816782.832
       239.000         196.000
  23719360.775    14044114.67749  10891283.75845  23719360.698    23719379.447
       216.000         156.000
  20516876.264    -4864648.54449  -3530649.50048  20516875.703    20516888.116
       247.000         217.000
  23698680.688    -5934904.37549  -4095027.24945  23698679.755    23698699.671
       218.000         162.000
  24552718.508    13617659.72849  10607413.67545  24552718.737    24552744.738
       211.000         156.000
  20750069.158     3194774.21749   2495707.04647  20750068.906    20750082.285
       245.000         211.000
  21759355.289   -11711070.37349  -8787820.76347  21759353.673    21759370.503
       235.000         192.000
 00  3 11 22 37 30.0000000  0  7G30G 4G 5G 6G 9G24G10
  21803567.466   -11992122.84149  -9323296.15047  21803567.484    21803581.422
       239.000         196.000
  23737744.495    14140721.16549  10966561.36945  23737745.741    23737764.345
       216.000         156.000
  20517525.690    -4861235.86249  -3527990.26948  20517524.933    20517537.456
       247.000         217.000
  23685661.475    -6003319.57749  -4148337.52346  23685660.578    23685681.130
       219.000         163.000
  24570066.281    13708822.12949  10678448.95345  24570067.007    24570092.855
       210.000         154.000
  20759427.116     3243950.59149   2534026.26347  20759426.778    20759440.101
       244.000         211.000
  21745552.328   -11783604.46549  -8844340.62547  21745551.048    21745567.579
       235.000         192.000
 00  3 11 22 38  0.0000000  0  7G30G 4G 5G 6G 9G24G10
  21790443.955   -12061086.83249  -9377034.19347  21790443.860    21790458.148
       239.000         197.000
  23756140.493    14237391.92949  11041889.04545  23756140.586    23756159.884
       215.000         156.000
  20518275.388    -4857296.17249  -3524920.38348  20518274.744    20518287.311
       247.000         217.000
  23672642.453    -6071733.52749  -4201646.80146  23672641.341    23672661.993
       219.000         163.000
  24587412.710    13799977.43749  10749478.68045  24587413.028    24587439.980
       208.000         152.000
  20768845.638     3293445.16049   2572593.42547  20768845.328    20768858.810
       244.000         211.000
  21731826.259   -11855734.82949  -8900545.88047  21731824.811    21731841.269
       235.000         192.000
 00  3 11 22 38 30.0000000  0  7G30G 4G 5G 6G 9G24G10
  21777398.373   -12129641.30249  -9430453.13247  21777398.301    21777412.480
       240.000         197.000
  23774549.366    14334130.59149  11117269.63545  23774549.522    23774568.159
       217.000         156.000
  20519123.623    -4852838.62049  -3521446.96848  20519122.887    20519135.368
       247.000         217.000
  23659625.295    -6140138.33649  -4254948.97146  23659624.233    23659643.418
       220.000         163.000
  24604756.951    13891120.95549  10820499.21845  24604757.131    24604783.825
       205.000         150.000
  20778326.752     3343268.65949   2611416.89647  20778326.324    20778339.692
       244.000         211.000
  21718176.963   -11927461.34349  -8956436.45547  21718175.470    21718192.072
       235.000         192.000
 00  3 11 22 39  0.0000000  0  7G30G 4G 5G 6G 9G24G10
  21764430.584   -12197787.06949  -9483553.59047  21764430.238    21764444.643
       239.000         197.000
  23792969.890    14430930.04749  11192697.58645  23792971.049    23792989.611
       218.000         156.000
  20520070.260    -4847864.11749  -3517570.73248  20520069.541    20520081.929
       247.000         217.000
  23646612.979    -6208517.60849  -4308231.25246  23646611.921    23646631.663
       219.000         163.000
  24622093.616    13982224.81449  10891488.83445  24622094.009    24622120.817
       207.000         150.000
  20787872.069     3393429.75049   2650503.43047  20787871.776    20787885.400
       244.000         210.000
  21704603.207   -11998790.98049  -9012017.78147  21704601.557    21704617.998
       235.000         192.000
 00  3 11 22 39 30.0000000  0  7G30G 4G 5G 6G 9G24G10
  21751541.106   -12265521.36049  -9536333.41347  21751540.932    21751554.967
       239.000         198.000
  23811399.390    14527777.11749  11268162.65945  23811399.591    23811419.084
       216.000         157.000
  20521117.051    -4842363.25049  -3513284.33948  20521116.327    20521128.691
       247.000         217.000
  23633610.157    -6276846.94449  -4361474.62146  23633608.963    23633628.425
       219.000         163.000
  24639421.605    14073282.14349  10962442.21645  24639421.833    24639448.126
       206.000         150.000
  20797478.247     3443910.50049   2689839.05447  20797477.936    20797491.374
       244.000         210.000
  21691105.658   -12069720.17549  -9067287.07547  21691104.181    21691120.159
       235.000         192.000
 00  3 11 22 40  0.0000000  0  7G30G 4G 5G 6G 9G24G10
  21738726.548   -12332861.68149  -9588806.24147  21738725.973    21738740.484
       239.000         198.000
  23829835.798    14624660.50449  11343656.01945  23829836.408    23829855.373
       216.000         157.000
  20522266.401    -4836323.25849  -3508577.85348  20522265.821    20522278.220
       247.000         217.000
  23620617.360    -6345123.34049  -4414676.73546  23620616.048    23620635.806
       220.000         163.000
  24656742.652    14164303.03049  11033367.19245  24656742.972    24656770.765
       208.000         150.000
  20807142.679     3494697.45349   2729413.27447  20807142.495    20807155.855
       244.000         210.000
  21677686.766   -12140236.24849  -9122234.46247  21677685.411    21677701.377
       235.000         193.000
 00  3 11 22 40 30.0000000  0  7G30G 4G 5G 6G 9G24G10
  21725984.251   -12399821.94949  -9640982.93147  21725983.684    21725998.079
       239.000         198.000
  23848277.316    14721570.31249  11419169.97545  23848278.350    23848296.910
       216.000         157.000
  20523520.948    -4829730.74949  -3503440.83548  20523520.303    20523532.866
       247.000         217.000
  23607635.262    -6413343.70049  -4467835.19546  23607634.675    23607653.488
       221.000         163.000
  24674055.503    14255280.40449  11104258.27345  24674055.986    24674081.484
       208.000         149.000
  20816864.630     3545786.42049   2769222.82947  20816864.375    20816877.802
       244.000         210.000
  21664348.211   -12210329.96249  -9176852.74247  21664346.745    21664363.062
       235.000         193.000
 00  3 11 22 41  0.0000000  0  7G30G 4G 5G 6G 9G24G10
  21713316.169   -12466392.28749  -9692855.77247  21713315.864    21713329.929
       240.000         198.000
  23866722.801    14818501.35149  11494700.47245  23866723.381    23866743.153
       217.000         157.000
  20524881.576    -4822580.43049  -3497869.15748  20524880.881    20524893.367
       247.000         217.000
  23594662.166    -6481516.91849  -4520956.91446  23594661.576    23594680.559
       219.000         163.000
  24691361.152    14346220.99749  11175120.67945  24691361.236    24691388.000
       206.000         147.000
  20826641.062     3597162.00749   2809255.73247  20826640.637    20826654.323
       244.000         210.000
  21651090.524   -12279998.41449  -9231139.64747  21651088.993    21651105.855
       235.000         193.000
 00  3 11 22 41 30.0000000  0  7G30G 4G 5G 6G 9G24G10
  21700722.796   -12532570.27949  -9744422.90047  21700722.752    21700736.608
       240.000         199.000
  23885173.742    14915461.08949  11570253.32545  23885174.528    23885194.016
       217.000         157.000
  20526348.839    -4814869.88449  -3491860.94248  20526348.035    20526360.623
       247.000         217.000
  23581695.067    -6549658.25849  -4574053.80446  23581694.143    23581713.680
       217.000         163.000
  24708661.965    14437136.50749  11245963.55645  24708662.049    24708689.173
       205.000         145.000
  20836469.132     3648808.90249   2849500.04547  20836468.913    20836482.492
       243.000         210.000
  21637917.427   -12349222.68349  -9285080.43647  21637915.992    21637932.420
       235.000         193.000
 00  3 11 22 42  0.0000000  0  7G30G 4G 5G 6G 9G24G10
  21688204.731   -12598352.73149  -9795681.82047  21688204.618    21688218.801
       240.000         199.000
  23903630.117    15012449.31849  11645828.37745  23903630.531    23903649.546
       217.000         157.000
  20527922.257    -4806601.51749  -3485418.06648  20527921.765    20527934.092
       247.000         217.000
  23568729.776    -6617790.16049  -4627143.33446  23568728.209    23568748.579
       220.000         164.000
  24725958.317    14528028.11549  11316787.78445  24725958.245    24725985.387
       204.000         144.000
  20846350.910     3700737.87249   2889964.14947  20846350.492    20846363.855
       244.000         209.000
  21624829.037   -12418001.85949  -9338674.40547  21624827.593    21624843.909
       236.000         194.000
 00  3 11 22 42 30.0000000  0  7G30G 4G 5G 6G 9G24G10
  21675764.642   -12663725.11149  -9846621.20147  21675764.341    21675778.634
       240.000         199.000
  23922092.570    15109468.95749  11721427.92045  23922092.380    23922112.032
       219.000         157.000
  20529598.928    -4797790.42549  -3478552.27848  20529598.235    20529610.615
       247.000         217.000
  23555767.396    -6685906.92249  -4680221.06746  23555766.622    23555785.761
       221.000         165.000
  24743246.615    14618877.62349  11387579.21645  24743246.947    24743273.929
       206.000         143.000
  20856288.170     3752958.48949   2930655.51647  20856287.952    20856301.293
       244.000         209.000
  21611825.227   -12486336.24149  -9391921.77347  21611823.766    21611839.985
       235.000         194.000
 00  3 11 22 43  0.0000000  0  7G30G 4G 5G 6G 9G24G10
  21663404.647   -12728676.86449  -9897232.83647  21663404.527    21663418.166
       240.000         199.000
  23940561.264    15206521.55749  11797053.14245  23940561.994    23940581.091
       218.000         157.000
  20531376.459    -4788449.45749  -3471273.60848  20531375.674    20531388.236
       247.000         217.000
  23542806.294    -6754016.73749  -4733293.38846  23542805.635    23542825.533
       220.000         166.000
  24760524.891    14709673.46849  11458328.84845  24760524.945    24760552.070
       207.000         144.000
  20866281.170     3805471.89549   2971575.02347  20866280.904    20866294.295
       244.000         209.000
  21598910.058   -12554205.08349  -9444806.38947  21598908.647    21598924.806
       235.000         194.000
 00  3 11 22 43 30.0000000  0  7G30G 4G 5G 6G 9G24G10
  21651123.614   -12793213.58049  -9947521.06447  21651123.559    21651137.499
       241.000         200.000
  23959034.875    15303600.22849  11872698.67545  23959036.134    23959054.251
       217.000         157.000
  20533255.009    -4778577.47149  -3463581.15548  20533254.354    20533266.836
       248.000         217.000
  23529848.236    -6822111.17149  -4786353.73446  23529847.106    23529866.988
       222.000         167.000
  24777792.137    14800412.24849  11529034.01045  24777792.481    24777821.109
       209.000         146.000
  20876331.076     3858284.32249   3012727.53147  20876330.967    20876344.463
       244.000         209.000
  21586082.915   -12621611.33349  -9497330.54347  21586081.307    21586097.972
       236.000         194.000
 00  3 11 22 44  0.0000000  0  7G30G 4G 5G 6G 9G24G10
  21638922.277   -12857331.40649  -9997482.88847  21638922.066    21638936.188
       240.000         200.000
  23977512.178    15400698.46249  11948359.44545  23977513.093    23977532.539
       217.000         156.000
  20535233.367    -4768181.10849  -3455480.09448  20535232.744    20535245.140
       247.000         217.000
  23516897.305    -6890167.71249  -4839384.55246  23516896.551    23516915.360
       221.000         167.000
  24795047.372    14891087.80649  11599689.90945  24795047.636    24795075.635
       211.000         147.000
  20886439.555     3911404.76849   3054120.05347  20886439.279    20886452.688
       244.000         209.000
  21573341.029   -12688569.70849  -9549505.69847  21573339.678    21573355.858
       235.000         194.000
 00  3 11 22 44 30.0000000  0  7G30G 4G 5G 6G 9G24G10
  21327007.917   -14496451.90149 -11274719.52147  21327008.070    21327022.121
       241.000         200.000
  23696203.624    13922412.08649  10796447.79945  23696203.320    23696223.052
       216.000         155.000
  20237519.306    -6332679.08549  -4674569.43048  20237518.597    20237531.061
       247.000         217.000
  23204162.050    -8533601.53049  -6119982.09146  23204161.273    23204180.872
       220.000         167.000
  24512497.732    13406277.73349  10442694.68245  24512498.850    24512525.814
       214.000         149.000
  20596813.026     2389406.78049   1868147.55647  20596812.813    20596826.432
       244.000         209.000
  21260891.421   -14330502.59949 -10828933.72247  21260889.982    21260906.144
       236.000         195.000
 00  3 11 22 45  0.0000000  0  7G30G 4G 5G 6G 9G24G10
  21314964.929   -14559738.02649 -11324033.26647  21314964.747    21314978.796
       241.000         201.000
  23714693.335    14019575.58449  10872159.42845  23714693.319    23714713.250
       215.000         155.000
  20239700.079    -6321219.06249  -4665639.54648  20239699.378    20239711.842
       247.000         217.000
  23191226.916    -8601574.90449  -6172948.08946  23191226.038    23191245.893
       221.000         167.000
  24529728.773    13496825.26049  10513250.84645  24529729.751    24529756.810
       214.000         148.000
  20607034.960     2443123.17149   1910004.44347  20607034.717    20607048.261
       243.000         208.000
  21248319.654   -14396567.19249 -10880412.43047  21248318.185    21248334.294
       236.000         195.000
 00  3 11 22 45 30.0000000  0  7G30G 4G 5G 6G 9G24G10
  21302999.930   -14622614.18949 -11373027.55847  21302999.760    21303013.904
       241.000         201.000
  23733189.303    14116772.03449  10947896.72445  23733189.225    23733209.767
       216.000         154.000
  20241984.885    -6309212.39049  -4656283.70448  20241984.186    20241996.627
       247.000         217.000
  23178299.506    -8669507.83549  -6225882.58646  23178298.448    23178317.193
       222.000         168.000
  24546950.571    13587324.61749  10583769.47145  24546950.400    24546977.762
       214.000         148.000
  20617311.593     2497127.10449   1952085.38147  20617311.332    20617324.715
       243.000         208.000
  21235831.175   -14462193.88749 -10931549.92647  21235829.641    21235845.773
       236.000         195.000
 00  3 11 22 46  0.0000000  0  7G30G 4G 5G 6G 9G24G10
  21291114.426   -14685072.53049 -11421696.27347  21291114.278    21291127.948
       242.000         202.000
  23751692.895    14214007.98949  11023664.82645  23751693.195    23751713.276
       215.000         154.000
  20244373.565    -6296659.79849  -4646502.46748  20244372.812    20244385.477
       247.000         217.000
  23165376.000    -8737420.48949  -6278801.28346  23165375.204    23165394.722
       221.000         168.000
  24564160.901    13677764.45049  10654241.73445  24564161.275    24564189.512
       214.000         146.000
  20627641.624     2551411.63449   1994384.96947  20627641.431    20627654.984
       244.000         208.000
  21223430.164   -14527360.86449 -10982329.20447  21223428.396    21223444.644
       236.000         195.000
 00  3 11 22 46 30.0000000  0  7G30G 4G 5G 6G 9G24G10
  21279307.072   -14747119.97949 -11470044.80947  21279306.862    21279320.856
       242.000         202.000
  23770202.265    14311274.66849  11099456.83745  23770202.651    23770221.717
       215.000         154.000
  20246867.462    -6283554.28449  -4636290.38448  20246866.786    20246879.247
       247.000         217.000
  23152453.545    -8805327.16349  -6331715.33046  23152453.280    23152471.793
       221.000         168.000
  24581360.154    13768145.83749  10724668.44945  24581360.728    24581388.717
       214.000         146.000
  20638024.313     2605972.71249   2036900.04647  20638024.143    20638037.495
       244.000         208.000
  21211118.772   -14592056.88649 -11032741.51047  21211117.209    21211133.038
       236.000         196.000
 00  3 11 22 47  0.0000000  0  7G30G 4G 5G 6G 9G24G10
  21267577.947   -14808756.71349 -11518073.29947  21267577.632    21267591.688
       242.000         202.000
  23788712.713    14408547.03949  11175253.29545  23788713.486    23788731.679
       214.000         153.000
  20249467.279    -6269892.26049  -4625644.65848  20249466.676    20249479.082
       247.000         217.000
  23139533.471    -8873221.46149  -6384619.73946  23139532.945    23139552.054
       221.000         168.000
  24598547.615    13858465.10149  10795046.74645  24598547.680    24598575.397
       211.000         144.000
  20648460.534     2660815.10449   2079634.33347  20648460.308    20648473.834
       243.000         208.000
  21198896.498   -14656284.35549 -11082788.71347  21198894.940    21198910.751
       236.000         196.000
 00  3 11 22 47 30.0000000  0  7G30G 4G 5G 6G 9G24G10
  21255930.331   -14869964.74449 -11565767.73547  21255930.036    21255944.005
       242.000         202.000
  23807222.464    14505815.82749  11251046.95345  23807223.362    23807243.320
       215.000         152.000
  20252171.454    -6255681.85749  -4614571.62248  20252170.864    20252183.338
       247.000         217.000
  23126618.417    -8941089.80849  -6437503.91346  23126617.136    23126636.421
       222.000         169.000
  24615721.014    13948710.58549  10865367.55345  24615722.790    24615748.745
       211.000         142.000
  20658949.442     2715934.37649   2122584.36647  20658949.057    20658963.190
       243.000         208.000
  21186764.471   -14720037.99049 -11132466.69247  21186763.359    21186779.182
       237.000         196.000
 00  3 11 22 48  0.0000000  0  7G30G 4G 5G 6G 9G24G10
  21244365.508   -14930737.89049 -11613123.30247  21244364.822    21244379.124
       242.000         202.000
  23825730.723    14603076.52349  11326834.32745  23825731.589    23825750.268
       215.000         152.000
  20254979.106    -6240927.50249  -4603074.73048  20254978.450    20254990.978
       248.000         217.000
  23113709.092    -9008927.51349  -6490364.21046  23113707.923    23113727.454
       221.000         169.000
  24632878.075    14038870.19349  10935621.46245  24632878.563    24632906.327
       212.000         142.000
  20669492.220     2771336.77749   2165755.01847  20669491.829    20669505.474
       244.000         207.000
  21174720.892   -14783326.89349 -11181782.55147  21174719.527    21174735.312
       238.000         197.000
 00  3 11 22 48 30.0000000  0  7G30G 4G 5G 6G 9G24G10
  21232884.843   -14991068.48349 -11660134.02847  21232884.390    21232898.490
       242.000         202.000
  23844235.805    14700320.28849  11402608.49345  23844236.608    23844257.573
       216.000         151.000
  20257890.677    -6225627.33749  -4591152.53348  20257890.095    20257902.353
       247.000         217.000
  23100809.147    -9076716.01749  -6543186.18546  23100807.854    23100826.609
       220.000         168.000
  24650019.496    14128947.09149  11005810.92745  24650020.486    24650048.035
       212.000         143.000
  20680087.933     2827017.57249   2209142.60447  20680087.693    20680101.217
       243.000         207.000
  21162763.155   -14846164.66249 -11230746.87247  21162761.885    21162777.634
       236.000         197.000
 00  3 11 22 49  0.0000000  0  7G30G 4G 5G 6G 9G24G10
  21221492.200   -15050936.90249 -11706784.62447  21221491.977    21221505.997
       242.000         203.000
  23862740.707    14797562.49949  11478381.45445  23862740.908    23862760.096
       215.000         150.000
  20260904.666    -6209788.87949  -4578810.89348  20260904.028    20260916.365
       247.000         217.000
  23087916.598    -9144465.55049  -6595977.79546  23087916.178    23087934.955
       222.000         168.000
  24667143.343    14218932.45349  11075929.06445  24667144.151    24667171.588
       212.000         144.000
  20690735.533     2882970.86149   2252742.52447  20690735.212    20690748.780
       243.000         207.000
  21150892.071   -14908547.10649 -11279356.39947  21150890.523    21150906.253
       237.000         197.000
 00  3 11 22 49 30.0000000  0  7G30G 4G 5G 6G 9G24G10
  21210189.431   -15110332.88149 -11753067.07947  21210189.172    21210203.014
       242.000         203.000
  23881248.497    14894820.74049  11554166.90245  23881248.116    23881268.728
       214.000         150.000
  20264019.853    -6193418.50849  -4566054.76748  20264019.171    20264031.652
       247.000         217.000
  23075029.884    -9212185.26949  -6648746.16546  23075028.820    23075047.977
       221.000         169.000
  24684251.124    14308833.43549  11145981.45245  24684251.119    24684280.101
       214.000         145.000
  20701432.546     2939183.94749   2296544.88947  20701432.287    20701446.056
       243.000         207.000
  21139109.931   -14970461.92449 -11327601.53747  21139108.380    21139123.999
       237.000         197.000
 00  3 11 22 50  0.0000000  0  7G30G 4G 5G 6G 9G24G10
  21198976.370   -15169257.29049 -11798982.08647  21198975.914    21198989.852
       242.000         203.000
  23899759.408    14992095.74749  11629965.41545  23899759.251    23899779.829
       215.000         151.000
  20267237.588    -6176509.21349  -4552878.70448  20267236.784    20267249.296
       247.000         217.000
  23062146.084    -9279889.12949  -6701502.17746  23062144.789    23062163.617
       222.000         169.000
  24701345.268    14398662.68349  11215977.96145  24701345.284    24701373.693
       210.000         145.000
  20712177.401     2995648.37249   2340543.10447  20712177.088    20712190.624
       243.000         207.000
  21127418.349   -15031901.02249 -11375475.97547  21127416.804    21127432.180
       237.000         197.000
 00  3 11 22 50 30.0000000  0  7G30G 4G 5G 6G 9G24G10
  21187852.505   -15227713.00749 -11844531.88347  21187852.145    21187866.035
       242.000         203.000
  23918272.663    15089382.50549  11705773.09945  23918272.365    23918293.089
       216.000         151.000
  20270556.945    -6159065.78649  -4539286.44248  20270556.326    20270568.839
       247.000         217.000
  23049265.456    -9347576.43049  -6754245.28946  23049264.356    23049283.521
       221.000         169.000
  24718426.308    14488423.06849  11285920.80745  24718427.129    24718455.017
       210.000         145.000
  20722969.943     3052363.63249   2384736.77347  20722969.497    20722983.141
       243.000         207.000
  21115819.687   -15092851.66849 -11422969.80447  21115818.313    21115833.491
       237.000         197.000
 00  3 11 22 51  0.0000000  0  7G30G 4G 5G 6G 9G24G10
  21176815.819   -15285710.54349 -11889724.65847  21176815.466    21176829.167
       242.000         203.000
  23936788.053    15186680.81049  11781589.77245  23936788.146    23936808.607
       216.000         151.000
  20273976.745    -6141094.84249  -4525283.12648  20273976.058    20273988.566
       247.000         217.000
  23036388.707    -9415243.15649  -6806972.38146  23036388.150    23036406.079
       222.000         170.000
  24735495.191    14578118.37149  11355812.93745  24735496.952    24735524.187
       208.000         144.000
  20733811.460     3109336.05249   2429130.82747  20733811.401    20733824.930
       243.000         206.000
  21104316.558   -15153300.41349 -11470072.53547  21104315.067    21104330.528
       237.000         198.000
 00  3 11 22 51 30.0000000  0  7G30G 4G 5G 6G 9G24G10
  21165864.709   -15343258.58849 -11934567.18847  21165864.557    21165878.321
       242.000         203.000
  23955299.498    15283958.60949  11857390.46945  23955299.701    23955320.001
       215.000         152.000
  20277498.172    -6122589.66749  -4510863.52948  20277497.361    20277509.783
       247.000         217.000
  23023519.527    -9482870.19149  -6859668.54946  23023518.540    23023537.215
       222.000         171.000
  24752552.365    14667753.76149  11425658.39145  24752554.093    24752581.689
       206.000         143.000
  20744700.244     3166556.65949   2473718.27547  20744700.103    20744713.565
       242.000         206.000
  21092909.742   -15213242.74649 -11516780.65947  21092908.114    21092923.695
       237.000         198.000
 00  3 11 22 52  0.0000000  0  7G30G 4G 5G 6G 9G24G10
  21154997.892   -15400363.75749 -11979064.61847  21154997.740    21155011.591
       242.000         203.000
  23973804.575    15381203.10249  11933165.22745  23973804.960    23973825.365
       214.000         151.000
  20281120.954    -6103551.77649  -4496028.83048  20281120.263    20281132.699
       247.000         217.000
  23010660.607    -9550443.30449  -6912322.68646  23010659.452    23010678.421
       223.000         171.000
  24769596.338    14757318.86349  11495449.05745  24769596.815    24769625.786
       203.000         142.000
  20755638.676     3224038.22649   2518509.07147  20755638.540    20755652.041
       243.000         206.000
  21081598.731   -15272681.79849 -11563096.61947  21081597.154    21081612.796
       237.000         198.000
 00  3 11 22 52 30.0000000  0  7G30G 4G 5G 6G 9G24G10
  21144214.133   -15457032.26349 -12023221.79347  21144214.025    21144227.506
       243.000         204.000
  23992304.914    15478422.44749  12008920.38045  23992305.842    23992325.499
       215.000         152.000
  20284845.155    -6083981.01649  -4480778.91048  20284844.584    20284857.042
       247.000         217.000
  22997814.315    -9617950.02349  -6964925.10446  22997813.765    22997831.840
       223.000         171.000
  24786623.715    14846797.37249  11565172.22745  24786624.967    24786653.451
       204.000         142.000
  20766628.456     3281789.65849   2563510.15147  20766628.182    20766641.736
       243.000         206.000
  21070381.721   -15331626.73949 -11609027.54947  21070379.910    21070395.606
       237.000         198.000
 00  3 11 22 53  0.0000000  0  7G30G 4G 5G 6G 9G24G10
  21133515.854   -15513251.86949 -12067029.17147  21133515.662    21133529.069
       243.000         204.000
  24010800.302    15575615.28649  12084654.89245  24010800.189    24010819.964
       215.000         152.000
  20288672.379    -6063868.86149  -4465107.12748  20288671.525    20288684.110
       247.000         217.000
  22984981.734    -9685384.95549  -7017471.57946  22984980.699    22984999.399
       223.000         172.000
  24803632.347    14936176.89249  11634818.27645  24803632.043    24803662.220
       201.000         140.000
  20777665.217     3339788.16849   2608703.76447  20777664.892    20777678.572
       242.000         206.000
  21059258.375   -15390079.58549 -11654575.03647  21059256.890    21059272.122
       238.000         198.000
 00  3 11 22 53 30.0000000  0  7G30G 4G 5G 6G 9G24G10
  21122907.030   -15569001.25549 -12110470.14747  21122907.056    21122920.695
       243.000         204.000
  24029293.596    15672797.06849  12160380.78245  24029294.206    24029314.383
       215.000         152.000
  20292602.879    -6043214.03149  -4449012.48348  20292602.134    20292614.739
       247.000         217.000
  22972159.157    -9752767.38449  -7069977.13446  22972158.426    22972176.687
       223.000         172.000
  24820619.431    15025442.84349  11704375.81745  24820620.892    24820648.441
       199.000         140.000
  20788748.478     3398031.21749   2654087.92847  20788748.309    20788761.853
       243.000         206.000
  21048227.608   -15448045.87449 -11699743.38147  21048226.326    21048241.255
       239.000         198.000
 00  3 11 22 54  0.0000000  0  7G30G 4G 5G 6G 9G24G10
  21112389.225   -15624272.14549 -12153538.26047  21112389.077    21112402.525
       243.000         204.000
  24047790.786    15769999.59749  12236122.85045  24047790.501    24047811.336
       214.000         152.000
  20296635.239    -6022023.88349  -4432500.70248  20296634.522    20296647.168
       247.000         217.000
  22959341.677    -9820122.33749  -7122461.28546  22959341.039    22959358.667
       223.000         172.000
  24837582.223    15114581.54549  11773834.20045  24837582.250    24837610.988
       201.000         139.000
  20799879.766     3456526.26849   2699668.45747  20799879.393    20799893.138
       243.000         206.000
  21037289.147   -15505527.19249 -11744533.82747  21037287.589    21037302.756
       238.000         198.000
 00  3 11 22 54 30.0000000  0  7G30G 4G 5G 6G 9G24G10
  21101965.193   -15679050.27649 -12196222.40747  21101964.994    21101978.598
       242.000         204.000
  24066292.870    15867228.61849  12311885.54645  24066293.152    24066313.350
       213.000         152.000
  20300769.910    -6000296.06649  -4415569.96148  20300769.290    20300781.756
       247.000         217.000
  22946527.195    -9887461.99549  -7174933.52346  22946526.111    22946545.206
       222.000         172.000
  24854519.848    15203588.19349  11843189.69545  24854520.374    24854550.657
       199.000         139.000
  20811056.284     3515259.20349   2745434.34747  20811055.926    20811069.606
       243.000         205.000
  21026444.706   -15562514.47949 -11788939.32147  21026443.346    21026458.243
       239.000         199.000
 00  3 11 22 55  0.0000000  0  7G30G 4G 5G 6G 9G24G10
  21091636.918   -15733325.29349 -12238514.52447  21091636.544    21091649.954
       242.000         204.000
  24084799.223    15964479.68049  12387665.41545  24084799.970    24084820.204
       213.000         152.000
  20305004.606    -5978042.76249  -4398229.74948  20305003.858    20305016.476
       247.000         217.000
  22933711.951    -9954805.36149  -7227408.64546  22933711.332    22933728.830
       224.000         172.000
  24871432.078    15292461.85349  11912441.54445  24871432.176    24871461.933
       201.000         138.000
  20822278.816     3574233.95649   2791388.66547  20822278.387    20822292.132
       243.000         205.000
  21015697.241   -15618991.97249 -11832947.57547  21015695.757    21015710.684
       239.000         199.000
 00  3 11 22 55 30.0000000  0  7G30G 4G 5G 6G 9G24G10
  21081402.157   -15787108.89349 -12280423.71747  21081401.989    21081415.490
       242.000         204.000
  24103307.129    16061738.52049  12463451.33645  24103307.657    24103327.807
       215.000         152.000
  20309337.751    -5955271.94149  -4380486.27648  20309336.999    20309349.390
       247.000         217.000
  22920892.601   -10022171.11149  -7279901.21646  22920891.847    22920909.655
       225.000         173.000
  24888318.078    15381197.35849  11981585.75245  24888318.646    24888347.895
       200.000         140.000
  20833548.562     3633456.69049   2837536.20947  20833548.335    20833562.164
       243.000         205.000
  21005045.744   -15674965.10349 -11876562.82147  21005044.280    21005059.136
       239.000         199.000
 00  3 11 22 56  0.0000000  0  7G30G 4G 5G 6G 9G24G10
  21071257.183   -15840420.65349 -12321965.23647  21071256.982    21071270.687
       242.000         205.000
  24121810.917    16158975.89749  12539220.54545  24121811.118    24121831.451
       213.000         151.000
  20313770.345    -5931978.51549  -4362335.57048  20313769.670    20313782.239
       247.000         217.000
  22908074.237   -10089531.52349  -7332389.61746  22908073.351    22908091.610
       226.000         174.000
  24905177.880    15469794.63149  12050622.24045  24905178.314    24905207.898
       202.000         142.000
  20844862.870     3692913.52949   2883866.17447  20844862.262    20844876.346
       243.000         205.000
  20994490.801   -15730430.92849 -11919782.76647  20994489.188    20994504.063
       239.000         200.000
 00  3 11 22 56 30.0000000  0  7G30G 4G 5G 6G 9G24G10
  21061199.463   -15893274.11949 -12363149.65447  21061199.275    21061212.807
       242.000         205.000
  24140308.767    16256181.62049  12614965.07245  24140308.612    24140329.086
       210.000         150.000
  20318304.897    -5908149.45349  -4343767.48448  20318304.001    20318316.815
       247.000         217.000
  22895262.150   -10156858.56849  -7384852.02646  22895260.941    22895279.333
       226.000         174.000
  24922011.980    15558257.00549  12119553.59845  24922012.560    24922041.928
       202.000         142.000
  20856219.400     3752592.49249   2930369.22047  20856219.120    20856232.776
       242.000         205.000
  20984033.044   -15785386.17549 -11962604.86747  20984031.587    20984046.514
       239.000         200.000
 00  3 11 22 57  0.0000000  0  7G30G 4G 5G 6G 9G24G10
  21051236.106   -15945631.32749 -12403947.37747  21051235.823    21051249.251
       242.000         205.000
  24158809.091    16353401.00649  12690720.24345  24158808.325    24158830.625
       210.000         149.000
  20322952.040    -5883728.56149  -4324738.23348  20322951.443    20322963.999
       247.000         217.000
  22882467.958   -10224091.47749  -7437241.07946  22882466.788    22882484.776
       226.000         174.000
  24938831.016    15646639.69649  12188422.87845  24938831.156    24938861.191
       207.000         144.000
  20867625.941     3812534.27649   2977077.05747  20867625.533    20867639.315
       243.000         204.000
  20973681.032   -15839785.55249 -12004993.82547  20973679.724    20973694.601
       239.000         200.000
 00  3 11 22 57 30.0000000  0  8G17G30G 4G 5G 6G 9G24G10
  25073925.778    -2838441.99449  -1317027.15345  25073924.683    25073955.255
       199.000         135.000
  21041357.432   -15997543.36849 -12444398.22647  21041357.092    21041370.647
       242.000         205.000
  24177302.709    16450585.05349  12766447.89545  24177302.971    24177323.143
       210.000         149.000
  20327707.339    -5858739.41349  -4305266.18848  20327706.572    20327719.186
       247.000         217.000
  22869687.641   -10291251.23049  -7489573.13046  22869686.725    22869704.258
       226.000         174.000
  24955628.141    15734907.31349  12257202.50045  24955628.078    24955657.354
       207.000         145.000
  20879072.042     3872683.58749   3023946.59547  20879071.759    20879085.285
       242.000         204.000
  20963426.852   -15893670.96249 -12046982.29847  20963425.233    20963440.264
       239.000         201.000
 00  3 11 22 58  0.0000000  0  8G17G30G 4G 5G 6G 9G24G10
  25056339.375    -2930857.43349  -1389038.67345  25056336.189    25056368.077
       199.000         134.000
  21031560.269   -16049027.27849 -12484515.46347  21031560.054    21031573.585
       242.000         205.000
  24195791.488    16547743.91249  12842155.92145  24195791.262    24195813.172
       209.000         147.000
  20332569.039    -5833190.98249  -4285358.33948  20332568.306    20332580.942
       247.000         217.000
  22856920.543   -10358341.79449  -7541851.27446  22856919.614    22856937.756
       226.000         174.000
  24972402.795    15823057.66549  12325890.75345  24972403.954    24972432.839
       210.000         145.000
  20890556.891     3933036.61749   3070974.87847  20890556.329    20890570.206
       242.000         204.000
  20953269.966   -15947044.84349 -12088572.17347  20953268.624    20953283.214
       239.000         201.000
 00  3 11 22 58 30.0000000  0  7G17G30G 4G 5G 6G24G10
  25038775.543    -3023153.94449  -1460957.51645  25038774.047    25038804.180
       197.000         133.000
  21021847.552   -16100067.80149 -12524287.20747  21021847.198    21021860.409
       242.000         205.000
  24214279.255    16644896.73449  12917859.23045  24214279.763    24214300.673
       207.000         146.000
  20337536.171    -5807088.49049  -4265018.75648  20337535.567    20337548.073
       247.000         216.000
  22844162.767   -10425383.64049  -7594091.44146  22844162.605    22844179.413
       227.000         175.000
  20902082.485     3993603.92249   3118170.12447  20902082.120    20902095.885
       242.000         204.000
  20943211.987   -15999899.31249 -12129757.31447  20943210.707    20943225.648
       240.000         201.000
 00  3 11 22 59  0.0000000  0  7G17G30G 4G 5G 6G24G10
  25021235.724    -3115324.06849  -1532777.92245  25021234.120    25021264.453
       195.000         134.000
  21012221.792   -16150651.19949 -12563702.75047  21012221.822    21012235.147
       243.000         206.000
  24232761.492    16742020.19349  12993539.65445  24232762.328    24232784.177
       206.000         143.000
  20342605.432    -5780449.72649  -4244261.30148  20342604.728    20342617.236
       247.000         217.000
  22831411.807   -10492389.77949  -7646303.78746  22831411.143    22831428.835
       226.000         175.000
  20913652.064     4054402.48149   3165545.56747  20913651.740    20913665.564
       242.000         204.000
  20933254.771   -16052224.35049 -12170529.91947  20933253.130    20933267.932
       240.000         202.000
 00  3 11 22 59 30.0000000  0  7G17G30G 4G 5G 6G24G10
  25003720.606    -3207364.45749  -1604497.19845  25003718.296    25003748.994
       198.000         133.000
  21002684.556   -16200769.39549 -12602755.79747  21002684.464    21002697.630
       243.000         206.000
  24251239.366    16839121.23449  13069202.60445  24251239.406    24251260.352
       207.000         142.000
  20347776.251    -5753276.96749  -4223087.74448  20347775.548    20347788.091
       247.000         217.000
  22818664.468   -10559376.52749  -7698501.02346  22818663.128    22818681.306
       226.000         175.000
  20925270.744     4115458.68549   3213121.77847  20925270.527    20925284.358
       242.000         203.000
  20923399.595   -16104012.97249 -12210884.53547  20923398.173    20923412.925
       240.000         202.000
 00  3 11 23  0  0.0000000  0  7G17G30G 4G 5G 6G24G10
  24986230.310    -3299275.36149  -1676115.60845  24986228.704    24986259.518
       196.000         133.000
  20993237.423   -16250414.08549 -12641439.87547  20993237.374    20993250.567
       243.000         206.000
  24269713.757    16936204.57149  13144851.78845  24269713.517    24269735.006
       205.000         141.000
  20353046.172    -5725583.23149  -4201508.23548  20353045.300    20353057.901
       247.000         217.000
  22805920.295   -10626346.52749  -7750685.20446  22805919.580    22805937.149
       225.000         175.000
  20936939.947     4176780.60249   3260905.03047  20936939.738    20936953.810
       242.000         203.000
  20913646.923   -16155262.88449 -12250819.37547  20913645.504    20913660.178
       240.000         202.000
 00  3 11 23  0 30.0000000  0  7G17G30G 4G 5G 6G24G10
  24968764.614    -3391055.62649  -1747632.20345  24968760.757    24968793.540
       196.000         132.000
  20983884.106   -16299565.84549 -12679739.85247  20983883.550    20983897.015
       242.000         206.000
  24288179.557    17033242.47349  13220465.55545  24288180.013    24288201.479
       206.000         139.000
  20358414.164    -5697374.30049  -4179527.28048  20358413.624    20358426.181
       247.000         217.000
  22793180.571   -10693293.08249  -7802851.12346  22793179.420    22793197.053
       226.000         176.000
  20948658.677     4238362.50249   3308890.86747  20948658.535    20948672.512
       243.000         203.000
  20903996.384   -16205976.22649 -12290336.11547  20903994.796    20904009.818
       240.000         202.000
 00  3 11 23  1  0.0000000  0  7G17G30G 4G 5G 6G24G10
  24951324.803    -3482700.93949  -1819043.66545  24951324.468    24951351.604
       199.000         133.000
  20974623.002   -16348232.73249 -12717662.00147  20974622.541    20974635.827
       242.000         206.000
  24306634.300    17130222.93349  13296034.59545  24306634.217    24306657.029
       206.000         139.000
  20363882.720    -5668637.30949  -4157134.84948  20363882.078    20363894.628
       247.000         217.000
  22780447.560   -10760204.73949  -7854989.84446  22780446.905    22780464.627
       226.000         176.000
  20960425.677     4300198.12449   3357074.41047  20960425.210    20960439.468
       242.000         203.000
  20894446.675   -16256159.63349 -12329439.92247  20894445.147    20894460.037
       240.000         202.000
 00  3 11 23  1 30.0000000  0  7G17G30G 4G 5G 6G24G10
  24933910.843    -3574209.89349  -1890348.86845  24933908.684    24933940.005
       200.000         133.000
  20965453.747   -16396416.89449 -12755207.99847  20965453.389    20965466.755
       243.000         206.000
  24325081.616    17227163.97849  13371572.89545  24325082.006    24325102.418
       208.000         138.000
  20369453.373    -5639363.28849  -4134323.95348  20369452.821    20369465.209
       247.000         217.000
  22767723.309   -10827070.39549  -7907092.73146  22767722.664    22767739.984
       227.000         176.000
  20972238.570     4362275.09349   3405446.01547  20972238.352    20972252.112
       242.000         203.000
  20884996.205   -16305821.54649 -12368137.36947  20884994.819    20885009.413
       240.000         202.000
 00  3 11 23  2  0.0000000  0  7G17G30G 4G 5G 6G24G10
  24916526.223    -3665565.00349  -1961534.20945  24916525.249    24916554.260
       205.000         135.000
  20956379.330   -16444103.16249 -12792366.02347  20956379.031    20956392.133
       243.000         207.000
  24343520.252    17324059.00649  13447075.34245  24343521.401    24343542.609
       210.000         139.000
  20375125.828    -5609554.56249  -4111096.40448  20375125.254    20375137.899
       247.000         217.000
  22755012.406   -10893865.73649  -7959140.83746  22755011.224    22755029.304
       226.000         177.000
  20984091.893     4424564.74949   3453983.34447  20984091.666    20984105.645
       242.000         203.000
  20875645.115   -16354961.20849 -12406427.87247  20875643.753    20875658.342
       240.000         202.000
 00  3 11 23  2 30.0000000  0  7G17G30G 4G 5G 6G24G10
  25198966.226    -2181331.47949   -804988.15445  25198963.261    25198992.944
       205.000         137.000
  21247193.618   -14915863.37149 -11601529.71847  21247193.274    21247206.875
       243.000         207.000
  24661741.795    18996323.38449  14750138.33545  24661742.641    24661762.465
       213.000         139.000
  20680694.014    -4003783.19749  -2859846.02448  20680693.454    20680705.963
       247.000         216.000
  23042106.550    -9385174.67649  -6783537.20246  23042105.792    23042123.200
       227.000         177.000
  21295775.020     6062470.26949   4730273.29047  21295774.612    21295788.692
       242.000         203.000
  21166186.180   -14828156.95449 -11216710.13347  21166184.885    21166199.383
       239.000         203.000
 00  3 11 23  3  0.0000000  0  7G17G30G 4G 5G 6G24G10
  25181643.925    -2272358.82749   -875918.10445  25181641.852    25181671.401
       208.000         137.000
  21238309.218   -14962550.87349 -11637909.49247  21238309.165    21238322.189
       243.000         207.000
  24680164.946    19093136.84449  14825577.24345  24680165.517    24680186.382
       215.000         138.000
  20686574.743    -3972879.84949  -2835765.52248  20686574.093    20686586.759
       247.000         216.000
  23029417.642    -9451854.52749  -6835495.30946  23029416.027    23029434.050
       226.000         177.000
  21307702.220     6125147.69349   4779112.77247  21307701.765    21307715.820
       242.000         202.000
  21157035.667   -14876242.73049 -11254179.43147  21157034.290    21157048.798
       239.000         203.000
 00  3 11 23  3 30.0000000  0  7G17G30G 4G 5G 6G24G10
  25164350.274    -2363235.95849   -946731.01445  25164349.194    25164377.611
       208.000         138.000
  21229523.567   -15008719.42649 -11673884.89347  21229523.387    21229536.475
       243.000         207.000
  24698581.426    19189915.53049  14900989.10245  24698581.048    24698603.165
       216.000         138.000
  20692558.217    -3941436.55549  -2811264.28848  20692557.411    20692570.272
       247.000         216.000
  23016736.826    -9518491.81449  -6887420.26746  23016736.005    23016753.078
       227.000         177.000
  21319664.851     6188011.59049   4828097.55847  21319664.773    21319678.775
       241.000         202.000
  21147987.587   -14923790.09749 -11291229.19247  21147986.224    21148000.784
       239.000         203.000
 00  3 11 23  4  0.0000000  0  7G17G30G 4G 5G 6G24G10
  25147084.327    -2453967.23849  -1017430.27545  25147081.987    25147111.415
       212.000         139.000
  21220839.147   -15054355.90549 -11709445.69547  21220838.849    21220851.916
       243.000         207.000
  24716990.034    19286652.39749  14976368.34445  24716989.144    24717011.341
       217.000         138.000
  20698645.048    -3909449.92749  -2786339.67648  20698644.307    20698657.102
       247.000         216.000
  23004061.688    -9585099.22049  -6939321.94946  23004060.840    23004078.344
       227.000         178.000
  21331660.952     6251051.33249   4877219.36647  21331660.669    21331674.540
       242.000         202.000
  21139042.144   -14970798.14749 -11327858.71247  21139040.717    21139055.231
       239.000         203.000
 00  3 11 23  4 30.0000000  0  7G17G30G 4G 5G 6G24G10
  25129844.025    -2544564.19149  -1088024.89645  25129842.362    25129871.187
       212.000         140.000
  21212255.783   -15099461.44049 -11744592.77947  21212255.551    21212268.578
       243.000         207.000
  24735389.264    19383340.33849  15051709.47145  24735389.926    24735411.845
       216.000         138.000
  20704835.727    -3876917.78549  -2760989.98548  20704835.141    20704847.944
       247.000         216.000
  22991390.486    -9651686.06449  -6991207.60046  22991389.602    22991407.171
       227.000         178.000
  21343692.204     6314275.77749   4926485.10547  21343691.850    21343705.945
       242.000         202.000
  21130199.777   -15017264.57849 -11364066.19747  21130198.608    21130212.977
       240.000         203.000
 00  3 11 23  5  0.0000000  0  7G17G30G 4G 5G 6G24G10
  25112627.406    -2635036.41249  -1158522.31245  25112625.131    25112655.598
       211.000         138.000
  21203775.561   -15144025.07049 -11779317.60747  21203775.622    21203788.368
       244.000         207.000
  24753779.698    19479982.28249  15127014.75845  24753779.555    24753801.071
       216.000         139.000
  20711128.715    -3843848.00249  -2735221.35848  20711128.114    20711140.807
       247.000         216.000
  22978724.845    -9718243.88349  -7043070.65346  22978723.731    22978741.429
       227.000         179.000
  21355758.432     6377683.97949   4975894.01647  21355758.376    21355772.423
       242.000         202.000
  21121460.325   -15063190.12749 -11399852.21647  21121458.908    21121473.332
       239.000         203.000
 00  3 11 23  5 30.0000000  0  7G17G30G 4G 5G 6G24G10
  25095435.154    -2725380.95249  -1228920.23445  25095432.693    25095461.622
       212.000         137.000
  21195400.979   -15188033.46049 -11813609.77447  21195400.979    21195413.635
       243.000         207.000
  24772162.113    19576582.17449  15202287.27945  24772161.599    24772183.769
       216.000         140.000
  20717521.656    -3810252.97649  -2709043.44848  20717521.039    20717533.797
       246.000         216.000
  22966067.234    -9784759.10049  -7094900.49746  22966066.133    22966083.396
       226.000         179.000
  21367858.447     6441269.56549   5025441.15747  21367857.850    21367872.062
       241.000         202.000
  21112823.326   -15108577.39749 -11435218.79447  21112822.007    21112836.406
       239.000         203.000
 00  3 11 23  6  0.0000000  0  7G17G30G 4G 5G 6G24G10
  25078271.910    -2815572.90449  -1299199.27445  25078269.425    25078298.878
       212.000         137.000
  21187129.654   -15231499.37249 -11847479.24147  21187129.465    21187142.591
       243.000         207.000
  24790537.959    19673147.23649  15277532.67045  24790538.487    24790560.096
       217.000         141.000
  20724013.742    -3776136.79849  -2682459.45148  20724013.134    20724025.886
       246.000         216.000
  22953419.091    -9851224.79549  -7146691.75446  22953418.489    22953435.713
       227.000         179.000
  21379992.298     6505033.09749   5075126.95347  21379991.980    21380006.127
       241.000         202.000
  21104290.694   -15153416.32949 -11470158.09547  21104289.494    21104303.808
       239.000         203.000
 00  3 11 23  6 30.0000000  0  7G17G30G 4G 5G 6G24G10
  25061138.579    -2905607.71649  -1369355.85545  25061137.066    25061164.836
       213.000         137.000
  21178958.000   -15274441.29649 -11880940.39947  21178957.633    21178970.576
       243.000         207.000
  24808904.970    19769665.58949  15352741.68145  24808906.292    24808925.799
       216.000         141.000
  20730604.214    -3741503.78949  -2655472.72948  20730603.622    20730616.351
       246.000         216.000
  22940781.305    -9917635.75549  -7198440.36346  22940780.078    22940797.382
       227.000         179.000
  21392161.033     6568979.85649   5124955.53647  21392160.765    21392174.638
       242.000         201.000
  21095865.389   -15197691.06749 -11504657.76247  21095863.977    21095878.056
       240.000         203.000
 00  3 11 23  7  0.0000000  0  7G17G30G 4G 5G 6G24G10
  25044035.126    -2995485.20449  -1439389.83145  25044033.217    25044060.344
       214.000         138.000
  21170884.188   -15316868.95549 -11914000.83447  21170884.132    21170896.767
       243.000         207.000
  24827263.194    19866138.51949  15427915.31045  24827262.854    24827284.943
       213.000         140.000
  20737293.524    -3706351.35749  -2628081.25948  20737293.011    20737305.656
       247.000         216.000
  22928153.758    -9983993.19249  -7250147.27346  22928152.940    22928170.081
       228.000         179.000
  21404365.468     6633114.18949   5174930.27347  21404365.256    21404379.587
       242.000         201.000
  21087548.529   -15241395.74749 -11538713.22847  21087547.195    21087561.508
       240.000         203.000
 00  3 11 23  7 30.0000000  0  7G17G30G 4G 5G 6G24G10
  25026963.366    -3085195.99049  -1509293.92345  25026960.066    25026987.976
       213.000         139.000
  21162905.484   -15358796.83749 -11946671.82047  21162905.126    21162918.158
       243.000         207.000
  24845611.013    19962556.15049  15503045.82045  24845611.441    24845632.474
       210.000         140.000
  20744082.160    -3670676.96949  -2600283.07048  20744081.541    20744094.185
       246.000         216.000
  22915535.983   -10050299.33349  -7301814.21346  22915535.455    22915551.475
       228.000         179.000
  21416608.220     6697449.94549   5225061.96947  21416607.941    21416622.322
       241.000         201.000
  21079341.055   -15284525.77749 -11572320.90447  21079339.597    21079353.735
       240.000         203.000
 00  3 11 23  8  0.0000000  0  7G17G30G 4G 5G 6G24G10
  25009923.145    -3174741.36249  -1579069.10045  25009922.051    25009947.925
       213.000         139.000
  21155018.995   -15400240.33549 -11978965.37147  21155018.605    21155031.377
       243.000         207.000
  24863945.155    20058902.33749  15578120.65745  24863945.099    24863967.200
       210.000         141.000
  20750971.779    -3634472.13649  -2572071.55248  20750971.072    20750983.804
       247.000         216.000
  22902926.443   -10116562.35549  -7353447.55446  22902925.435    22902942.379
       228.000         180.000
  21428892.112     6762002.11849   5275362.30047  21428891.577    21428905.808
       241.000         201.000
  21071242.331   -15327084.21949 -11605483.19547  21071241.153    21071255.266
       240.000         203.000
 00  3 11 23  8 30.0000000  0  7G17G30G 4G 5G 6G24G10
  24951635.747    -3481042.28649  -1817744.72345  24951634.093    24951660.805
       211.000         139.000
  21105950.349   -15658097.44849 -12179892.90547  21105950.225    21105962.847
       243.000         207.000
  24840990.966    19938277.14449  15484126.90345  24840991.549    24841013.041
       207.000         141.000
  20716687.176    -3814639.01349  -2712461.36848  20716686.506    20716699.340
       246.000         216.000
  22849049.787   -10399685.17549  -7574062.55146  22849048.683    22849065.742
       227.000         180.000
  21399941.973     6609868.22749   5156816.34947  21399941.759    21399955.719
       240.000         200.000
  21021974.646   -15585987.24349 -11807225.67747  21021973.531    21021987.352
       240.000         204.000
 00  3 11 23  9  0.0000000  0  7G17G30G 4G 5G 6G24G10
  24911595.079    -3691455.53249  -1981702.65045  24911593.363    24911621.005
       210.000         140.000
  21075197.417   -15819705.04249 -12305820.81147  21075197.364    21075210.088
       244.000         208.000
  24836248.440    19913354.38549  15464706.48045  24836247.933    24836271.522
       207.000         141.000
  20700719.639    -3898548.93349  -2777845.76048  20700719.020    20700731.962
       247.000         215.000
  22813399.588   -10587027.66749  -7720043.53346  22813398.473    22813416.069
       229.000         180.000
  21389251.186     6553687.63249   5113039.21047  21389251.070    21389265.272
       241.000         200.000
  20991030.523   -15748599.24549 -11933936.19947  20991029.283    20991043.271
       241.000         204.000
 00  3 11 23  9 30.0000000  0  7G17G30G 4G 5G 6G24G10
  24882061.022    -3846656.52149  -2102638.01945  24882059.369    24882087.151
       211.000         142.000
  21055020.610   -15925734.49349 -12388441.08047  21055020.343    21055033.006
       243.000         208.000
  24841978.338    19943464.94149  15488169.15845  24841978.646    24841999.715
       205.000         141.000
  20695328.254    -3926881.11649  -2799922.82248  20695327.703    20695340.544
       246.000         215.000
  22788235.270   -10719266.78949  -7823086.81146  22788234.404    22788250.773
       228.000         180.000
  21389078.243     6552778.28549   5112330.57047  21389078.209    21389092.154
       241.000         200.000
  20970670.531   -15855591.38649 -12017306.57247  20970669.058    20970683.192
       240.000         204.000
 00  3 11 23 10  0.0000000  0  7G17G30G 4G 5G 6G24G10
  24858288.192    -3971581.58249  -2199981.76745  24858285.617    24858314.439
       210.000         141.000
  21040677.176   -16001109.38049 -12447174.67947  21040676.863    21040689.647
       244.000         208.000
  24853439.043    20003691.05449  15535098.48545  24853439.652    24853460.988
       205.000         141.000
  20695767.339    -3924573.78349  -2798124.93948  20695766.689    20695779.610
       246.000         215.000
  22768812.328   -10821334.27649  -7902619.72546  22768811.660    22768828.197
       228.000         180.000
  21394675.323     6582190.67149   5135249.25647  21394675.215    21394689.136
       241.000         200.000
  20956149.681   -15931898.43149 -12076766.48547  20956148.220    20956162.337
       240.000         204.000
 00  3 11 23 10 30.0000000  0  7G17G30G 4G 5G 6G24G10
  24837680.227    -4079875.32249  -2284366.05745  24837677.763    24837705.868
       207.000         140.000
  21029572.743   -16059463.22649 -12492645.12247  21029572.520    21029585.444
       244.000         208.000
  24868036.782    20080401.10749  15594872.48545  24868036.666    24868057.654
       204.000         141.000
  20699439.015    -3905279.22949  -2783090.26148  20699438.427    20699451.210
       246.000         215.000
  22752536.831   -10906861.78549  -7969264.34646  22752536.047    22752553.334
       228.000         180.000
  21403442.428     6628261.97149   5171148.91247  21403442.285    21403456.443
       240.000         200.000
  20944873.346   -15991155.59649 -12122940.78647  20944871.917    20944886.117
       241.000         204.000
 00  3 11 23 11  0.0000000  0  7G17G30G 4G 5G 6G24G10
  24818816.548    -4179002.62249  -2361607.64145  24818813.953    24818841.270
       207.000         140.000
  21020285.413   -16108268.13849 -12530674.84447  21020285.099    21020297.646
       244.000         208.000
  24884346.410    20166108.59149  15661657.44245  24884346.365    24884369.012
       201.000         140.000
  20704925.743    -3876446.47349  -2760623.21848  20704925.169    20704938.087
       246.000         215.000
  22737990.201   -10983303.72849  -8028829.30846  22737989.158    22738006.033
       228.000         181.000
  21413958.108     6683522.00849   5214208.62547  21413957.865    21413971.954
       241.000         199.000
  20935422.368   -16040820.39549 -12161640.51847  20935421.170    20935435.056
       240.000         205.000
 00  3 11 23 11 30.0000000  0  7G17G30G 4G 5G 6G24G10
  24800919.966    -4273047.73949  -2434889.12145  24800917.692    24800945.373
       203.000         140.000
  21012035.921   -16151619.07449 -12564454.71447  21012035.680    21012048.462
       244.000         208.000
  24901583.608    20256691.16449  15732241.16945  24901583.353    24901605.486
       201.000         139.000
  20711450.812    -3842157.13649  -2733904.29348  20711450.151    20711462.854
       246.000         215.000
  22724396.206   -11054739.46449  -8084493.31846  22724395.428    22724412.455
       228.000         181.000
  21425445.462     6743888.22149   5261247.18347  21425445.133    21425459.456
       240.000         199.000
  20927017.457   -16084988.04349 -12196056.75647  20927016.188    20927030.133
       240.000         205.000
 00  3 11 23 12  0.0000000  0  7G17G30G 4G 5G 6G24G10
  24783565.154    -4364245.02849  -2505951.46045  24783563.396    24783590.969
       204.000         140.000
  21004400.458   -16191743.14849 -12595720.15247  21004400.356    21004412.941
       244.000         208.000
  24919319.483    20349893.28949  15804866.11345  24919319.494    24919341.823
       200.000         139.000
  20718587.540    -3804653.61249  -2704680.80848  20718587.101    20718599.894
       246.000         215.000
  22711330.414   -11123400.00049  -8137994.83846  22711329.873    22711346.242
       229.000         181.000
  21437477.273     6807115.62049   5310515.23447  21437476.824    21437491.242
       240.000         199.000
  20919232.444   -16125898.02749 -12227934.55747  20919230.998    20919244.956
       240.000         205.000
 00  3 11 23 12 30.0000000  0  7G17G30G 4G 5G 6G24G10
  24766519.924    -4453816.83349  -2575747.21245  24766517.587    24766545.415
       204.000         140.000
  20997144.110   -16229875.29749 -12625433.43947  20997144.150    20997156.828
       244.000         209.000
  24937314.023    20444454.80849  15878550.32845  24937314.027    24937336.553
       195.000         138.000
  20726104.192    -3765153.49549  -2673901.53848  20726103.587    20726116.308
       246.000         215.000
  22698559.127   -11190513.10349  -8190290.56946  22698558.385    22698574.590
       228.000         181.000
  21449819.213     6871972.84449   5361053.28747  21449819.099    21449833.484
       240.000         198.000
  20911834.745   -16164772.68549 -12258226.38647  20911833.199    20911847.242
       241.000         205.000
 00  3 11 23 13  0.0000000  0  7G17G30G 4G 5G 6G24G10
  24749656.813    -4542431.61049  -2644797.23645  24749655.760    24749682.020
       205.000         142.000
  20990138.122   -16266691.81149 -12654121.55947  20990138.150    20990150.648
       244.000         209.000
  24955436.504    20539688.83449  15952758.56045  24955437.710    24955459.718
       199.000         137.000
  20733871.648    -3724335.53549  -2642095.38148  20733871.120    20733883.936
       246.000         215.000
  22685949.655   -11256775.62349  -8241923.50846  22685948.455    22685964.895
       229.000         182.000
  21462342.838     6937784.53049   5412335.07047  21462342.629    21462356.934
       239.000         198.000
  20904695.064   -16202291.45249 -12287461.68347  20904693.882    20904707.531
       240.000         205.000
 00  3 11 23 13 30.0000000  0  7G17G30G 4G 5G 6G24G10
  24732906.118    -4630454.90349  -2713386.36145  24732904.137    24732931.087
       206.000         141.000
  20983313.038   -16302557.63449 -12682068.87747  20983312.895    20983325.614
       244.000         209.000
  24973619.566    20635240.97049  16027214.70545  24973619.283    24973641.467
       203.000         139.000
  20741815.340    -3682591.23549  -2609567.40148  20741814.690    20741827.687
       246.000         215.000
  22673428.037   -11322576.38349  -8293196.64046  22673427.653    22673443.397
       229.000         182.000
  21474977.589     7004180.51649   5464072.15547  21474977.113    21474991.580
       239.000         198.000
  20897743.901   -16238819.74149 -12315925.17247  20897742.534    20897756.386
       240.000         205.000
 00  3 11 23 14  0.0000000  0  7G17G30G 4G 5G 6G24G10
  24716230.181    -4718085.65949  -2781669.63445  24716228.451    24716255.308
       207.000         144.000
  20976630.976   -16337671.88649 -12709430.55647  20976630.911    20976643.367
       244.000         209.000
  24991828.541    20730930.23749  16101777.70145  24991828.137    24991851.024
       203.000         141.000
  20749899.064    -3640111.19649  -2576466.11748  20749898.504    20749911.227
       246.000         214.000
  22660954.668   -11388123.49249  -8344272.12646  22660953.678    22660970.279
       229.000         182.000
  21487684.079     7070953.35149   5516102.89147  21487683.786    21487698.221
       239.000         198.000
  20890947.886   -16274532.63449 -12343753.28947  20890946.539    20890960.315
       241.000         205.000
 00  3 11 23 14 30.0000000  0  7G17G30G 4G 5G 6G24G10
  24699608.103    -4805432.82249  -2849731.93845  24699605.859    24699632.395
       207.000         144.000
  20970068.677   -16372156.52649 -12736301.62247  20970068.514    20970081.071
       244.000         209.000
  25010045.469    20826660.22749  16176372.42445  25010045.506    25010067.223
       208.000         145.000
  20758101.029    -3597009.86349  -2542880.70848  20758100.406    20758113.236
       246.000         214.000
  22648504.818   -11453547.02449  -8395251.32546  22648503.567    22648520.497
       228.000         183.000
  21500441.118     7137991.92349   5568340.69647  21500440.585    21500455.126
       240.000         198.000
  20884286.310   -16309539.17749 -12371031.00247  20884284.970    20884298.784
       241.000         206.000
 00  3 11 23 15  0.0000000  0  6G17G30G 5G 6G24G10
  24683028.749    -4892555.88449  -2917619.62445  24683027.006    24683054.048
       208.000         146.000
  20963618.720   -16406050.71949 -12762712.60347  20963618.569    20963631.310
       245.000         209.000
  20766409.038    -3553351.02449  -2508860.88348  20766408.405    20766421.210
       246.000         214.000
  22636066.369   -11518910.75649  -8446183.93146  22636065.808    22636082.150
       229.000         183.000
  21513242.729     7205264.75349   5620761.03547  21513242.382    21513256.739
       239.000         197.000
  20877749.642   -16343889.09949 -12397797.05847  20877748.296    20877762.097
       242.000         206.000
 00  3 11 23 15 30.0000000  0  6G17G30G 5G 6G24G10
  24666486.069    -4979487.34349  -2985357.99245  24666484.518    24666511.212
       211.000         148.000
  20957276.725   -16439378.06549 -12788681.88347  20957276.549    20957288.953
       244.000         209.000
  20774818.866    -3509157.26149  -2474424.23448  20774818.183    20774831.154
       246.000         214.000
  22623635.796   -11584233.44449  -8497084.54546  22623634.853    22623651.202
       230.000         183.000
  21526085.145     7272751.79149   5673348.28747  21526084.892    21526099.040
       238.000         197.000
  20871333.054   -16377607.98549 -12424071.39847  20871331.778    20871345.210
       241.000         206.000
 00  3 11 23 16  0.0000000  0  6G17G30G 5G 6G24G10
  24649976.585    -5066244.38049  -3052960.44545  24649974.648    24650001.122
       211.000         148.000
  20951039.513   -16472154.70949 -12814222.04247  20951039.337    20951051.945
       244.000         210.000
  20783326.443    -3464449.76749  -2439587.27148  20783325.723    20783338.612
       246.000         214.000
  22611210.336   -11649528.87049  -8547963.91746  22611209.086    22611225.239
       229.000         183.000
  21538961.291     7340416.32049   5726073.84947  21538960.888    21538975.313
       238.000         196.000
  20865029.430   -16410733.19849 -12449883.13547  20865028.162    20865041.615
       241.000         206.000
 00  3 11 23 16 30.0000000  0  6G17G30G 5G 6G24G10
  24633498.521    -5152835.44449  -3120433.57345  24633496.046    24633523.237
       210.000         149.000
  20944908.086   -16504375.36349 -12839328.97147  20944908.042    20944920.672
       245.000         210.000
  20791929.177    -3419242.32149  -2404360.74348  20791928.597    20791941.661
       246.000         214.000
  22598791.647   -11714788.85649  -8598815.67546  22598790.963    22598806.788
       230.000         184.000
  21551869.398     7408248.53149   5778930.07047  21551869.321    21551883.478
       238.000         196.000
  20858833.289   -16443293.81349 -12475254.92647  20858832.141    20858845.741
       241.000         206.000
 00  3 11 23 17  0.0000000  0  6G17G30G 5G 6G24G10
  24617051.057    -5239265.55849  -3187781.27845  24617049.311    24617075.937
       212.000         150.000
  20938884.206   -16536030.75849 -12863995.43747  20938883.982    20938896.401
       244.000         210.000
  20800628.964    -3373524.86649  -2368736.80248  20800628.395    20800641.469
       246.000         214.000
  22586385.023   -11779985.70249  -8649618.22346  22586384.082    22586400.063
       230.000         184.000
  21564807.927     7476240.63149   5831910.87647  21564807.375    21564822.125
       237.000         196.000
  20852742.872   -16475298.71049 -12500193.69147  20852741.497    20852755.103
       241.000         206.000
 00  3 11 23 17 30.0000000  0  6G17G30G 5G 6G24G10
  24600633.943    -5325536.83849  -3255005.24345  24600632.526    24600658.163
       212.000         150.000
  20932967.318   -16567123.85649 -12888223.75647  20932967.188    20932979.677
       245.000         210.000
  20809424.802    -3327302.61649  -2332719.51148  20809424.215    20809437.276
       246.000         214.000
  22573994.699   -11845096.47449  -8700353.69346  22573994.259    22574010.390
       230.000         184.000
  21577769.480     7544354.08249   5884986.23747  21577769.051    21577783.267
       237.000         195.000
  20846757.243   -16506753.14849 -12524703.53047  20846755.961    20846769.723
       242.000         206.000
 00  3 11 23 18  0.0000000  0  6G17G30G 5G 6G24G10
  24584246.817    -5411649.97849  -3322105.97245  24584245.151    24584270.975
       212.000         150.000
  20927157.940   -16597652.00549 -12912011.85847  20927157.780    20927170.303
       244.000         210.000
  20818314.485    -3280587.21249  -2296317.95148  20818313.931    20818326.971
       246.000         214.000
  22561622.893   -11910110.11349  -8751013.48846  22561621.974    22561638.042
       230.000         185.000
  21590751.030     7612572.55349   5938143.43547  21590750.724    21590765.031
       237.000         195.000
  20840877.876   -16537648.75449 -12548777.92147  20840876.521    20840890.142
       241.000         206.000
 00  3 11 23 18 30.0000000  0  6G17G30G 5G 6G24G10
  24567889.739    -5497604.97249  -3389083.46745  24567887.336    24567913.502
       213.000         151.000
  20921456.244   -16627614.35449 -12935359.08447  20921456.117    20921468.594
       244.000         210.000
  20827301.913    -3233358.24649  -2259516.21148  20827301.349    20827314.480
       246.000         213.000
  22549271.028   -11975018.77349  -8801591.47146  22549270.285    22549286.616
       230.000         185.000
  21603757.623     7680922.57149   5991403.13447  21603757.190    21603771.820
       237.000         195.000
  20835110.361   -16567956.94249 -12572394.58347  20835109.114    20835122.559
       241.000         206.000
 00  3 11 23 19  0.0000000  0  6G17G30G 5G 6G24G10
  24551562.691    -5583402.14249  -3455937.98345  24551560.638    24551586.986
       213.000         151.000
  20915860.063   -16657022.18849 -12958274.22047  20915859.981    20915872.508
       245.000         210.000
  20836385.387    -3185624.43249  -2222321.08148  20836384.941    20836397.865
       245.000         213.000
  22536937.686   -12039830.08049  -8852093.59746  22536937.213    22536952.982
       230.000         185.000
  21616789.583     7749405.45149   6044766.35747  21616789.258    21616803.585
       236.000         195.000
  20829456.320   -16597668.61849 -12595546.43447  20829454.938    20829468.367
       242.000         206.000
 00  3 11 23 19 30.0000000  0  6G17G30G 5G 6G24G10
  24535265.877    -5669040.94049  -3522669.09945  24535264.160    24535289.665
       215.000         151.000
  20910370.383   -16685870.48849 -12980753.35647  20910369.882    20910382.561
       245.000         210.000
  20845563.549    -3137392.98549  -2184738.18748  20845562.967    20845575.834
       246.000         213.000
  22524620.375   -12104557.20749  -8902530.12146  22524619.370    22524635.486
       231.000         185.000
  21629849.372     7818034.94349   6098243.82247  21629848.877    21629863.691
       237.000         195.000
  20823917.543   -16626774.83349 -12618226.49747  20823916.033    20823929.748
       242.000         206.000
 00  3 11 23 20  0.0000000  0  6G17G30G 5G 6G24G10
  24518999.350    -5754521.06849  -3589276.57545  24518997.361    24519023.360
       213.000         151.000
  20904984.986   -16714170.65049 -13002805.37747  20904984.740    20904996.953
       245.000         210.000
  20854839.259    -3088648.94649  -2146755.87448  20854838.576    20854851.598
       245.000         213.000
  22512314.379   -12169224.75449  -8952920.23346  22512313.670    22512329.401
       231.000         186.000
  21642942.712     7886840.55749   6151858.51747  21642942.463    21642957.033
       237.000         194.000
  20818492.708   -16655281.96049 -12640439.74447  20818491.318    20818504.845
       243.000         206.000
 00  3 11 23 20 30.0000000  0  6G17G30G 5G 6G24G10
  24502763.007    -5839841.52649  -3655759.61145  24502760.242    24502787.742
       214.000         151.000
  20899703.919   -16741922.38849 -13024430.05547  20899703.896    20899716.324
       245.000         210.000
  20864215.715    -3039375.34249  -2108360.91448  20864215.304    20864228.335
       245.000         213.000
  22500018.431   -12233839.92449  -9003269.52146  22500017.892    22500033.315
       231.000         186.000
  21656070.566     7955827.82749   6205614.75347  21656070.374    21656085.010
       236.000         194.000
  20813180.080   -16683199.45549 -12662193.53947  20813178.816    20813192.084
       243.000         207.000
 00  3 11 23 21  0.0000000  0  6G17G30G 5G 6G24G10
  24486557.293    -5925001.74649  -3722117.79145  24486555.141    24486581.164
       214.000         151.000
  20894528.137   -16769121.14249 -13045623.83647  20894528.189    20894540.370
       246.000         210.000
  20873688.292    -2989596.85349  -2069572.53848  20873687.697    20873700.808
       245.000         213.000
  22487731.540   -12298407.24349  -9053581.52946  22487730.628    22487745.991
       231.000         186.000
  21669227.480     8024967.68649   6259489.89847  21669227.156    21669241.338
       236.000         194.000
  20807977.444   -16710539.28949 -12683497.20847  20807976.128    20807989.387
       244.000         207.000
 00  3 11 23 21 30.0000000  0  6G17G30G 5G 6G24G10
  24170588.826    -7585425.45349  -5015953.99745  24170587.171    24170612.292
       213.000         150.000
  20589664.622   -18371189.43549 -14293988.68847  20589664.802    20589676.911
       244.000         210.000
  20583464.015    -4514736.05049  -3257992.74847  20583463.475    20583476.666
       245.000         212.000
  22175657.784   -13938365.24449 -10331470.69846  22175656.962    22175672.595
       231.000         186.000
  21382618.839     6518828.86349   5085875.16147  21382618.581    21382633.280
       236.000         194.000
  20503093.272   -18312716.06749 -13931946.55447  20503092.055    20503105.345
       240.000         207.000
 00  3 11 23 22  0.0000000  0  6G17G30G 5G 6G24G10
  24154444.188    -7670264.27349  -5082061.74545  24154442.597    24154467.685
       214.000         150.000
  20584695.946   -18397300.02549 -14314334.54647  20584695.832    20584708.164
       243.000         210.000
  20593123.848    -4463973.43149  -3218437.52147  20593123.387    20593136.603
       245.000         212.000
  22163381.641   -14002876.05649 -10381738.69046  22163381.270    22163396.104
       231.000         187.000
  21395823.628     6588220.30449   5139946.35347  21395823.510    21395837.772
       236.000         193.000
  20498113.474   -18338884.50249 -13952337.45447  20498112.172    20498125.651
       240.000         207.000
 00  3 11 23 22 30.0000000  0  6G17G30G 5G 6G24G10
  24138330.566    -7754940.67249  -5148042.91645  24138328.783    24138352.692
       215.000         150.000
  20579829.799   -18422871.64749 -14334260.43747  20579829.780    20579842.023
       245.000         211.000
  20602869.778    -4412758.31949  -3178529.70247  20602869.250    20602882.400
       245.000         212.000
  22151111.335   -14067356.33149 -10431982.87846  22151110.345    22151125.642
       232.000         187.000
  21409043.882     6657692.80449   5194080.69947  21409043.907    21409058.250
       236.000         193.000
  20493246.562   -18364459.85349 -13972266.20347  20493245.282    20493258.749
       242.000         207.000
 00  3 11 23 23  0.0000000  0  6G17G30G 5G 6G24G10
  24122247.787    -7839454.69749  -5213897.56245  24122246.206    24122270.559
       212.000         149.000
  20575065.217   -18447909.42949 -14353770.34147  20575065.179    20575077.326
       244.000         211.000
  20612699.545    -4361102.82749  -3138278.73647  20612699.025    20612712.351
       245.000         212.000
  22138847.791   -14131801.07749 -10482199.39046  22138847.245    22138862.407
       232.000         187.000
  21422280.134     6727249.61149   5248280.72947  21422280.104    21422294.433
       236.000         193.000
  20488493.375   -18389437.66249 -13991729.34147  20488492.402    20488505.565
       241.000         207.000
 00  3 11 23 23 30.0000000  0  6G17G30G 5G 6G24G10
  24106196.089    -7923804.70949  -5279624.40645  24106193.759    24106218.586
       211.000         149.000
  20570401.540   -18472416.87349 -14372866.99047  20570401.337    20570413.671
       243.000         211.000
  20622616.357    -4308989.95349  -3097671.36847  20622615.830    20622628.849
       245.000         212.000
  22126592.782   -14196200.67149 -10532380.71646  22126592.029    22126607.036
       232.000         187.000
  21435534.684     6796902.31349   5302555.48047  21435534.438    21435548.919
       236.000         192.000
  20483854.030   -18413817.31349 -14010726.38447  20483852.694    20483865.991
       241.000         207.000
 00  3 11 23 24  0.0000000  0  6G17G30G 5G 6G24G10
  24090175.618    -8007990.94049  -5345223.63345  24090173.480    24090198.242
       211.000         148.000
  20565840.547   -18496384.86249 -14391543.28347  20565840.595    20565852.588
       246.000         211.000
  20632622.310    -4256408.50049  -3056698.86947  20632621.643    20632634.991
       244.000         212.000
  22114351.919   -14260526.00749 -10582504.17347  22114350.873    22114366.251
       232.000         188.000
  21448809.586     6866661.99749   5356913.60347  21448809.518    21448824.162
       236.000         192.000
  20479326.018   -18437611.64949 -14029267.33047  20479324.689    20479338.057
       243.000         207.000
 00  3 11 23 24 30.0000000  0  6G17G30G 5G 6G24G10
  24074186.478    -8092012.33049  -5410694.41645  24074184.439    24074208.572
       213.000         148.000
  20561383.258   -18519807.94149 -14409794.97047  20561383.131    20561395.290
       246.000         211.000
  20642720.183    -4203343.95649  -3015349.94047  20642719.553    20642732.757
       244.000         212.000
  22102125.826   -14324774.01149 -10632567.38647  22102124.647    22102140.592
       232.000         188.000
  21462104.649     6936527.59049   5411354.25047  21462104.234    21462118.816
       236.000         192.000
  20474906.545   -18460835.69149 -14047363.90447  20474905.148    20474918.461
       243.000         207.000
 00  3 11 23 25  0.0000000  0  6G17G30G 5G 6G24G10
  24058228.874    -8175868.79549  -5476036.68745  24058226.756    24058251.504
       211.000         148.000
  20557030.037   -18542683.84649 -14427620.28647  20557029.844    20557042.034
       244.000         211.000
  20652911.523    -4149788.48449  -2973618.46447  20652910.967    20652924.188
       245.000         212.000
  22089914.856   -14388942.33649 -10682568.50547  22089914.011    22089929.495
       233.000         188.000
  21475421.577     7006508.27549   5465884.57847  21475421.585    21475435.597
       236.000         192.000
  20470596.593   -18483484.36749 -14065012.13147  20470595.422    20470608.514
       242.000         207.000
 00  3 11 23 25 30.0000000  0  6G17G30G 5G 6G24G10
  24042302.676    -8259559.62949  -5541249.89045  24042300.702    24042325.719
       213.000         148.000
  20552780.857   -18565013.20549 -14445019.71947  20552780.736    20552792.848
       245.000         211.000
  20663195.613    -4095745.47149  -2931507.09047  20663195.258    20663208.371
       245.000         212.000
  22077716.580   -14453044.12149 -10732517.77547  22077715.606    22077731.107
       232.000         188.000
  21488759.376     7076598.94749   5520500.61147  21488759.232    21488774.108
       235.000         192.000
  20466395.594   -18505560.51949 -14082214.24147  20466394.400    20466407.551
       241.000         207.000
 00  3 11 23 26  0.0000000  0  6G17G30G 5G 6G24G10
  24026408.168    -8343083.69049  -5606333.14145  24026405.975    24026430.702
       211.000         149.000
  20548636.590   -18586791.28949 -14461989.58747  20548636.585    20548648.671
       244.000         211.000
  20673570.396    -4041225.92549  -2889024.38547  20673569.696    20673582.965
       245.000         211.000
  22065530.574   -14517081.04449 -10782416.50747  22065529.522    22065545.143
       232.000         189.000
  21502119.050     7146804.48649   5575206.15147  21502118.823    21502133.476
       236.000         192.000
  20462303.847   -18527062.41649 -14098968.87847  20462302.653    20462315.951
       242.000         208.000
 00  3 11 23 26 30.0000000  0  6G17G30G 5G 6G24G10
  24010545.520    -8426441.16049  -5671286.58845  24010543.387    24010567.885
       212.000         149.000
  20544596.659   -18608020.92649 -14478532.09747  20544596.582    20544608.783
       245.000         211.000
  20684033.585    -3986241.78649  -2846179.66447  20684032.962    20684046.140
       245.000         211.000
  22053354.515   -14581066.02249 -10832274.75347  22053353.721    22053368.567
       232.000         189.000
  21515500.788     7217125.62049   5630001.76047  21515500.479    21515516.011
       235.000         192.000
  20458323.373   -18547979.59649 -14115267.88947  20458322.098    20458335.387
       242.000         208.000
 00  3 11 23 27  0.0000000  0  6G17G30G 5G 6G24G10
  23994714.722    -8509631.26649  -5736109.63945  23994711.977    23994736.804
       212.000         149.000
  20540663.251   -18628690.93749 -14494638.53147  20540663.035    20540675.263
       245.000         211.000
  20694584.548    -3930796.19949  -2802975.37147  20694584.038    20694597.099
       245.000         211.000
  22041189.309   -14644993.83549 -10882088.45747  22041188.503    22041203.468
       233.000         189.000
  21528908.993     7287585.73349   5684905.65647  21528908.936    21528923.722
       235.000         192.000
  20454456.849   -18568297.76749 -14131100.13947  20454455.765    20454468.888
       242.000         208.000
 00  3 11 23 27 30.0000000  0  6G17G30G 5G 6G24G10
  23978915.811    -8592653.44549  -5800801.84245  23978913.963    23978938.016
       209.000         148.000
  20536839.080   -18648786.74449 -14510297.54047  20536838.852    20536851.182
       245.000         211.000
  20705224.558    -3874882.84549  -2759406.58547  20705224.002    20705237.248
       245.000         211.000
  22029036.244   -14708858.07949 -10931852.62447  22029035.726    22029050.898
       233.000         189.000
  21542342.765     7358180.34749   5739914.36847  21542342.726    21542357.126
       236.000         191.000
  20450703.565   -18588021.15249 -14146468.92247  20450702.483    20450715.429
       242.000         208.000
 00  3 11 23 28  0.0000000  0  6G17G30G 5G 6G24G10
  23963148.961    -8675506.58549  -5865362.32345  23963146.769    23963171.242
       211.000         148.000
  20533127.007   -18668293.45649 -14525497.51147  20533126.882    20533139.097
       245.000         211.000
  20715952.445    -3818507.89749  -2715478.11947  20715951.835    20715965.195
       245.000         211.000
  22016897.673   -14772645.94849 -10981557.28947  22016896.800    22016911.862
       233.000         189.000
  21555802.251     7428910.08249   5795028.36847  21555801.939    21555816.627
       234.000         191.000
  20447067.715   -18607127.24049 -14161356.69047  20447066.570    20447079.795
       242.000         208.000
 00  3 11 23 28 30.0000000  0  6G17G30G 5G 6G24G10
  23947414.378    -8758190.62449  -5929791.04745  23947412.221    23947436.348
       212.000         150.000
  20529528.957   -18687201.13449 -14540230.71247  20529528.803    20529541.098
       245.000         211.000
  20726769.093    -3761666.14149  -2671185.90447  20726768.647    20726781.811
       245.000         211.000
  22004771.834   -14836367.02749 -11031209.90747  22004771.124    22004785.767
       233.000         190.000
  21569284.643     7499760.25849   5850236.22447  21569284.595    21569299.269
       235.000         191.000
  20443549.927   -18625612.92849 -14175761.03047  20443548.746    20443561.797
       242.000         208.000
 00  3 11 23 29  0.0000000  0  6G17G30G 5G 6G24G10
  23931712.105    -8840704.94149  -5994087.52045  23931710.741    23931734.267
       215.000         152.000
  20526045.069   -18705508.84849 -14554496.40647  20526045.185    20526057.116
       244.000         211.000
  20737675.029    -3704355.36149  -2626528.21747  20737674.407    20737687.881
       245.000         211.000
  21992658.098   -14900024.37649 -11080812.87447  21992657.020    21992672.698
       233.000         190.000
  21582785.489     7570707.06349   5905519.36847  21582785.239    21582800.148
       234.000         190.000
  20440150.322   -18643477.73349 -14189681.56547  20440149.129    20440162.249
       242.000         208.000
 00  3 11 23 29 30.0000000  0  6G17G30G 5G 6G24G10
  23916042.336    -8923049.16449  -6058251.44845  23916039.810    23916064.211
       213.000         153.000
  20522674.146   -18723222.99749 -14568299.58247  20522674.018    20522686.074
       244.000         211.000
  20748669.786    -3646577.88149  -2581506.86547  20748669.205    20748682.627
       245.000         211.000
  21980557.660   -14963611.88349 -11130361.42147  21980556.647    21980572.018
       233.000         190.000
  21596300.833     7641730.53449   5960862.25147  21596300.452    21596315.475
       234.000         190.000
  20436868.922   -18660721.13549 -14203117.88847  20436867.691    20436880.709
       242.000         208.000
 00  3 11 23 30  0.0000000  0  6G17G30G 5G 6G24G10
  23900404.906    -9005222.78549  -6122282.45345  23900402.965    23900426.642
       213.000         152.000
  20519413.448   -18740357.96649 -14581651.45147  20519413.356    20519425.552
       245.000         211.000
  20759752.603    -3588337.61549  -2536124.90447  20759752.113    20759765.440
       244.000         210.000
  21968470.583   -15027129.37749 -11179855.42047  21968469.855    21968484.263
       234.000         191.000
  21609829.127     7712821.96249   6016258.09047  21609829.576    21609843.709
       234.000         190.000
  20433704.672   -18677349.23249 -14216074.75147  20433703.441    20433716.465
       242.000         208.000
 00  3 11 23 30 30.0000000  0  6G17G30G 5G 6G24G10
  24184593.251    -7511801.19649  -4958576.91045  24184590.237    24184614.416
       213.000         154.000
  20816051.729   -17181512.96149 -13366966.97547  20816051.667    20816063.701
       245.000         211.000
  21070716.229    -1954213.05849  -1262781.15447  21070715.737    21070728.824
       244.000         210.000
  22256188.216   -13515162.35249 -10001699.14447  22256187.572    22256202.563
       234.000         191.000
  21923158.109     9359376.40749   7299287.45247  21923158.143    21923172.746
       234.000         190.000
  20730444.624   -17117969.97349 -13000973.93947  20730443.533    20730456.311
       242.000         208.000
 00  3 11 23 31  0.0000000  0  6G17G30G 5G 6G24G10
  24169021.133    -7593630.91049  -5022339.95045  24169019.106    24169042.724
       214.000         154.000
  20813001.739   -17197540.72749 -13379456.09047  20813001.879    20813013.699
       245.000         211.000
  21081974.513    -1895050.57649  -1216680.58347  21081974.053    21081987.049
       244.000         210.000
  22244127.249   -13578542.56849 -10051086.18547  22244126.412    22244141.346
       233.000         191.000
  21936703.783     9430559.07949   7354754.39347  21936703.726    21936718.321
       234.000         190.000
  20727503.885   -17133423.26449 -13013015.37547  20727502.629    20727515.538
       242.000         208.000
 00  3 11 23 31 30.0000000  0  6G17G30G 5G 6G24G10
  24153481.879    -7675288.50349  -5085968.83645  24153480.353    24153503.473
       214.000         154.000
  20810056.196   -17213019.70749 -13391517.57747  20810056.058    20810068.164
       245.000         211.000
  21093319.050    -1835434.76749  -1170226.76847  21093318.649    21093332.010
       244.000         210.000
  22232081.164   -13641844.47949 -10100412.20447  22232080.181    22232095.490
       234.000         192.000
  21950262.094     9501808.12649   7410273.06447  21950261.510    21950276.774
       234.000         189.000
  20724675.167   -17148288.00849 -13024598.21247  20724673.937    20724687.012
       242.000         208.000
 00  3 11 23 32  0.0000000  0  6G17G30G 5G 6G24G10
  24137975.638    -7756773.10949  -5149462.95245  24137973.469    24137997.422
       214.000         155.000
  20807216.926   -17227939.97449 -13403143.70547  20807216.604    20807228.698
       245.000         211.000
  21104749.113    -1775369.63249  -1123422.82447  21104748.597    21104761.984
       244.000         209.000
  22220047.233   -13705082.74249 -10149688.63447  22220046.332    22220061.419
       234.000         192.000
  21963835.366     9573135.74849   7465852.96247  21963834.943    21963850.143
       234.000         189.000
  20721958.351   -17162564.70349 -13035722.82947  20721956.888    20721969.969
       242.000         209.000
 00  3 11 23 32 30.0000000  0  6G17G30G 5G 6G24G10
  24122502.326    -7838084.25849  -5212821.89745  24122500.940    24122523.780
       215.000         155.000
  20804485.530   -17242293.40549 -13414328.14347  20804485.374    20804497.372
       245.000         211.000
  21116264.536    -1714855.89249  -1076269.31847  21116264.135    21116277.324
       244.000         209.000
  22208023.946   -13768265.14249 -10198921.53047  22208023.455    22208037.965
       234.000         192.000
  21977428.946     9644570.02749   7521515.96847  21977429.182    21977443.583
       234.000         189.000
  20719355.247   -17176243.75349 -13046381.75347  20719354.120    20719366.942
       242.000         209.000
 00  3 11 23 33  0.0000000  0  6G17G30G 5G 6G24G10
  24107062.207    -7919221.51349  -5276045.33745  24107059.650    24107083.712
       215.000         155.000
  20801865.511   -17256061.42949 -13425056.42447  20801865.338    20801877.556
       245.000         211.000
  21127865.326    -1653893.68849  -1028766.36147  21127864.694    21127878.196
       243.000         209.000
  22196011.503   -13831390.39949 -10248109.90647  22196011.071    22196025.700
       235.000         192.000
  21991048.892     9716142.80249   7577286.88647  21991048.664    21991063.079
       234.000         188.000
  20716868.410   -17189311.89049 -13056564.65047  20716867.071    20716880.155
       242.000         209.000
 00  3 11 23 33 30.0000000  0  6G17G30G 5G 6G24G10
  24091655.252    -8000184.44149  -5339132.93945  24091652.806    24091676.384
       215.000         156.000
  20799354.338   -17269257.48549 -13435339.01747  20799354.337    20799366.169
       245.000         212.000
  21139550.179    -1592489.83249   -980919.25647  21139549.704    21139563.010
       244.000         209.000
  22184007.275   -13894472.49649 -10297264.65447  22184006.812    22184021.143
       234.000         192.000
  22004695.602     9787856.27349   7633167.43847  22004695.276    22004710.005
       234.000         188.000
  20714494.510   -17201786.28549 -13066284.89447  20714493.285    20714506.138
       242.000         209.000
 00  3 11 23 34  0.0000000  0  6G17G30G 5G 6G24G10
  24076281.542    -8080972.12949  -5402083.99145  24076279.958    24076303.468
       217.000         157.000
  20796952.363   -17281879.81249 -13445174.54647  20796952.250    20796964.107
       245.000         212.000
  21151319.510    -1530641.69149   -932725.95847  21151318.867    21151332.389
       243.000         209.000
  22172014.128   -13957496.27949 -10346373.95547  22172013.434    22172028.010
       234.000         192.000
  22018367.862     9859704.28449   7689152.83247  22018367.431    22018382.750
       233.000         188.000
  20712233.178   -17213669.56649 -13075544.53447  20712232.130    20712244.874
       242.000         209.000
 00  3 11 23 34 30.0000000  0  6G17G30G 5G 6G24G10
  24060941.104    -8161584.48549  -5464898.42045  24060939.218    24060962.325
       215.000         157.000
  20794654.651   -17293954.11149 -13454583.04247  20794654.550    20794666.487
       245.000         212.000
  21163172.135    -1468355.99649   -884191.70847  21163171.521    21163185.005
       243.000         209.000
  22160034.196   -14020450.81649 -10395429.29247  22160033.248    22160048.008
       234.000         193.000
  22032057.879     9931645.57649   7745210.91246  22032057.244    22032072.409
       233.000         187.000
  20710082.857   -17224969.35949 -13084349.50847  20710081.719    20710094.619
       242.000         209.000
 00  3 11 23 35  0.0000000  0  6G17G30G 5G 6G24G10
  24045634.299    -8242020.72149  -5527575.62545  24045632.955    24045655.362
       217.000         157.000
  20792459.550   -17305489.37949 -13463571.51647  20792459.410    20792471.383
       245.000         212.000
  21175105.118    -1405648.17049   -835328.52947  21175104.580    21175117.774
       243.000         209.000
  22148069.716   -14083323.97449 -10444421.21747  22148068.711    22148083.392
       234.000         193.000
  22045757.134    10003635.53849   7801306.91946  22045756.770    22045772.384
       233.000         187.000
  20708043.542   -17235685.61849 -13092699.77947  20708042.471    20708055.269
       242.000         209.000
 00  3 11 23 35 30.0000000  0  6G17G30G 5G 6G24G10
  24030361.054    -8322280.89949  -5590115.62045  24030359.069    24030381.900
       216.000         158.000
  20790367.727   -17316481.86449 -13472137.04947  20790367.638    20790379.497
       245.000         212.000
  21187116.097    -1342530.01749   -786145.62147  21187115.705    21187128.913
       243.000         209.000
  22136124.633   -14146095.10849 -10493333.63647  22136124.050    22136138.448
       235.000         193.000
  22059461.614    10075653.08649   7857424.42746  22059461.243    22059476.390
       232.000         187.000
  20706116.966   -17245809.69849 -13100588.61047  20706115.764    20706128.736
       243.000         209.000
 00  3 11 23 36  0.0000000  0  6G17G30G 5G 6G24G10
  24015121.380    -8402364.57049  -5652518.08845  24015119.958    24015142.421
       218.000         159.000
  20788383.504   -17326908.53449 -13480261.69047  20788383.372    20788395.383
       245.000         212.000
  21199205.456    -1279000.25549   -736641.98147  21199204.986    21199218.459
       243.000         208.000
  22124199.704   -14208760.45649 -10542163.63047  22124199.146    22124213.552
       235.000         193.000
  22073168.470    10147682.97649   7913551.53746  22073168.204    22073182.851
       232.000         186.000
  20704307.423   -17255318.55649 -13107998.04747  20704306.097    20704318.935
       243.000         209.000
 00  3 11 23 36 30.0000000  0  6G17G30G 5G 6G24G10
  23999915.456    -8482270.81149  -5714782.29245  23999912.926    23999936.212
       220.000         160.000
  20786505.724   -17336775.98049 -13487950.57047  20786505.652    20786517.646
       245.000         212.000
  21211370.177    -1215074.51049   -686829.78847  21211369.724    21211383.120
       243.000         208.000
  22112290.646   -14271342.27049 -10590928.53347  22112290.130    22112304.352
       236.000         194.000
  22086877.431    10219723.67349   7969687.06846  22086877.293    22086892.028
       233.000         186.000
  20702616.102   -17264206.10149 -13114923.34147  20702615.118    20702627.686
       243.000         209.000
 00  3 11 23 37  0.0000000  0  6G17G30G 5G 6G24G10
  23984743.362    -8561999.42049  -5776908.08845  23984741.839    23984764.185
       219.000         160.000
  20784740.902   -17346050.15349 -13495177.15747  20784740.863    20784752.763
       245.000         212.000
  21223612.292    -1150741.96249   -636700.60547  21223611.689    21223625.374
       243.000         208.000
  22100397.895   -14333838.59049 -10639626.81147  22100397.093    22100411.488
       235.000         194.000
  22100598.138    10291826.20449   8025870.78146  22100597.864    22100613.100
       232.000         186.000
  20701045.185   -17272461.13549 -13121355.76547  20701043.906    20701056.692
       242.000         209.000
 00  3 11 23 37 30.0000000  0  6G17G30G 5G 6G24G10
  23969605.109    -8641549.87949  -5838895.07445  23969603.669    23969625.503
       218.000         161.000
  20783092.580   -17354712.12149 -13501926.70747  20783092.514    20783104.474
       246.000         212.000
  21235937.356    -1085973.71949   -586231.92347  21235936.847    21235950.312
       243.000         208.000
  22088519.821   -14396257.73849 -10688264.96047  22088519.166    22088533.521
       235.000         194.000
  22114337.092    10364024.70549   8082129.27346  22114336.843    22114352.100
       232.000         186.000
  20699593.686   -17280088.41749 -13127299.03447  20699592.460    20699605.288
       243.000         209.000
 00  3 11 23 38  0.0000000  0  6G17G30G 5G 6G24G10
  23954500.919    -8720921.79249  -5900742.93545  23954499.705    23954520.985
       220.000         162.000
  20781558.649   -17362772.95249 -13508207.83547  20781558.626    20781570.620
       245.000         212.000
  21248349.326    -1020748.74949   -535407.34847  21248348.944    21248362.435
       242.000         208.000
  22076652.318   -14458621.15349 -10736859.67847  22076651.642    22076666.185
       235.000         195.000
  22128096.520    10436330.80749   8138471.61546  22128095.998    22128111.537
       232.000         185.000
  20698260.179   -17287095.98849 -13132759.40847  20698259.193    20698271.775
       242.000         210.000
 00  3 11 23 38 30.0000000  0  6G17G30G 5G 6G24G10
  23939430.710    -8800114.43249  -5962451.10645  23939428.808    23939450.384
       218.000         162.000
  20780139.285   -17370231.71449 -13514019.81847  20780139.169    20780151.011
       245.000         212.000
  21260850.905     -955052.76849   -484215.75147  21260850.320    21260864.028
       243.000         207.000
  22064798.651   -14520912.20949 -10785398.01247  22064798.058    22064812.171
       235.000         195.000
  22141880.137    10508763.75049   8194912.80146  22141880.155    22141895.239
       232.000         185.000
  20697043.000   -17293492.14349 -13137743.35347  20697041.796    20697054.670
       243.000         210.000
 00  3 11 23 39  0.0000000  0  6G17G30G 5G 6G24G10
  23924394.576    -8879127.79649  -6024019.58045  23924391.608    23924414.413
       218.000         162.000
  20778836.305   -17377078.74549 -13519355.12647  20778836.271    20778847.890
       245.000         212.000
  21273444.550     -888873.07049   -432647.23247  21273443.911    21273457.536
       243.000         207.000
  22052960.851   -14583119.60449 -10833871.15547  22052959.884    22052974.261
       236.000         195.000
  22155685.040    10581308.49349   8251441.09346  22155684.519    22155699.991
       231.000         184.000
  20695940.686   -17299284.61349 -13142256.89947  20695939.579    20695952.228
       243.000         210.000
 00  3 11 23 39 30.0000000  0  6G17G30G 5G 6G24G10
  23909392.788    -8957961.19049  -6085447.81045  23909390.893    23909412.521
       218.000         162.000
  20777644.301   -17383342.54149 -13524235.96647  20777644.026    20777655.802
       245.000         211.000
  21286128.294     -822219.94649   -380709.81347  21286127.800    21286141.278
       242.000         207.000
  22041138.610   -14645245.31749 -10882280.65647  22041137.628    22041151.918
       237.000         195.000
  22169504.554    10653930.32349   8308029.45546  22169504.441    22169519.401
       232.000         184.000
  20694952.561   -17304476.89549 -13146302.77047  20694951.193    20694963.807
       243.000         210.000
 00  3 11 23 40  0.0000000  0  6G17G30G 5G 6G24G10
  23894425.218    -9036614.52949  -6146735.75646  23894423.515    23894445.421
       218.000         163.000
  20776557.851   -17389051.73749 -13528684.64747  20776557.728    20776569.731
       245.000         211.000
  21298894.282     -755134.55049   -328435.55947  21298893.743    21298907.363
       242.000         206.000
  22029332.857   -14707284.11049 -10930622.42547  22029332.041    22029346.497
       237.000         195.000
  22183332.987    10726598.97349   8364654.29846  22183332.668    22183347.765
       232.000         184.000
  20694080.031   -17309061.83949 -13149875.39047  20694078.737    20694091.520
       243.000         209.000
 00  3 11 23 40 30.0000000  0  6G17G30G 5G 6G24G10
  23879492.130    -9115086.82149  -6207882.63446  23879490.073    23879512.205
       218.000         163.000
  20775578.393   -17394198.56249 -13532695.11947  20775578.336    20775590.141
       245.000         211.000
  21311739.249     -687634.06249   -275837.86047  21311738.620    21311752.412
       242.000         206.000
  22017547.012   -14769218.50549 -10978882.84447  22017546.150    22017560.402
       237.000         195.000
  22197167.624    10799299.91849   8421304.32346  22197167.311    22197182.414
       231.000         184.000
  20693321.894   -17313045.60249 -13152979.56747  20693320.622    20693333.371
       242.000         209.000
 00  3 11 23 41  0.0000000  0  6G17G30G 5G 6G24G10
  23864593.402    -9193378.47249  -6268888.74846  23864591.497    23864613.219
       218.000         163.000
  20774704.741   -17398789.41649 -13536272.37147  20774704.681    20774716.492
       245.000         211.000
  21324658.413     -619743.68049   -222936.35347  21324657.877    21324671.502
       241.000         206.000
  22005780.136   -14831053.18149 -11027065.57347  22005779.416    22005793.326
       237.000         196.000
  22211006.858    10872025.29449   8477973.36446  22211006.570    22211021.996
       231.000         184.000
  20692677.722   -17316430.50849 -13155617.10147  20692676.578    20692689.267
       242.000         209.000
 00  3 11 23 41 30.0000000  0  6G17G30G 5G 6G24G10
  23849729.295    -9271488.69949  -6329753.50146  23849727.967    23849749.080
       219.000         163.000
  20773939.186   -17402812.29149 -13539407.04447  20773939.221    20773950.791
       245.000         212.000
  21337652.183     -551461.17749   -169729.29047  21337651.481    21337665.285
       242.000         205.000
  21994035.721   -14892769.86049 -11075156.34447  21994035.106    21994049.343
       237.000         196.000
  22224857.773    10944812.08049   8534690.26946  22224857.281    22224873.184
       232.000         184.000
  20692150.754   -17319199.44949 -13157774.66847  20692149.633    20692162.268
       242.000         209.000
 00  3 11 23 42  0.0000000  0  6G17G30G 5G 6G24G10
  23834899.752    -9349417.32449  -6390476.75746  23834898.103    23834919.355
       219.000         163.000
  20773285.740   -17406245.90949 -13542082.55947  20773285.674    20773297.632
       244.000         211.000
  21350719.903     -482790.19249   -116219.51947  21350719.105    21350732.848
       241.000         205.000
  21982314.628   -14954364.10449 -11123151.72847  21982314.151    21982328.119
       237.000         197.000
  22238723.546    11017676.93249   8591468.00046  22238723.312    22238738.930
       231.000         184.000
  20691738.688   -17321364.61749 -13159461.77347  20691737.628    20691750.156
       243.000         209.000
 00  3 11 23 42 30.0000000  0  6G17G30G 5G 6G24G10
  23820104.850    -9427163.79649  -6451058.08646  23820103.376    23820125.335
       220.000         163.000
  20772749.148   -17409065.46049 -13544279.57847  20772749.195    20772760.898
       245.000         212.000
  21363865.262     -413711.16449    -62391.78847  21363864.884    21363878.621
       241.000         205.000
  21970615.763   -15015841.41349 -11171055.98747  21970615.200    21970629.363
       238.000         197.000
  22252607.494    11090637.09449   8648320.00046  22252607.271    22252622.846
       231.000         183.000
  20691438.334   -17322942.83949 -13160691.51847  20691437.236    20691449.558
       242.000         209.000
 00  3 11 23 43  0.0000000  0  6G17G30G 5G 6G24G10
  23805344.641    -9504727.86649  -6511497.26946  23805342.374    23805365.050
       219.000         163.000
  20772329.044   -17411273.15049 -13545999.82647  20772328.976    20772340.736
       246.000         212.000
  21377089.813     -344215.99749     -8239.79547  21377089.329    21377102.948
       242.000         204.000
  21958938.910   -15077203.14549 -11218870.18847  21958938.523    21958952.336
       239.000         197.000
  22266511.033    11163700.34949   8705252.33646  22266510.356    22266525.865
       231.000         183.000
  20691251.754   -17323923.02749 -13161455.26547  20691250.435    20691263.241
       243.000         209.000
 00  3 11 23 43 30.0000000  0  6G17G30G 5G 6G24G10
  23790619.206    -9582109.24949  -6571794.11646  23790617.978    23790639.069
       219.000         163.000
  20772025.081   -17412870.34249 -13547244.36147  20772025.076    20772036.793
       245.000         212.000
  21390396.857     -274287.30849     46250.00747  21390396.367    21390409.968
       241.000         204.000
  21947281.826   -15138461.08849 -11266603.51447  21947281.423    21947295.271
       238.000         197.000
  22280430.959    11236850.09449   8762252.06046  22280430.589    22280446.139
       231.000         183.000
  20691178.961   -17324305.41349 -13161753.19347  20691177.736    20691190.414
       243.000         209.000
 00  3 11 23 44  0.0000000  0  6G17G30G 5G 6G24G10
  23775928.649    -9659307.56549  -6631948.30746  23775927.248    23775948.202
       219.000         164.000
  20771832.447   -17413882.61649 -13548033.11947  20771832.430    20771844.107
       245.000         212.000
  21403781.999     -203948.08649    101059.70547  21403781.470    21403795.268
       241.000         204.000
  21935638.152   -15199648.53549 -11314281.91147  21935637.304    21935651.281
       239.000         197.000
  22294357.767    11310035.38349   8819279.48146  22294357.507    22294372.774
       231.000         183.000
  20691215.440   -17324113.65249 -13161603.73247  20691214.310    20691226.921
       242.000         209.000
 00  3 11 23 44 30.0000000  0  6G17G30G 5G 6G24G10
  23761272.992    -9736322.23749  -6691959.40446  23761271.474    23761292.688
       219.000         163.000
  20771749.625   -17414317.56049 -13548372.01447  20771749.567    20771761.382
       245.000         212.000
  21417245.906     -133195.18449    156191.75047  21417245.659    21417259.226
       241.000         204.000
  21924007.973   -15260764.89049 -11361904.91747  21924007.366    21924021.238
       238.000         197.000
  22308287.181    11383234.56949   8876317.73146  22308287.334    22308301.975
       231.000         182.000
  20691365.192   -17323326.23549 -13160990.12447  20691364.147    20691376.864
       242.000         209.000
 00  3 11 23 45  0.0000000  0  6G17G30G 5G 6G24G10
  23746652.317    -9813152.84649  -6751827.07646  23746651.315    23746671.590
       218.000         163.000
  20771774.864   -17414184.71949 -13548268.47747  20771774.780    20771786.557
       245.000         212.000
  21430786.634      -62038.73649    211638.24847  21430785.996    21430799.686
       241.000         203.000
  21912391.924   -15321806.98349 -11409470.05447  21912391.097    21912405.079
       238.000         198.000
  22322217.138    11456436.73949   8933358.32546  22322216.711    22322232.118
       230.000         182.000
  20691633.084   -17321918.43949 -13159893.10547  20691632.071    20691644.417
       243.000         209.000
 00  3 11 23 45 30.0000000  0  6G17G30G 5G 6G24G10
  23732066.693    -9889799.23049  -6811551.20546  23732065.033    23732086.013
       219.000         163.000
  20771904.396   -17413503.98249 -13547738.01347  20771904.470    20771916.041
       245.000         212.000
  21444398.385        9491.31149    267375.86247  21444397.892    21444411.707
       240.000         203.000
  21900785.153   -15382800.26649 -11456997.14447  21900784.392    21900798.323
       238.000         198.000
  22336142.677    11529615.63049   8990380.76746  22336142.250    22336157.288
       230.000         181.000
  20692014.782   -17319912.33149 -13158329.86647  20692013.527    20692026.225
       242.000         209.000
 00  3 11 23 46  0.0000000  0  6G17G30G 5G 6G24G10
  23717516.260    -9966260.82049  -6871131.33346  23717514.636    23717535.229
       221.000         163.000
  20772135.806   -17412287.70649 -13546790.24647  20772135.700    20772147.726
       245.000         212.000
  21458077.948       81377.78849    323391.20747  21458077.392    21458091.348
       240.000         203.000
  21889190.279   -15443731.30949 -11504475.74047  21889189.919    21889203.228
       238.000         198.000
  22350066.235    11602784.41749   9047395.33746  22350066.081    22350081.632
       229.000         181.000
  20692510.415   -17317307.50049 -13156300.09147  20692509.294    20692521.909
       242.000         209.000
 00  3 11 23 46 30.0000000  0  6G17G30G 5G 6G24G10
  23703001.093   -10042537.80949  -6930567.60346  23702998.775    23703020.333
       221.000         164.000
  20772473.486   -17410513.05349 -13545407.38247  20772473.446    20772485.475
       245.000         212.000
  21471831.435      153652.69949    379709.22347  21471830.881    21471844.798
       240.000         202.000
  21877614.140   -15504563.88649 -11551877.60247  21877613.493    21877627.299
       238.000         198.000
  22363995.004    11675980.72249   9104431.34746  22363994.469    22364009.885
       229.000         181.000
  20693124.224   -17314081.86649 -13153786.57047  20693123.149    20693135.690
       243.000         209.000
 00  3 11 23 47  0.0000000  0  6G17G30G 5G 6G24G10
  23688521.081   -10118629.50849  -6989859.50946  23688518.740    23688539.448
       221.000         164.000
  20772917.817   -17408178.10149 -13543587.92447  20772917.798    20772929.698
       245.000         212.000
  21485660.054      226322.22449    436334.72647  21485659.887    21485673.488
       240.000         202.000
  21866057.319   -15565294.98449 -11599200.39347  21866056.704    21866070.335
       238.000         198.000
  22377934.808    11749234.53849   9161512.16746  22377934.788    22377949.966
       230.000         181.000
  20693853.880   -17310247.43849 -13150798.66347  20693852.574    20693865.042
       242.000         209.000
 00  3 11 23 47 30.0000000  0  6G17G30G 5G 6G24G10
  23674076.333   -10194535.91749  -7049007.03246  23674073.420    23674095.340
       221.000         164.000
  20773472.231   -17405264.58949 -13541317.64347  20773472.204    20773484.038
       245.000         212.000
  21499566.501      299400.58349    493278.80147  21499566.090    21499579.887
       240.000         202.000
  21854523.234   -15625906.50949 -11646430.01447  21854522.459    21854536.029
       238.000         199.000
  22391889.647    11822567.52549   9218654.67446  22391889.917    22391905.732
       229.000         181.000
  20694697.091   -17305816.03949 -13147345.59047  20694695.890    20694708.624
       243.000         209.000
 00  3 11 23 48  0.0000000  0  6G17G30G 5G 6G24G10
  23659666.918   -10270256.00049  -7108009.36146  23659664.945    23659685.116
       220.000         164.000
  20774144.912   -17401729.47249 -13538562.99147  20774144.999    20774156.627
       246.000         212.000
  21513556.054      372915.67949    550563.18847  21513555.665    21513569.491
       240.000         202.000
  21843018.728   -15686362.53149 -11693538.47447  21843018.043    21843031.461
       239.000         199.000
  22405865.849    11896012.53049   9275884.47146  22405865.342    22405881.248
       229.000         180.000
  20695660.834   -17300751.44049 -13143399.11147  20695659.753    20695672.246
       243.000         209.000
 00  3 11 23 48 30.0000000  0  6G17G30G 5G 6G24G10
  23645292.982   -10345790.12449  -7166866.78046  23645291.545    23645311.362
       221.000         164.000
  20774941.241   -17397544.73949 -13535302.14447  20774941.158    20774953.035
       245.000         212.000
  21527629.719      446872.98249    608192.15547  21527628.943    21527643.348
       240.000         201.000
  21831541.360   -15746675.76249 -11740535.66247  21831540.609    21831554.311
       238.000         199.000
  22419862.000    11969562.42349   9333195.99646  22419861.933    22419877.403
       229.000         180.000
  20696746.447   -17295046.29949 -13138953.51147  20696745.331    20696757.815
       242.000         209.000
 00  3 11 23 49  0.0000000  0  6G17G30G 5G 6G24G10
  23630954.452   -10421138.28649  -7225579.29446  23630951.992    23630972.687
       220.000         164.000
  20775856.740   -17392733.55249 -13531553.15347  20775856.514    20775868.320
       245.000         212.000
  21541778.827      521226.50749    666129.87047  21541778.187    21541792.372
       240.000         201.000
  21820085.001   -15806878.71349 -11787446.92547  21820084.160    21820097.935
       238.000         199.000
  22433872.106    12043185.44249   9390564.50446  22433872.044    22433887.469
       229.000         180.000
  20697949.075   -17288726.38449 -13134028.87347  20697947.979    20697960.514
       242.000         209.000
 00  3 11 23 49 30.0000000  0  6G17G30G 5G 6G24G10
  23616651.389   -10496299.86749  -7284146.43646  23616649.734    23616669.929
       223.000         165.000
  20776889.368   -17387307.14349 -13527324.77047  20776889.329    20776901.210
       245.000         212.000
  21555999.378      595955.64949    724360.26747  21555998.663    21556012.785
       240.000         201.000
  21808647.596   -15866982.10349 -11834280.61547  21808646.898    21808660.514
       238.000         200.000
  22447888.628    12116842.64049   9447959.64346  22447888.240    22447904.277
       229.000         180.000
  20699267.831   -17281796.10749 -13128628.62847  20699266.646    20699279.243
       242.000         209.000
 00  3 11 23 50  0.0000000  0  6G17G30G 5G 6G24G10
  23602383.969   -10571274.57849  -7342567.96546  23602382.131    23602401.794
       223.000         166.000
  20778031.089   -17381307.34649 -13522649.59147  20778031.088    20778042.806
       245.000         212.000
  21570287.084      671037.63549    782865.60547  21570286.681    21570300.502
       240.000         201.000
  21797225.283   -15927006.32349 -11881052.61247  21797224.685    21797238.379
       238.000         200.000
  22461905.102    12190499.52049   9505354.54046  22461904.317    22461920.540
       228.000         179.000
  20700700.619   -17274266.52349 -13122761.39047  20700699.804    20700711.903
       242.000         209.000
 00  3 11 23 50 30.0000000  0  6G17G30G 5G 6G24G10
  23588151.993   -10646062.47149  -7400843.92846  23588150.113    23588171.093
       222.000         166.000
  20779273.884   -17374776.30949 -13517560.45547  20779273.848    20779285.616
       245.000         212.000
  21584636.215      746442.23749    841622.32847  21584635.528    21584649.639
       240.000         201.000
  21785815.905   -15986962.78049 -11927771.80947  21785815.184    21785828.520
       238.000         200.000
  22475916.231    12264128.30549   9562727.53846  22475916.107    22475931.627
       228.000         179.000
  20702239.326   -17266180.56549 -13116460.61547  20702238.129    20702250.602
       243.000         209.000
 00  3 11 23 51  0.0000000  0  6G17G30G 5G 6G24G10
  23274162.764   -12296085.69349  -8686575.99346  23274161.823    23274181.682
       224.000         167.000
  20480821.285   -18943155.28549 -14739673.92547  20480821.312    20480832.831
       244.000         212.000
  21299252.704     -753258.78649   -326975.98247  21299252.444    21299266.041
       240.000         200.000
  21474629.739   -17622256.57749 -13202026.59647  21474629.323    21474642.772
       238.000         200.000
  22190131.306    10762318.11949   8392485.74446  22190131.482    22190146.946
       228.000         179.000
  20404089.680   -18832967.21349 -14337333.29647  20404088.593    20404101.088
       242.000         209.000
 00  3 11 23 51 30.0000000  0  6G17G30G 5G 6G24G10
  23260002.291   -12370498.43049  -8744559.64446  23260001.696    23260020.187
       223.000         167.000
  20482261.454   -18935586.95749 -14733776.50847  20482261.336    20482273.094
       245.000         212.000
  21313724.731     -677208.24149   -267715.92547  21313724.326    21313738.346
       239.000         200.000
  21463256.892   -17682020.85049 -13248596.03747  21463256.547    21463269.641
       238.000         200.000
  22204137.406    10835919.96849   8449837.74646  22204137.066    22204152.666
       229.000         179.000
  20405840.599   -18823766.06549 -14330163.53347  20405839.441    20405851.679
       242.000         209.000
 00  3 11 23 52  0.0000000  0  6G17G30G 5G 6G24G10
  23245877.613   -12444722.94349  -8802396.62446  23245875.775    23245895.581
       224.000         168.000
  20483804.412   -18927478.68149 -14727458.35547  20483804.427    20483816.055
       244.000         212.000
  21328260.335     -600823.65749   -208195.58547  21328260.153    21328273.964
       239.000         200.000
  21451905.200   -17741674.03149 -13295078.91647  21451904.396    21451918.118
       239.000         201.000
  22218146.820    10909539.48549   8507203.51646  22218146.697    22218162.230
       228.000         178.000
  20407699.453   -18813997.61149 -14322551.72347  20407698.364    20407710.832
       242.000         209.000
 00  3 11 23 52 30.0000000  0  6G17G30G 5G 6G24G10
  23231788.703   -12518759.40649  -8860087.06946  23231787.508    23231806.969
       225.000         169.000
  20485457.442   -18918791.82649 -14720689.36147  20485457.483    20485469.270
       244.000         212.000
  21342861.941     -524091.99749   -148404.79747  21342861.305    21342875.263
       239.000         200.000
  21440575.321   -17801212.58749 -13341472.46747  21440574.519    21440587.919
       239.000         201.000
  22232164.384    10983202.20849   8564602.96346  22232163.853    22232180.042
       227.000         178.000
  20409669.252   -18803646.09649 -14314485.57347  20409668.331    20409680.639
       243.000         209.000
 00  3 11 23 53  0.0000000  0  6G17G30G 5G 6G24G10
  23217735.755   -12592607.24549  -8917630.55446  23217733.657    23217754.308
       225.000         169.000
  20487224.954   -18909503.47749 -14713451.67047  20487225.029    20487236.743
       245.000         212.000
  21357533.571     -446992.41549    -88327.32147  21357533.387    21357547.381
       239.000         200.000
  21429266.492   -17860640.37349 -13387779.70547  21429265.838    21429278.728
       239.000         201.000
  22246192.383    11056919.54149   8622044.96046  22246192.342    22246207.735
       227.000         177.000
  20411754.487   -18792688.12549 -14305946.86647  20411753.477    20411765.445
       242.000         209.000
 00  3 11 23 53 30.0000000  0  6G17G30G 5G 6G24G10
  23203718.594   -12666266.65649  -8975027.20646  23203716.831    23203736.733
       225.000         170.000
  20489108.254   -18899606.62749 -14705739.82247  20489108.116    20489119.887
       245.000         212.000
  21372276.646     -369517.59349    -27957.44747  21372276.491    21372290.629
       239.000         199.000
  21417978.833   -17919956.79249 -13434000.15747  21417977.902    21417991.426
       239.000         201.000
  22260229.177    11130683.36249   8679523.17646  22260228.684    22260244.641
       227.000         177.000
  20413954.856   -18781124.82049 -14296936.46547  20413953.774    20413966.490
       243.000         209.000
 00  3 11 23 54  0.0000000  0  6G17G30G 5G 6G24G10
  23189737.409   -12739737.35949  -9032276.82046  23189736.100    23189755.676
       226.000         170.000
  20491105.710   -18889109.64349 -14697560.34347  20491105.753    20491117.528
       245.000         212.000
  21387090.247     -291672.12749     32701.23747  21387089.746    21387104.127
       239.000         199.000
  21406711.988   -17979163.84849 -13480135.39747  21406711.402    21406724.494
       239.000         201.000
  22274273.826    11204488.31149   8737033.43246  22274273.931    22274289.943
       227.000         176.000
  20416268.900   -18768964.39249 -14287460.77947  20416267.752    20416280.388
       243.000         208.000
 00  3 11 23 54 30.0000000  0  6G17G30G 5G 6G24G10
  23175792.229   -12813018.79649  -9089378.94346  23175790.924    23175810.378
       225.000         171.000
  20493217.016   -18878014.62449 -14688914.86447  20493217.041    20493228.698
       245.000         212.000
  21401976.013     -213447.35449     93655.48747  21401975.401    21401989.766
       238.000         198.000
  21395469.939   -18038240.77649 -13526169.23047  21395469.335    21395482.678
       239.000         202.000
  22288325.686    11278330.99449   8794573.10846  22288325.323    22288341.309
       226.000         176.000
  20418699.145   -18756193.17249 -14277509.14747  20418698.139    20418710.352
       242.000         208.000
 00  3 11 23 55  0.0000000  0  6G17G30G 5G 6G24G10
  23161882.989   -12886111.16749  -9146333.75446  23161882.083    23161901.002
       225.000         172.000
  20495439.541   -18866335.20649 -14679814.00847  20495439.522    20495451.319
       245.000         212.000
  21416932.764     -134849.48649    154900.46347  21416932.256    21416946.875
       238.000         198.000
  21384256.012   -18097169.98249 -13572087.96147  21384255.298    21384268.442
       239.000         202.000
  22302382.672    11352200.66049   8852133.79646  22302382.322    22302398.575
       227.000         176.000
  20421245.702   -18742810.83849 -14267081.32947  20421244.427    20421257.000
       242.000         208.000
 00  3 11 23 55 30.0000000  0  7G17G30G 5G13G 6G24G10
  23148009.801   -12959013.95649  -9203140.84946  23148007.538    23148027.468
       225.000         172.000
  20497771.949   -18854078.35349 -14670263.20147  20497771.908    20497783.839
       245.000         212.000
  21431958.431      -55889.49849    216427.60747  21431957.944    21431972.415
       238.000         198.000
  24988234.447    -8866957.79149  -6308133.09445  24988233.776    24988254.441
       208.000         136.000
  21373071.857   -18155942.59749 -13617884.67547  21373071.091    21373084.604
       240.000         202.000
  22316443.472    11426090.57649   8909710.27346  22316443.518    22316458.432
       226.000         175.000
  20423907.994   -18728820.33249 -14256179.61347  20423906.913    20423919.239
       242.000         208.000
 00  3 11 23 56  0.0000000  0  7G17G30G 5G13G 6G24G10
  23134172.763   -13031726.98549  -9259800.07046  23134171.426    23134190.585
       224.000         172.000
  20500214.099   -18841244.61249 -14660262.87847  20500214.107    20500225.837
       245.000         212.000
  21447051.614       23425.14649    278231.10547  21447051.026    21447065.804
       238.000         198.000
  24981932.213    -8900075.41549  -6333938.88145  24981931.928    24981951.384
       207.000         135.000
  21361917.342   -18214559.37849 -13663559.96447  21361916.473    21361929.767
       239.000         202.000
  22330508.861    11500003.95749   8967305.03446  22330508.790    22330524.458
       226.000         175.000
  20426685.449   -18714224.59249 -14244806.29147  20426684.461    20426696.800
       243.000         208.000
 00  3 11 23 56 30.0000000  0  7G17G30G 5G13G 6G24G10
  23120371.845   -13104250.46149  -9316311.59046  23120370.900    23120388.664
       226.000         173.000
  20502767.901   -18827824.34249 -14649805.51147  20502767.859    20502779.812
       245.000         212.000
  21462212.964      103098.25249    340313.92747  21462212.370    21462227.166
       238.000         198.000
  24975703.551    -8932806.78049  -6359443.66745  24975703.200    24975723.264
       207.000         135.000
  21350793.415   -18273015.26449 -13709109.87547  21350792.614    21350805.626
       240.000         202.000
  22344577.762    11573936.25849   9024914.52846  22344577.211    22344592.771
       227.000         175.000
  20429578.221   -18699022.99249 -14232960.86647  20429577.098    20429589.471
       242.000         208.000
 00  3 11 23 57  0.0000000  0  7G17G30G 5G13G 6G24G10
  23106607.104   -13176583.60749  -9372674.80046  23106605.030    23106624.741
       226.000         174.000
  20505434.683   -18813810.19949 -14638885.39547  20505434.783    20505446.456
       245.000         212.000
  21477443.416      183134.52749    402679.73047  21477443.086    21477457.696
       238.000         197.000
  24969546.944    -8965159.33449  -6384653.28245  24969545.254    24969565.691
       207.000         136.000
  21339697.508   -18331324.18549 -13754545.27647  21339696.965    21339710.151
       240.000         203.000
  22358650.116    11647886.52449   9082538.02046  22358650.069    22358666.163
       226.000         175.000
  20432585.378   -18683220.26149 -14220647.03747  20432584.376    20432596.441
       242.000         208.000
 00  3 11 23 57 30.0000000  0  7G17G30G 5G13G 6G24G10
  23092878.505   -13248726.45749  -9428889.72246  23092877.414    23092896.917
       225.000         174.000
  20508216.549   -18799191.53549 -14627494.22447  20508216.557    20508228.476
       245.000         212.000
  21492743.548      263536.89049    465330.80447  21492743.144    21492757.763
       237.000         197.000
  24963463.155    -8997128.24649  -6409563.94445  24963462.644    24963482.908
       207.000         137.000
  21328627.379   -18389497.87049 -13799875.29647  21328626.739    21328639.857
       240.000         203.000
  22372727.207    11721861.47549   9140180.76146  22372727.723    22372741.846
       227.000         175.000
  20435704.973   -18666826.56549 -14207872.71647  20435703.867    20435716.134
       242.000         208.000
 00  3 11 23 58  0.0000000  0  7G17G30G 5G13G 6G24G10
  23079186.215   -13320678.61349  -9484956.08046  23079185.173    23079203.549
       224.000         174.000
  20511114.755   -18783961.25049 -14615626.46447  20511114.741    20511126.622
       245.000         212.000
  21508114.948      344313.96349    528273.85547  21508114.612    21508129.148
       236.000         197.000
  24957449.655    -9028729.13849  -6434187.83945  24957449.887    24957468.237
       208.000         138.000
  21317580.912   -18447546.73149 -13845108.05147  21317580.346    21317593.510
       240.000         203.000
  22386809.158    11795862.09849   9197843.50246  22386808.555    22386824.885
       227.000         174.000
  20438937.027   -18649842.01249 -14194637.98347  20438935.959    20438948.439
       242.000         208.000
 00  3 11 23 58 30.0000000  0  7G17G30G 5G13G 6G24G10
  23065530.175   -13392440.45749  -9540874.13146  23065528.937    23065547.527
       225.000         174.000
  20514130.480   -18768113.42249 -14603277.50547  20514130.533    20514142.259
       245.000         211.000
  21523558.980      425472.47249    591514.12547  21523558.720    21523573.229
       237.000         196.000
  24951508.054    -9059952.07749  -6458517.23845  24951507.431    24951527.796
       206.000         137.000
  21306558.018   -18505471.96349 -13890244.46447  21306557.337    21306570.521
       240.000         203.000
  22400894.682    11869881.65749   9255521.00546  22400894.154    22400910.229
       226.000         174.000
  20442284.304   -18632251.72949 -14180931.25247  20442283.202    20442295.547
       242.000         208.000
 00  3 11 23 59  0.0000000  0  7G17G30G 5G13G 6G24G10
  23051910.390   -13464011.67949  -9596643.65846  23051908.676    23051928.592
       225.000         174.000
  20517260.611   -18751664.51749 -14590460.18047  20517260.486    20517272.294
       245.000         211.000
  21539070.797      506987.02249    655031.83447  21539070.432    21539085.214
       237.000         196.000
  24945637.578    -9090800.97949  -6482555.15745  24945638.154    24945656.045
       205.000         135.000
  21295554.894   -18563293.41749 -13935300.01147  21295554.205    21295567.330
       241.000         204.000
  22414983.184    11943916.98749   9313210.79046  22414982.540    22414998.641
       226.000         174.000
  20445742.315   -18614079.67349 -14166771.19147  20445741.188    20445753.762
       242.000         208.000
